[[{"header":{"parameterUnit":"m.s-1","parameterCategory":1,"la1":30.6,"la2":29.2853,"lo1":-89.7004,"lo2":-87.6739,"dy":0.0162,"dx":0.0183,"nx":112,"ny":82,"refTime":"2024-08-06T18:00:00:Z","depth":0,"parameterNumber":2,"parameterNumberName":"U-component_of_WINDS"},"data":[0.0,0.0,0.0,0.0,0.0,0.0,0.0,0.0,0.0,0.0,0.0,0.0,0.0,0.0,0.0,0.0,0.0,0.0,0.0,0.0,0.0,0.0,0.0,0.0,0.0,0.0,0.0,0.0,0.0,0.0,0.0,0.0,0.0,0.0,0.0,0.0,0.0,0.0,0.0,0.0,0.0,0.0,0.0,0.0,0.0,0.0,0.0,0.0,0.0,0.0,0.0,0.0,0.0,0.0,0.0,0.0,0.0,0.0,0.0,0.0,0.0,0.0,0.0,0.0,0.0,0.0,0.0,0.0,0.0,0.0,0.0,0.0,0.0,0.0,0.0,0.0,0.0,0.0,0.0,0.0,0.0,0.0,0.0,0.0,0.0,0.0,0.0,0.0,0.0,0.0,0.0,2.2344,2.5937,2.7775,2.7152,2.7052,2.554,2.2078,0.0,0.0,0.0,0.0,0.0,0.0,0.0,0.0,0.0,0.0,0.0,0.0,0.0,0.0,0.0,0.0,0.0,0.0,0.0,0.0,0.0,0.0,0.0,0.0,0.0,0.0,0.0,0.0,0.0,0.0,0.0,0.0,0.0,0.0,0.0,0.0,0.0,0.0,0.0,0.0,0.0,0.0,0.0,0.0,0.0,0.0,0.0,0.0,0.0,0.0,0.0,0.0,0.0,0.0,0.0,0.0,0.0,0.0,0.0,0.0,0.0,0.0,0.0,0.0,0.0,0.0,0.0,0.0,0.0,0.0,0.0,0.0,0.0,0.0,0.0,0.0,0.0,0.0,0.0,0.0,0.0,0.0,0.0,0.0,0.0,0.0,0.0,0.0,0.0,0.0,0.0,0.0,0.0,0.0,0.0,0.0,0.0,0.0,0.0,0.0,0.0,0.0,0.0,0.0,1.5652,1.9611,2.1387,2.2938,2.4471,2.3394,2.2173,2.0997,0.0,0.0,0.0,0.0,0.0,0.0,0.0,0.0,0.0,0.0,0.0,0.0,0.0,0.0,0.0,0.0,0.0,0.0,0.0,0.0,0.0,0.0,0.0,0.0,0.0,0.0,0.0,0.0,0.0,0.0,0.0,0.0,0.0,0.0,0.0,0.0,0.0,0.0,0.0,0.0,0.0,0.0,0.0,0.0,0.0,0.0,0.0,0.0,0.0,0.0,0.0,0.0,0.0,0.0,0.0,0.0,0.0,0.0,0.0,0.0,0.0,0.0,0.0,0.0,0.0,0.0,0.0,0.0,0.0,0.0,0.0,0.0,0.0,0.0,0.0,0.0,0.0,0.0,0.0,0.0,0.0,0.0,0.0,0.0,0.0,0.0,0.0,0.0,0.0,0.0,0.0,0.0,0.0,0.0,0.0,0.0,0.0,0.0,0.0,0.0,0.0,0.0,0.0,1.4115,1.5016,1.8494,1.8916,1.9511,2.0809,1.9823,1.8667,1.7685,1.6611,0.0,0.0,0.0,0.0,0.0,0.0,0.0,0.0,0.0,0.0,0.0,0.0,0.0,0.0,0.0,0.0,0.0,0.0,0.0,0.0,0.0,0.0,0.0,0.0,0.0,0.0,0.0,0.0,0.0,0.0,0.0,0.0,0.0,0.0,0.0,0.0,0.0,0.0,0.0,0.0,0.0,0.0,0.0,0.0,0.0,0.0,0.0,0.0,0.0,0.0,0.0,0.0,0.0,0.0,0.0,0.0,0.0,0.0,0.0,0.0,0.0,0.0,0.0,0.0,0.0,0.0,0.0,0.0,0.0,0.0,0.0,0.0,0.0,0.0,0.0,0.0,0.0,0.0,0.0,0.0,0.0,0.0,0.0,0.0,0.0,0.0,0.0,0.0,0.0,0.0,0.0,0.0,0.0,0.0,0.0,0.0,0.0,0.0,0.0,0.0,0.0,0.0,1.3379,1.3971,1.6466,1.6181,1.6127,1.6988,1.6152,1.5225,1.4402,1.2556,0.0,0.0,0.0,0.0,0.0,0.0,0.0,0.0,0.0,0.0,0.0,0.0,0.0,0.0,0.0,0.0,0.0,0.0,0.0,0.0,0.0,0.0,0.0,0.0,0.0,0.0,0.0,0.0,0.0,0.0,0.0,0.0,0.0,0.0,0.0,0.0,0.0,0.0,0.0,0.0,0.0,0.0,0.0,0.0,0.0,0.0,0.0,0.0,0.0,0.0,0.0,0.0,0.0,0.0,0.0,0.0,0.0,0.0,0.0,0.0,0.0,0.0,0.0,0.0,0.0,0.0,0.0,0.0,0.0,0.0,0.0,0.0,0.0,0.0,0.0,0.0,0.0,0.0,0.0,0.0,0.0,0.0,0.0,0.0,0.0,0.0,0.0,0.0,0.0,0.0,0.0,0.0,0.0,0.0,0.0,0.0,0.0,0.0,0.0,0.0,0.0,0.0,0.9958,1.091,1.1743,1.1828,1.2263,1.3195,1.2215,1.1788,1.2431,1.0586,0.0,0.0,0.0,0.0,0.0,0.0,0.0,0.0,0.0,0.0,0.0,0.0,0.0,0.0,0.0,0.0,0.0,0.0,0.0,0.0,0.0,0.0,0.0,0.0,0.0,0.0,0.0,0.0,0.0,0.0,0.0,0.0,0.0,0.0,0.0,0.0,0.0,0.0,0.0,0.0,0.0,0.0,0.0,0.0,0.0,0.0,0.0,0.0,0.0,0.0,0.0,0.0,0.0,0.0,0.0,0.0,0.0,0.0,0.0,0.0,0.0,0.0,0.0,0.0,0.0,0.0,0.0,0.0,0.0,0.0,0.0,0.0,0.0,0.0,0.0,0.0,0.0,0.0,0.0,0.0,0.0,0.0,0.0,0.0,0.0,0.0,0.0,0.0,0.0,0.0,0.0,0.0,0.0,0.0,0.0,0.0,0.0,0.0,0.0,0.0,0.0,0.0,0.8942,0.921,0.0,0.9505,0.9867,1.1663,1.0811,1.0125,0.9852,0.0,0.0,0.0,0.0,0.0,0.0,0.0,0.0,0.0,0.0,0.0,0.0,0.0,0.0,0.0,0.0,0.0,0.0,0.0,0.0,0.0,0.0,0.0,0.0,0.0,0.0,0.0,0.0,0.0,0.0,0.0,0.0,0.0,0.0,0.0,0.0,0.0,0.0,0.0,0.0,0.0,0.0,0.0,0.0,0.0,0.0,0.0,0.0,0.0,0.0,0.0,0.0,0.0,0.0,0.0,0.0,0.0,0.0,0.0,0.0,0.0,0.0,0.0,0.0,0.0,0.0,0.0,0.0,0.0,0.0,0.0,0.0,0.0,0.0,0.0,0.0,0.0,0.0,0.0,0.0,0.0,0.0,0.0,0.0,0.0,0.0,0.0,0.0,0.0,0.0,0.0,0.0,0.0,0.0,0.0,0.0,0.0,0.0,0.0,0.0,0.0,0.0,0.6781,0.6623,0.6749,0.0,0.7562,0.8185,0.9803,0.9289,0.8503,0.7481,0.0,0.0,0.0,0.0,0.0,0.0,0.0,0.0,0.0,0.0,0.0,0.0,0.0,0.0,0.0,0.0,0.0,0.0,0.0,0.0,0.0,0.0,0.0,0.0,0.0,0.0,0.0,0.0,0.0,0.0,0.0,0.0,0.0,0.0,0.0,0.0,0.0,0.0,0.0,0.0,0.0,0.0,0.0,0.0,0.0,0.0,0.0,0.0,0.0,0.0,0.0,0.0,0.0,0.0,0.0,0.0,0.0,0.0,0.0,0.0,0.0,0.0,0.0,0.0,0.0,0.0,0.0,0.0,0.0,0.0,0.0,0.0,0.0,0.0,0.0,0.0,0.0,0.0,0.0,0.0,0.0,0.0,0.0,0.0,0.0,0.0,0.0,0.0,0.0,0.0,0.0,0.0,0.0,0.0,0.0,0.0,0.0,0.0,0.0,0.0,0.0,0.0,0.2355,0.2689,0.3178,0.3567,0.5623,0.7193,0.756,0.7269,0.6585,0.0,0.0,0.0,0.0,0.0,0.0,0.0,0.0,0.0,0.0,0.0,0.0,0.0,0.0,0.0,0.0,0.0,0.0,0.0,0.0,0.0,0.0,0.0,0.0,0.0,0.0,0.0,0.0,0.0,0.0,0.0,0.0,0.0,0.0,0.0,0.0,0.0,0.0,0.0,0.0,0.0,0.0,0.0,0.0,0.0,0.0,0.0,0.0,0.0,0.0,0.0,0.0,0.0,0.0,0.0,0.0,0.0,0.0,0.0,0.0,0.0,0.0,0.0,0.0,0.0,0.0,0.0,0.0,0.0,0.0,0.0,0.0,0.0,0.0,0.0,0.0,0.0,0.0,0.0,0.0,0.0,0.0,0.0,0.0,0.0,0.0,0.0,0.0,0.0,0.0,0.0,0.0,0.0,0.0,0.0,0.0,0.0,0.0,0.0,0.0,0.0,0.0,0.0,0.3792,0.2143,0.0942,0.1077,0.1705,0.2843,0.4646,0.4693,0.4509,0.4175,0.0,0.0,0.0,0.0,0.0,0.0,0.0,0.0,0.0,0.0,0.0,0.0,0.0,0.0,0.0,0.0,0.0,0.0,0.0,0.0,0.0,0.0,0.0,0.0,0.0,0.0,0.0,0.0,0.0,0.0,0.0,0.0,0.0,0.0,0.0,0.0,0.0,0.0,0.0,0.0,0.0,0.0,0.0,0.0,0.0,0.0,0.0,0.0,0.0,0.0,0.0,0.0,0.0,0.0,0.0,0.0,0.0,0.0,0.0,0.0,0.0,0.0,0.0,0.0,0.0,0.0,0.0,0.0,0.0,0.0,0.0,0.0,0.0,0.0,0.0,0.0,0.0,0.0,0.0,0.0,0.0,0.0,0.0,0.0,0.0,0.0,0.0,0.0,0.0,0.0,0.0,0.0,0.0,0.0,0.0,0.0,0.0,0.0,0.0,0.0,0.0,0.0,0.2644,0.1113,-0.0,-0.0,-0.0,0.0622,0.1998,0.2137,0.2199,0.2162,0.0,0.0,0.0,0.0,0.0,0.0,0.0,0.0,0.0,0.0,0.0,0.0,0.0,0.0,0.0,0.0,0.0,0.0,0.0,0.0,0.0,0.0,0.0,0.0,0.0,0.0,0.0,0.0,0.0,0.0,0.0,0.0,0.0,0.0,0.0,0.0,0.0,0.0,0.0,0.0,0.0,0.0,0.0,0.0,0.0,0.0,0.0,0.0,0.0,0.0,0.0,0.0,0.0,0.0,0.0,0.0,0.0,0.0,0.0,0.0,0.0,0.0,0.0,0.0,0.0,0.0,0.0,0.0,0.0,0.0,0.0,0.0,0.0,0.0,0.0,0.0,0.0,0.0,0.0,0.0,0.0,0.0,0.0,0.0,0.0,0.0,0.0,0.0,0.0,0.0,0.0,0.0,0.0,0.0,0.0,0.0,0.0,0.0,0.0,0.0,0.0,0.0,-0.0,-0.0,-0.0,-0.0,-0.0,-0.0,-0.0,-0.0,-0.0,-0.0,0.0,0.0,0.0,0.0,0.0,0.0,0.0,0.0,0.0,0.0,0.0,0.0,0.0,0.0,0.0,0.0,0.0,0.0,0.0,0.0,0.0,0.0,0.0,0.0,0.0,0.0,0.0,0.0,0.0,0.0,0.0,0.0,0.0,0.0,0.0,0.0,0.0,0.0,0.0,0.0,0.0,0.0,0.0,0.0,0.0,0.0,0.0,0.0,0.0,0.0,0.0,0.0,0.0,0.0,0.0,0.0,0.0,0.0,0.0,0.0,-0.7711,0.0,0.0,0.0,0.0,0.0,0.0,0.0,0.0,0.0,0.0,0.0,0.0,0.0,0.0,0.0,0.0,0.0,0.0,0.0,0.0,0.0,0.0,0.0,0.0,0.0,0.0,0.0,0.0,0.0,0.0,0.0,0.0,0.0,0.0,0.0,0.0,0.0,0.0,0.0,0.0,0.0,-0.0,-0.0,-0.0,-0.0,-0.0,-0.0,-0.0,-0.0,-0.0,-0.0,-0.0,0.0,0.0,0.0,0.0,0.0,0.0,0.0,0.0,0.0,0.0,0.0,0.0,0.0,0.0,0.0,0.0,0.0,0.0,0.0,0.0,0.0,0.0,0.0,0.0,0.0,0.0,0.0,0.0,0.0,0.0,0.0,0.0,0.0,0.0,0.0,0.0,0.0,0.0,0.0,0.0,0.0,0.0,0.0,0.0,0.0,0.0,0.0,0.0,0.0,0.0,0.0,0.0,0.0,0.0,0.0,0.0,0.0,0.0,0.0,0.0,-0.8404,0.0,0.0,0.0,0.0,0.0,0.0,0.0,0.0,0.0,0.0,0.0,0.0,0.0,0.0,0.0,0.0,0.0,0.0,0.0,0.0,0.0,0.0,0.0,0.0,0.0,0.0,0.0,0.0,0.0,0.0,0.0,0.0,0.0,0.0,0.0,0.0,0.0,0.0,0.0,0.0,-0.0,-0.1987,-0.2569,-0.0268,-0.1076,-0.2122,-0.2917,-0.2091,-0.1514,-0.1462,-0.1481,0.0,0.0,0.0,0.0,0.0,0.0,0.0,0.0,0.0,0.0,0.0,0.0,0.0,0.0,0.0,0.0,0.0,0.0,0.0,0.0,0.0,0.0,0.0,0.0,0.0,0.0,0.0,0.0,0.0,0.0,0.0,0.0,0.0,0.0,0.0,0.0,0.0,0.0,0.0,0.0,0.0,0.0,0.0,0.0,0.0,0.0,0.0,0.0,0.0,0.0,0.0,0.0,0.0,-1.072,-1.1045,-1.1045,-1.1045,-1.1587,-1.2513,-1.0775,-1.0718,-1.1631,0.0,0.0,0.0,0.0,0.0,0.0,0.0,0.0,0.0,0.0,0.0,0.0,0.0,0.0,0.0,0.0,0.0,0.0,0.0,0.0,0.0,0.0,0.0,0.0,0.0,0.0809,0.0805,0.0,0.0,0.0,0.0,0.0,0.0,0.0,0.0,0.0,0.0,0.0,0.0,-0.0,-0.3451,-0.4653,-0.1612,-0.2238,-0.3899,-0.627,-0.4763,-0.367,-0.3646,-0.3691,-0.3581,0.0,0.0,0.0,0.0,0.0,0.0,0.0,0.0,0.0,0.0,0.0,0.0,0.0,0.0,0.0,0.0,0.0,0.0,0.0,0.0,0.0,0.0,0.0,0.0,0.0,0.0,0.0,0.0,0.0,0.0,0.0,0.0,-0.4434,-0.5763,0.0,0.0,0.0,0.0,0.0,0.0,0.0,0.0,0.0,0.0,0.0,0.0,0.0,-0.9807,-1.0268,-1.1514,-1.2237,-1.2373,-1.3713,-1.4346,-1.4346,-1.4346,-1.4474,-1.4628,-1.4342,0.0,-1.1758,-1.1883,0.0,0.0,0.0,0.0,0.0,0.0,0.0,0.0,0.0,0.0,0.0,0.0,0.0,0.0,0.0,0.0,0.0,0.0,0.0,0.0,0.0,0.0,-0.3406,-0.3235,-0.325,-0.3142,0.0,-0.1136,0.0461,0.0445,-0.2305,0.0,0.0,0.0,0.0,0.0,0.0,0.0,-0.0,-0.0581,-0.2277,-0.5776,-0.2789,-0.2211,-0.6593,-0.6292,-0.5849,-0.5907,-0.5875,-0.5837,-0.5844,-0.5095,0.0,0.0,0.0,0.0,0.0,0.0,0.0,0.0,0.0,0.0,0.0,0.0,0.0,0.0,0.0,0.0,0.0,0.0,0.0,0.0,0.0,0.0,0.0,0.0,0.0,0.0,0.0,0.0,0.0,-0.4314,-0.5218,-0.6117,-0.5972,-0.593,0.0,0.0,0.0,0.0,0.0,0.0,0.0,0.0,0.0,-1.1565,-1.2001,-1.2333,-1.2729,-1.3719,-1.4242,-1.4269,-1.5061,-1.5451,-1.5451,-1.5451,-1.5451,-1.5451,-1.5451,-1.4804,-1.3749,-1.3027,-1.1991,-1.0755,0.0,0.0,0.0,0.0,-0.6428,-0.6421,-0.6599,-0.6542,0.0,-0.6318,0.0,0.0,0.0,0.0,0.0,0.0,0.0,0.0,0.0,0.0,-0.6236,-0.6281,-0.6219,-0.6205,-0.6053,-0.5082,-0.3822,0.0,-0.4351,-0.5631,-0.3445,0.0,0.0,0.0,0.0,-0.1991,-0.2057,-0.3186,-0.4289,-0.502,-0.4476,-0.4752,-0.6619,-0.6669,-0.6423,-0.63,-0.6291,-0.6261,-0.611,-0.4827,-0.3748,0.0,0.0,0.0,0.0,0.0,0.0,0.0,0.0,0.0,0.0,0.0,0.0,0.0,0.0,0.0,0.0,0.0,0.0,0.0,0.0,0.0,0.0,0.0,0.0,0.0,0.0,0.0,0.0,-0.5524,-0.6465,-0.677,-0.7443,-0.7719,0.0,0.0,0.0,0.0,0.0,0.0,-1.1886,-1.2478,-1.3073,-1.3748,-1.4195,-1.4563,-1.485,-1.5291,-1.5504,-1.5504,-1.5725,-1.5832,-1.5832,-1.5832,-1.5832,-1.5832,-1.5832,-1.5705,-1.5431,-1.3954,-1.3278,-1.2913,-1.0397,-0.9518,-0.9602,-0.8342,-0.7628,-0.7268,-0.7789,-0.7594,-0.7177,-0.7031,0.0,-0.733,-0.6783,0.0,0.0,0.0,0.0,-0.7608,-0.7621,-0.7822,-0.7976,-0.7959,-0.8024,-0.801,-0.7973,-0.7787,-0.6866,0.0,-0.5473,-0.6794,-0.6004,0.0,0.0,0.0,0.0,-0.4462,-0.4515,-0.5987,-0.643,-0.4641,-0.6077,-0.6954,-0.6676,-0.6636,-0.6502,-0.6288,-0.6271,-0.6217,-0.6101,-0.4583,-0.4092,-0.4686,0.0,0.0,0.0,0.0,0.0,0.0,0.0,0.0,0.0,0.0,0.0,0.0,0.0,0.0,0.0,0.0,0.0,0.0,0.0,0.0,0.0,0.0,0.0,0.0,0.0,0.0,0.0,0.0,0.0,-0.8457,-0.9009,0.0,0.0,0.0,0.0,-1.1154,-1.1793,-1.2523,-1.34,-1.3828,-1.4396,-1.5257,-1.5317,-1.5471,-1.5758,-1.5792,-1.5805,-1.5805,-1.5818,-1.5832,-1.5832,-1.5832,-1.5832,-1.5832,-1.5832,-1.5818,-1.5778,-1.5444,-1.4411,-1.3025,-1.282,-1.2042,-1.0919,-1.0994,-1.0272,-0.9225,-0.9342,-0.8479,-0.7404,-0.7668,-0.7756,-0.7639,-0.7375,-0.7392,0.0,0.0,-0.7559,-0.7685,-0.7791,-0.778,-0.7831,-0.7994,-0.8031,-0.7991,-0.7845,-0.7918,-0.7105,0.0,-0.5333,-0.6859,-0.7006,0.0,-0.4763,-0.6444,-0.6871,-0.6948,-0.6919,-0.7001,-0.7091,-0.6917,-0.7009,-0.6984,-0.6692,-0.6492,-0.6283,-0.6312,-0.6295,-0.6291,-0.6281,-0.5841,-0.4736,-0.2851,-0.2677,0.0,0.0,0.0,0.0,0.0,0.0,0.0,0.0,0.0,0.0,0.0,0.0,0.0,0.0,0.0,0.0,0.0,0.0,0.0,0.0,0.0,0.0,0.0,0.0,0.0,0.0,0.0,0.0,-0.9436,-1.0725,0.0,-1.1255,-1.1834,-1.2342,-1.2762,-1.34,-1.4357,-1.5828,-1.5301,-1.5513,-1.6857,-1.604,-1.5725,-1.5832,-1.6574,-1.7037,-1.7037,-1.7037,-1.7037,-1.6943,-1.6197,-1.5832,-1.5832,-1.5832,-1.5832,-1.5818,-1.5718,-1.5358,-1.4699,-1.3938,-1.2757,-1.148,-1.0716,-0.9606,-0.8475,-0.8531,-0.8225,-0.7801,-0.7811,-0.7739,-0.7625,-0.757,-0.7521,-0.7601,-0.7749,-0.7771,-0.7804,-0.7906,-0.796,-0.797,-0.8028,-0.8038,-0.8024,-0.797,-0.7963,-0.7693,-0.6478,-0.6797,-0.7125,-0.7144,-0.6427,-0.6153,-0.6849,-0.6966,-0.7031,-0.7058,-0.7129,-0.7071,-0.7071,-0.7071,-0.6954,-0.6742,-0.6632,-0.6465,-0.6149,-0.6122,-0.6081,-0.5983,-0.5888,-0.5429,-0.443,-0.446,-0.2992,0.0,0.0,0.0,0.0,0.0,0.0,0.0,0.0,0.0,0.0,0.0,0.0,0.0,0.0,0.0,0.0,0.0,0.0,0.0,0.0,0.0,0.0,0.0,0.0,0.0,0.0,-1.0969,-1.0742,-1.2257,-1.3342,-1.3103,-1.3887,-1.4566,-1.4782,-1.5179,-1.5803,-1.667,-1.6352,-1.6643,-1.7684,-1.685,-1.6662,-1.7023,-1.7498,-1.787,-1.8326,-1.8326,-1.8326,-1.8326,-1.739,-1.6842,-1.648,-1.648,-1.6197,-1.5832,-1.5832,-1.5832,-1.573,-1.4848,-1.398,-1.3108,-1.2231,-1.1161,-0.9895,-0.9019,-0.8333,-0.8021,-0.7923,-0.7824,-0.7746,-0.7746,-0.7746,-0.7767,-0.7862,-0.7889,-0.7913,-0.8014,-0.8038,-0.8038,-0.8038,-0.8038,-0.8038,-0.8038,-0.8038,-0.8011,-0.7909,-0.7702,-0.7509,-0.7274,-0.7107,-0.7083,-0.709,-0.7048,-0.7034,-0.7129,-0.7139,-0.7139,-0.7139,-0.7139,-0.7021,-0.6725,-0.6654,-0.6478,-0.6129,-0.601,-0.5928,-0.5881,-0.5823,-0.5652,-0.5376,-0.5484,-0.4066,-0.1191,0.0,0.0,0.0,0.0,0.0,0.0,0.0,0.0,0.0,0.0,0.0,0.0,0.0,0.0,0.0,0.0,0.0,0.0,0.0,0.0,0.0,0.0,0.0,-1.0356,-1.1747,-1.2748,-1.2392,-1.3654,-1.4815,-1.5499,-1.6392,-1.7009,-1.7236,-1.7259,-1.6868,-1.5994,-1.7037,-1.7684,-1.7777,-1.7777,-1.8326,-1.9497,-1.8411,-1.8411,-1.9579,-1.9579,-1.9579,-1.9579,-1.9497,-1.8864,-1.7777,-1.7777,-1.7037,-1.5832,-1.5832,-1.5825,-1.5832,-1.5832,-1.5737,-1.573,-1.573,-1.4949,-1.3488,-1.0872,-0.9118,-0.8038,-0.8041,-0.8038,-0.8038,-0.8038,-0.8038,-0.8038,-0.8038,-0.8038,-0.8038,-0.8038,-0.8038,-0.8038,-0.8038,-0.8038,-0.8038,-0.8038,-0.8038,-0.8038,-0.8038,-0.7919,-0.7726,-0.7434,-0.7377,-0.7319,-0.717,-0.7143,0.0,-0.7139,-0.7139,-0.7139,-0.7139,-0.7139,-0.7021,-0.6732,-0.6566,-0.6413,-0.6264,-0.5969,-0.5867,-0.6017,-0.5606,-0.5446,-0.5449,-0.5616,-0.5023,-0.3673,0.0,0.0,0.0,0.0,0.0,0.0,0.0,0.0,0.0,0.0,0.0,0.0,0.0,0.0,0.0,0.0,0.0,0.0,0.0,0.0,0.0,0.0,-1.4006,-1.2996,-1.3857,-1.4381,-1.3655,-1.5268,-1.6566,-1.6725,-1.7974,-1.8781,-1.8878,-1.8886,-1.9109,-1.9745,-1.8495,-1.8503,-2.0215,-1.8588,-1.8326,-1.9497,-2.0034,-2.0486,-2.0845,-2.0845,-2.0845,-2.0755,-1.9943,-1.9314,-1.9047,-1.9047,-1.8319,-1.7225,-1.7225,-1.6669,-1.5832,-1.5832,-1.5242,-1.4459,-1.4459,-1.359,-1.2237,-1.0583,-0.9805,-0.9316,-0.8333,-0.8038,-0.8038,-0.8038,-0.8038,-0.8038,-0.8038,-0.8038,-0.8038,-0.8038,-0.8038,-0.8038,-0.8038,-0.8038,-0.8038,-0.8038,-0.8038,-0.8038,-0.8038,-0.8007,-0.7916,-0.7723,-0.7512,-0.7356,-0.7316,-0.721,0.0,-0.7139,-0.7139,-0.7139,-0.7139,-0.7139,-0.7065,-0.6881,-0.6725,-0.6481,-0.6115,-0.5908,-0.582,-0.5864,-0.5745,-0.5732,-0.5844,-0.5881,-0.5819,0.0,0.0,0.0,0.0,0.0,0.0,0.0,0.0,0.0,0.0,0.0,0.0,0.0,0.0,0.0,0.0,0.0,0.0,0.0,0.0,0.0,0.0,-1.5789,-1.6689,-1.6329,-1.6373,-1.6381,-1.6193,-1.7259,-1.8198,-1.8873,-1.9718,-2.0215,-2.0215,-2.0215,-2.0305,-2.0576,-1.967,-1.9852,-2.1293,-1.9943,-1.977,-2.1042,-2.1392,-2.1834,-2.2382,-2.255,-2.2634,-2.2535,-2.1726,-2.1019,0.0,-2.0382,-1.9588,-1.8411,-1.787,-1.7225,0.0,0.0,0.0,0.0,0.0,-1.3884,-1.2619,-1.1843,-1.0872,-0.9899,-0.9118,-0.8432,-0.8038,-0.8038,-0.8038,-0.8038,-0.8038,-0.8038,-0.8038,-0.8038,-0.8038,-0.8038,-0.8038,-0.8038,-0.8038,-0.8038,-0.8038,-0.8038,-0.8038,-0.8038,0.0,-0.7923,-0.8033,-0.8165,-0.8098,-0.7945,-0.7841,-0.7841,-0.7404,-0.7139,-0.7139,-0.7139,-0.7082,-0.6943,-0.679,0.0,0.0,0.0,-0.5966,-0.5898,-0.5895,0.0,0.0,0.0,0.0,0.0,0.0,0.0,0.0,-0.5263,-0.5384,0.0,0.0,0.0,0.0,0.0,0.0,0.0,0.0,0.0,0.0,0.0,0.0,0.0,0.0,0.0,0.0,-1.8443,-1.9114,-1.9807,-1.909,-1.8668,-1.9062,-1.9259,-1.9855,-2.1167,-2.1391,-2.148,-2.148,-2.148,-2.1025,-1.9943,0.0,0.0,0.0,0.0,-2.1919,-2.3213,-2.2535,-2.2831,-2.3867,-2.4238,-2.4414,-2.4404,-2.4033,-2.3305,-2.2254,-2.187,-2.0951,-1.9745,-1.8658,-1.7994,-1.7591,-1.6292,-1.5832,-1.5832,-1.5832,-1.5045,-1.407,-1.3974,0.0,0.0,-1.0293,-0.941,-0.8432,-0.8233,-0.8333,-0.8333,-0.8038,-0.8137,-0.8237,-0.8038,-0.8038,-0.8038,-0.8038,-0.8137,-0.8233,-0.8233,-0.8333,-0.8432,-0.8432,-0.8432,-0.8432,-0.8432,-0.8944,-0.9313,-0.9125,-0.9123,-0.9174,-0.9065,-0.8189,-0.7489,-0.7489,0.0,0.0,-0.73,-0.7228,-0.7044,-0.6864,-0.6534,-0.6251,-0.6112,-0.6139,-0.622,-0.6359,-0.6376,-0.6644,-0.7166,-0.7183,-0.7339,-0.7604,-0.7597,-0.7679,0.0,0.0,0.0,0.0,0.0,0.0,0.0,0.0,0.0,0.0,0.0,0.0,0.0,0.0,0.0,-1.8749,-1.9647,-2.0622,-2.1745,-2.174,-2.1001,-1.9297,-2.0191,-2.1034,-2.1284,-2.2217,-2.2765,-2.2765,-2.2765,-2.2677,-2.2413,-2.1667,-2.1756,-2.2677,-2.2187,-2.2453,-2.3662,-2.3799,-2.4011,-2.4297,0.0,0.0,-2.4414,-2.4336,-2.4195,-2.3909,-2.3823,-2.2934,-2.1532,-2.1257,-1.9777,-1.7591,-1.6292,-1.5832,-1.5832,-1.5832,-1.5635,-1.5248,-1.4268,-1.3584,-1.3006,-1.1848,-1.1361,-1.097,-0.9899,-1.0288,0.0,-0.8627,-0.8825,-0.941,-0.8233,-0.8038,-0.8038,-0.8038,-0.8821,-0.9608,-0.9608,-1.0386,-1.1165,-1.1165,-1.1165,-1.1165,-1.1165,-1.0386,-0.9596,-0.9317,-1.0035,-1.0553,-1.0289,-1.0091,-0.9918,-0.9918,-0.9918,-0.9904,-0.9866,-0.9747,-0.9225,-0.8168,-0.7129,-0.6603,-0.6573,-0.6797,-0.6939,-0.697,-0.7092,-0.7214,-0.7326,-0.7451,-0.76,-0.7763,-0.767,-0.7646,0.0,0.0,0.0,0.0,0.0,0.0,0.0,0.0,0.0,0.0,0.0,-1.6592,-1.7236,0.0,-1.958,-2.0449,-2.1123,-2.1768,-2.2422,-2.2695,-2.238,-2.1207,-2.1734,-2.2217,-2.2217,-2.2775,-2.3135,-2.3135,-2.3135,-2.3135,-2.3135,-2.278,-2.2815,-2.3467,-2.3324,-2.3452,-2.4102,-2.4531,-2.4746,-2.4746,-2.4971,-2.5078,-2.5068,-2.4844,-2.4746,-2.4727,-2.4512,-2.3919,-2.3148,-2.229,-2.0306,-1.7598,-1.7037,-1.6386,-1.5832,-1.5832,-1.5832,-1.573,-1.5045,-1.4459,-1.3776,-1.3102,-1.2431,-1.175,-1.117,-1.1361,-1.1653,-1.0288,-1.0386,-1.0779,-1.0096,-0.9998,-0.9998,-0.9998,-1.0485,-1.0974,-1.0974,-1.1463,-1.1945,-1.1945,-1.1945,-1.1945,-1.1945,-1.1849,-1.1692,-1.1376,-1.1695,-1.1872,-1.175,-1.1029,-1.0611,-1.0611,-1.0611,-1.0611,-1.0611,-1.0504,-1.0224,-0.9527,-0.8437,-0.7769,-0.7769,-0.7485,-0.7255,-0.7255,-0.7407,-0.7519,-0.759,-0.7668,-0.778,-0.7923,-0.7851,-0.7858,0.0,0.0,0.0,0.0,0.0,0.0,0.0,0.0,-1.7032,-1.6981,-1.8225,-1.9384,-1.9605,-2.0665,-2.1688,-2.2267,-2.2768,-2.3102,-2.2948,-2.3256,-2.3474,-2.3474,-2.3212,-2.3135,-2.3135,-2.3135,-2.3135,-2.3135,-2.3135,-2.3135,-2.3135,-2.3555,-2.3789,-2.3789,-2.4277,-2.4541,-2.4541,-2.498,-2.5195,-2.5205,-2.5566,-2.5742,-2.5723,-2.5361,-2.5195,-2.5176,-2.4736,-2.4492,-2.4293,-2.2934,-2.0767,-1.8411,-1.8411,-1.749,-1.6109,-1.592,-1.5832,-1.5832,-1.5832,-1.5146,-1.4262,-1.4262,-1.3494,-1.2624,-1.2334,-1.2431,-1.2528,-1.2042,-1.2042,-1.2237,-1.1945,-1.1945,-1.1945,-1.1945,-1.2139,-1.2334,-1.2334,-1.2528,-1.2624,-1.2624,-1.2624,-1.2624,-1.2624,-1.359,-1.4076,-1.3526,-1.332,-1.33,-1.3246,-1.2133,-1.137,-1.137,-1.1332,-1.1305,-1.1305,-1.1042,-1.095,-1.095,-0.996,-0.9292,-0.9292,-0.8317,-0.7788,-0.782,-0.7764,-0.7712,-0.7855,-0.7855,-0.7919,-0.8038,-0.8038,-0.8038,-1.4421,-1.5618,-1.6566,-1.7773,-1.8027,-1.8533,0.0,0.0,-2.0953,-2.0232,-2.2093,-2.3188,-2.1293,-2.3019,-2.4557,-2.404,-2.4811,-2.5229,-2.4661,-2.4586,-2.4617,-2.4617,-2.3714,-2.3135,-2.3135,-2.3135,-2.3135,-2.3135,-2.3135,-2.3135,-2.3135,-2.3555,-2.3789,-2.3789,-2.457,-2.5,-2.5,-2.5439,-2.5664,-2.5664,-2.5713,-2.5742,-2.5742,-2.5684,-2.5664,-2.5635,-2.5185,-2.4775,-2.4385,-2.3774,-2.2503,-2.0935,-2.0935,-1.9488,-1.7318,-1.6197,-1.5832,-1.5832,-1.5832,-1.573,-1.5635,-1.5635,-1.554,-1.5146,-1.3974,-1.4465,-1.4854,-1.2528,-1.2716,-1.3392,-1.2237,-1.1945,-1.1945,-1.1945,-1.2818,-1.3686,-1.3686,-1.4561,-1.5343,-1.5343,-1.5343,-1.5343,-1.5343,-1.554,-1.505,-1.3625,-1.4389,-1.5015,-1.4757,-1.4379,-1.4028,-1.4028,-1.3887,-1.3737,-1.3737,-1.2766,-1.2072,-1.2072,-1.1319,-1.082,-1.082,-0.9848,-0.9389,-0.9556,-0.8346,-0.7862,-0.8014,-0.8014,-0.8021,-0.8038,-0.8038,-0.8038,-1.7693,-1.8981,0.0,0.0,-2.208,-2.2702,-2.3578,-2.3697,-2.3593,-2.3307,-2.4304,-2.4948,-2.402,-2.5051,-2.5853,0.0,-2.5913,-2.6073,-2.5859,-2.5463,-2.5289,-2.5289,-2.4877,-2.4661,-2.5031,-2.5062,-2.4808,-2.4125,-2.4125,-2.38,-2.3135,-2.3789,-2.415,-2.415,-2.5,-2.5459,-2.5459,-2.5644,-2.5742,-2.5742,-2.5742,-2.5742,-2.5742,-2.5742,-2.5742,-2.5723,-2.5537,-2.5205,-2.4756,-2.4326,-2.3151,-2.1644,-2.1392,-1.9852,-1.7598,-1.7131,-1.648,-1.5832,-1.5832,-1.5832,-1.5832,-1.5832,-1.5832,-1.573,-1.5146,-1.5343,-1.5534,-1.4465,-1.4561,-1.4854,-1.4274,-1.4178,-1.4178,-1.4178,-1.4561,-1.5045,-1.5045,-1.5439,-1.5832,-1.5832,-1.5832,-1.5832,-1.5832,-1.5832,-1.5589,-1.4892,-1.5119,-1.5351,-1.5231,-1.4963,-1.4776,-1.4776,-1.4516,-1.4342,-1.4342,-1.3885,-1.362,-1.362,-1.2809,-1.2322,-1.2322,-1.1349,-1.0853,-1.0944,-1.0395,-0.982,-0.9118,-0.9118,-0.8726,-0.8038,-0.8038,-0.8038,-1.9543,0.0,0.0,-2.3854,-2.5146,-2.5965,-2.5709,-2.5865,-2.5934,-2.5449,-2.6039,-2.6403,-2.5633,-2.6303,0.0,-2.6736,-2.7002,-2.714,-2.6942,-2.6439,-2.6086,-2.6302,-2.62,-2.6394,-2.7337,-2.6894,-2.6141,-2.5294,-2.5294,-2.4861,-2.3817,-2.4456,-2.4914,-2.5033,-2.5789,-2.638,-2.6754,-2.638,-2.6197,-2.6197,-2.583,-2.5742,-2.5742,-2.5742,-2.5742,-2.5742,-2.5742,-2.542,-2.4863,-2.4551,-2.3534,-2.2288,-2.1974,-2.0486,-1.868,-1.868,-1.749,-1.5832,-1.5832,-1.5832,-1.5832,-1.5832,-1.5832,-1.5832,-1.5832,-1.5832,-1.5832,-1.5832,-1.5832,-1.5832,-1.5832,-1.5832,-1.5832,-1.5832,-1.5832,-1.5832,-1.5832,-1.5832,-1.5832,-1.5832,-1.5832,-1.5832,-1.5832,-1.5832,-1.5832,-1.5832,-1.5651,-1.5518,-1.5518,-1.5264,-1.5057,-1.497,-1.477,-1.4643,-1.4643,-1.4643,-1.4643,-1.4643,-1.409,-1.378,-1.378,-1.2808,-1.2268,-1.2268,-1.1666,-1.0877,-0.9998,-0.9608,-0.892,-0.8038,-0.8038,-0.8038,0.0,0.0,-2.4079,-2.4657,-2.6025,-2.7279,-2.7244,-2.8044,-2.8145,-2.6007,-2.7311,-2.7971,-2.5328,-2.6574,-2.7854,-2.7329,-2.8142,-2.8657,-2.8104,-2.7565,-2.7423,-2.7921,-2.7542,-2.7849,0.0,-2.7799,-2.6483,-2.6472,-2.6472,-2.61,-2.5371,-2.5764,-2.6323,-2.6854,-2.7243,-2.8132,-2.9315,-2.8132,-2.7494,-2.7494,-2.6294,-2.5742,-2.5742,-2.5742,-2.5742,-2.5742,-2.5742,-2.5244,-2.4434,-2.4424,-2.3826,-2.3067,-2.3047,-2.2306,-2.1203,-2.1203,-1.8924,-1.5832,-1.5832,-1.5832,-1.5832,-1.5832,-1.5832,-1.5832,-1.5832,-1.5832,-1.5832,-1.5832,-1.5832,-1.5832,-1.5832,-1.5832,-1.5832,-1.5832,-1.5832,-1.5832,-1.5832,-1.5832,-1.5832,-1.5832,-1.5832,-1.5832,-1.5832,-1.5832,-1.5832,-1.5832,-1.5818,-1.5812,-1.5812,-1.5565,-1.5277,-1.499,-1.4957,-1.495,-1.495,-1.495,-1.495,-1.495,-1.5224,-1.5292,-1.5292,-1.4401,-1.3861,-1.3861,-1.1356,-0.9998,-0.9998,-0.8726,-0.8038,-0.8038,-0.8038,-0.8038,0.0,0.0,-2.6373,-2.7572,-2.8638,-2.9476,-2.9804,-2.9365,-2.8787,-2.8249,-2.7733,-2.7005,-2.6069,-2.6556,-2.7235,-2.7755,-2.845,-2.8962,-2.9201,-2.8716,-2.8433,-2.8617,-2.847,0.0,0.0,0.0,0.0,-2.7614,-2.7522,-2.7346,-2.6667,-2.7064,-2.7546,-2.814,-2.8613,-2.8958,-2.9407,-2.8226,-2.7589,-2.7589,-2.6294,-2.5742,-2.5742,-2.5742,-2.5742,-2.5742,-2.5742,-2.54,-2.4824,-2.4531,-2.4082,-2.3545,-2.3252,-2.2403,-2.1293,-2.1293,-2.0025,-1.8126,-1.7311,-1.648,-1.5832,-1.5832,-1.5832,-1.5832,-1.5832,-1.5832,-1.5832,-1.5832,-1.5832,-1.5832,-1.5832,-1.5832,-1.5832,-1.5832,-1.5832,-1.5832,-1.5832,-1.5832,-1.5832,-1.5832,-1.5832,-1.5832,-1.5832,-1.5832,-1.5832,-1.5832,-1.5832,-1.5832,-1.5832,-1.5745,-1.5645,-1.5545,-1.5364,-1.5251,-1.5251,-1.5251,-1.5251,-1.5251,-1.5524,-1.5685,-1.5685,-1.5386,-1.5146,-1.5146,-1.4268,-1.3397,-1.2614,-1.2129,-1.1453,-1.0583,-1.0583,-1.0583,0.0,-2.7547,-2.8484,-2.9982,-3.0774,-3.1173,-3.1334,-3.0428,-2.9386,-2.8985,-2.7353,-2.5946,-2.5677,-2.5291,-2.5536,-2.7243,-2.7821,-2.8448,-2.9628,-2.9289,-2.9001,-2.9214,-2.9051,-2.9001,0.0,0.0,0.0,-2.8767,-2.8688,-2.8509,-2.8115,-2.8362,-2.8854,-2.9642,-2.9873,-3.0226,-3.0687,-2.9498,-2.8402,-2.7589,-2.6294,-2.5742,-2.5742,-2.5742,-2.5742,-2.5723,-2.5566,-2.5244,-2.4805,-2.4365,-2.3935,-2.3525,-2.3252,-2.2589,-2.1933,-2.1933,-2.1221,-1.9869,-1.8234,-1.7131,-1.6386,-1.592,-1.5832,-1.5832,-1.5832,-1.5832,-1.5832,-1.5832,-1.5832,-1.5832,-1.5832,-1.5832,-1.5832,-1.5832,-1.5832,-1.5832,-1.5832,-1.5832,-1.5832,-1.5832,-1.5832,-1.5832,-1.5832,-1.5832,-1.5832,-1.5832,-1.5832,-1.5832,-1.5832,-1.5832,-1.5832,-1.5832,-1.5665,-1.5551,-1.5551,-1.5551,-1.5551,-1.5551,-1.5725,-1.5832,-1.5832,-1.5832,-1.5832,-1.5832,-1.5343,-1.4752,-1.3878,-1.3392,-1.2721,-1.1945,-1.1945,-1.1945,-2.7963,-2.9387,-3.0536,-3.1666,-3.2291,-3.247,-3.1792,-3.1007,-2.9937,-2.8112,-2.6243,-2.4734,0.0,0.0,-2.3261,-2.5992,-2.6546,-2.7377,-2.949,-2.9315,-2.9176,0.0,0.0,0.0,0.0,0.0,0.0,-2.9867,0.0,-2.9794,-2.969,-2.9689,-3.025,-3.1276,-3.1311,-3.1877,-3.3081,-3.1777,-2.9954,-2.7683,-2.638,-2.583,-2.5927,-2.583,-2.582,-2.5771,-2.5254,-2.4805,-2.4355,-2.3955,-2.3535,-2.3135,-2.3135,-2.3135,-2.3135,-2.3135,-2.2413,-2.106,-1.8688,-1.787,-1.7591,-1.6292,-1.592,-1.592,-1.5825,-1.5832,-1.5832,-1.5832,-1.5832,-1.5832,-1.5832,-1.5832,-1.5832,-1.5832,-1.5832,-1.5832,-1.5832,-1.5832,-1.5832,-1.5832,-1.5832,-1.5832,-1.5832,-1.5832,-1.5832,-1.5832,-1.5832,-1.5832,-1.5832,-1.5832,-1.5832,-1.5832,-1.5832,-1.5832,-1.5832,-1.5832,-1.5832,-1.5832,-1.5832,-1.5832,-1.5832,-1.5832,-1.5832,-1.5832,-1.4657,-1.3974,-1.3974,-1.2721,-1.2139,-1.2139,-1.2139,-1.2139,-3.0568,-3.1854,-3.2591,-3.3243,-3.3214,-3.2777,-3.2122,-3.0183,-2.8181,-2.7074,-2.4856,-2.2788,-2.1681,0.0,0.0,-2.4985,-2.6615,0.0,-2.9591,-2.9666,0.0,0.0,0.0,-2.9792,-3.0357,-3.0407,0.0,0.0,-3.062,-3.0523,-3.0927,-3.1348,-3.1881,-3.2587,-3.2612,-3.2797,-3.3081,-3.0956,-2.959,-2.8958,-2.7673,-2.7579,-2.8402,-2.7494,-2.694,-2.6516,-2.558,-2.4639,-2.3945,-2.3838,-2.3535,-2.3135,-2.3135,-2.3135,-2.3135,-2.3135,-2.2872,-2.2413,-2.0944,-1.9761,-1.8864,-1.7584,-1.7225,-1.7037,-1.6109,-1.5832,-1.5832,-1.5832,-1.5832,-1.5832,-1.5832,-1.5832,-1.5832,-1.5832,-1.5832,-1.5832,-1.5832,-1.5832,-1.5832,-1.5832,-1.5832,-1.5832,-1.5832,-1.5832,-1.5832,-1.5832,-1.5832,-1.5832,-1.5832,-1.5832,-1.5832,-1.5832,-1.5832,-1.5832,-1.5832,-1.5832,-1.5832,-1.5832,-1.5832,-1.5832,-1.5832,-1.5832,-1.5832,-1.5832,-1.5439,-1.5343,-1.5337,-1.4956,-1.4854,-1.4854,-1.4854,-1.4854,-3.2635,-3.3794,-3.4303,-3.4589,-3.4208,-3.3343,-3.1743,-2.9694,-2.7596,-2.5631,-2.3388,0.0,-2.0776,0.0,0.0,0.0,0.0,0.0,-2.9189,-2.9628,-2.9792,0.0,-3.0005,0.0,-3.0583,-3.0821,-3.1085,0.0,-3.1122,-3.1185,-3.1725,-3.2051,-3.2478,-3.3056,-3.3081,-3.3081,-3.3081,-3.1134,-3.0226,-3.0226,-2.8947,-2.8773,-2.9315,-2.8132,-2.7337,-2.6783,0.0,-2.4404,-2.3769,-2.3584,-2.3359,-2.3135,-2.3135,-2.3135,-2.3135,-2.3135,-2.3135,-2.296,-2.2306,-2.1667,-2.0764,-1.9047,-1.8503,-1.8319,-1.7669,-1.739,-1.739,-1.739,-1.739,-1.739,-1.739,-1.703,-1.6669,-1.6669,-1.6204,-1.5832,-1.5832,-1.5832,-1.5832,-1.5832,-1.5832,-1.5832,-1.5832,-1.5832,-1.5832,-1.5832,-1.5832,-1.5832,-1.5832,-1.5832,-1.5832,-1.5832,-1.5832,-1.5832,-1.5832,-1.5832,-1.5832,-1.5832,-1.5832,-1.5832,-1.5832,-1.5832,-1.5832,-1.5832,-1.5832,-1.5832,-1.5832,-1.5832,-1.5832,-1.5832,-1.5832,-1.5832,-3.4271,-3.5055,-3.5489,-3.5385,-3.4786,-3.3514,-3.0851,-2.919,-2.7275,-2.4014,0.0,-2.0787,-2.0493,0.0,-2.0762,-2.3345,0.0,-2.6289,-2.8599,-2.9365,-2.9704,-2.9779,-3.0281,-3.0645,-3.0708,-3.1185,-3.1537,-3.1612,-3.1612,-3.1788,-3.219,-3.229,-3.2554,-3.3056,-3.3081,-3.3081,-3.3081,-3.1865,-3.1311,-3.1412,-3.0226,-2.9772,-2.9863,-2.844,-2.7511,-2.6954,-2.5147,0.0,-2.3672,-2.3291,-2.3135,-2.3135,-2.3135,-2.3135,-2.3135,-2.3135,-2.3135,-2.3135,-2.3135,-2.3135,-2.2775,-2.0494,-1.9761,-1.9679,-1.9588,-1.9497,-1.9497,-1.9497,-1.9497,-1.9497,-1.9497,-1.8596,-1.7692,-1.7692,-1.6763,-1.5832,-1.5832,-1.5832,-1.5832,-1.5832,-1.5832,-1.5832,-1.5832,-1.5832,-1.5832,-1.5832,-1.5832,-1.5832,-1.5832,-1.5832,-1.5832,-1.5832,-1.5832,-1.5832,-1.5832,-1.5832,-1.5832,-1.5832,-1.5832,-1.5832,-1.5832,-1.5832,-1.5832,-1.5832,-1.5832,-1.5832,-1.5832,-1.5832,-1.5832,-1.5832,-1.5832,-1.5832,-3.4931,-3.5415,-3.537,-3.4801,-3.3739,-3.2168,-2.9535,-2.747,0.0,0.0,0.0,-2.041,-1.9402,-1.9878,0.0,-2.2936,0.0,0.0,0.0,0.0,-2.9252,0.0,0.0,0.0,0.0,0.0,0.0,0.0,0.0,-3.2616,-3.2227,-3.2667,-3.2968,-3.3081,-3.3081,-3.3081,-3.3081,-3.1865,-3.1689,-3.2797,-3.15,-3.1412,-3.2413,-2.9811,-2.8366,-2.7778,-2.5035,0.0,-2.3242,-2.3164,-2.3135,-2.3135,-2.3135,-2.3135,-2.3135,-2.3135,-2.3135,-2.3135,-2.3135,-2.3135,-2.2862,-2.148,-2.1025,-2.0845,-1.9761,-1.9497,-1.9497,-1.9497,-1.9497,-1.9497,-1.9497,-1.8596,-1.7692,-1.7692,-1.6763,-1.5832,-1.5832,-1.5832,-1.5832,-1.5832,-1.5832,-1.5832,-1.5832,-1.5832,-1.5832,-1.5832,-1.5832,-1.5832,-1.5832,-1.5832,-1.5832,-1.5832,-1.5832,-1.5832,-1.5832,-1.5832,-1.5832,-1.5832,-1.5832,-1.5832,-1.5832,-1.5832,-1.5832,-1.5832,-1.5832,-1.5832,-1.5832,-1.5832,-1.5832,-1.5832,-1.5832,-1.5832,-3.4786,-3.5235,-3.534,-3.4651,-3.323,-3.1225,-2.8233,0.0,0.0,0.0,0.0,-1.9916,-1.9064,0.0,0.0,0.0,0.0,0.0,0.0,0.0,0.0,0.0,0.0,0.0,0.0,0.0,0.0,0.0,0.0,-3.2955,-3.2679,-3.293,-3.3081,-3.3081,-3.3081,-3.3081,-3.3081,-3.2513,-3.2513,-3.3081,-3.2513,-3.2364,-3.2531,-2.9957,-2.8363,-2.7547,-2.491,0.0,-2.3135,-2.3135,-2.3135,-2.3135,-2.3135,-2.3135,-2.3135,-2.3135,-2.3135,-2.3135,-2.3135,-2.3135,-2.296,-2.2403,-2.2217,-2.2129,-2.1587,-2.1409,-2.1409,-2.1409,-2.1409,-2.1409,-2.1409,-2.0494,-1.9579,-1.9579,-1.8126,-1.6943,-1.7576,-1.6749,-1.6015,-1.6669,-1.6292,-1.5832,-1.5832,-1.5832,-1.5832,-1.5832,-1.5832,-1.5832,-1.5832,-1.5832,-1.5832,-1.5832,-1.5832,-1.5832,-1.5832,-1.5832,-1.5832,-1.5832,-1.5832,-1.5832,-1.5832,-1.5832,-1.5832,-1.5832,-1.5832,-1.5832,-1.5832,-1.5832,-1.5832,-1.5832,-1.5832,-1.5832,-3.4397,-3.4981,-3.531,-3.4472,-3.2781,-3.0447,-2.7126,-2.4837,0.0,0.0,-1.969,-1.953,-1.9006,0.0,0.0,0.0,0.0,0.0,0.0,0.0,0.0,0.0,0.0,0.0,0.0,0.0,0.0,0.0,0.0,0.0,-3.288,-3.278,-3.2717,-3.2717,-3.2717,-3.2717,-3.2717,-3.2717,-3.2717,-3.2717,-3.2717,-3.2478,-3.1943,-2.982,-2.8373,-2.7538,-2.5309,0.0,0.0,-2.3464,-2.3299,-2.3135,-2.3135,-2.3135,-2.3135,-2.3135,-2.3135,-2.3135,-2.3135,-2.3135,-2.3135,-2.3135,-2.3135,-2.3135,-2.3135,-2.3135,-2.3135,-2.3135,-2.3135,-2.3135,-2.3135,-2.2217,-2.1203,-2.1025,-1.9497,-1.8326,-1.9314,-1.794,-1.6936,-1.7863,-1.7311,-1.656,-1.656,-1.656,-1.6473,-1.6292,-1.6204,-1.6109,-1.5832,-1.5832,-1.5832,-1.5832,-1.5832,-1.5832,-1.5832,-1.5832,-1.5832,-1.5832,-1.5832,-1.5832,-1.5832,-1.5832,-1.5832,-1.5832,-1.5832,-1.5832,-1.5832,-1.5832,-1.5832,-1.5832,-1.5832,-1.5832,-3.4158,-3.4981,-3.519,-3.3903,-3.2078,-2.9744,-2.6452,0.0,0.0,-2.0109,-1.969,-1.953,-1.9006,-1.8556,0.0,0.0,0.0,0.0,0.0,0.0,0.0,0.0,0.0,0.0,0.0,0.0,0.0,0.0,0.0,0.0,-3.2265,-3.1813,-3.1549,-3.1549,-3.1549,-3.1549,-3.1549,-3.1549,-3.1549,-3.1549,-3.1549,-3.1512,-3.1449,-2.9663,-2.8881,-2.868,-2.6979,0.0,0.0,-2.4617,-2.4049,-2.3135,-2.3135,-2.3135,-2.3135,-2.3135,-2.3135,-2.3135,-2.3135,-2.3135,-2.3135,-2.3135,-2.3135,-2.3135,-2.3135,-2.3135,-2.3135,-2.3135,-2.3135,-2.3135,-2.3135,-2.2217,-2.1025,-1.9943,-1.9497,-1.9405,-1.9497,-1.9306,-1.9214,-1.9314,-1.9222,-1.9131,-1.9131,-1.9131,-1.8764,-1.7684,-1.7505,-1.7131,-1.592,-1.5832,-1.5832,-1.5832,-1.5832,-1.5832,-1.5832,-1.5832,-1.5832,-1.5832,-1.5832,-1.5832,-1.5832,-1.5832,-1.5832,-1.5832,-1.5832,-1.5832,-1.5832,-1.5832,-1.5832,-1.5832,-1.5832,-1.5832,-3.2347,-3.3484,-3.4068,-3.314,-3.112,-2.8697,-2.6183,0.0,-2.162,-2.0019,-1.969,-1.953,-1.9006,-1.8727,-1.8745,0.0,-1.8975,-1.9726,0.0,0.0,0.0,0.0,0.0,0.0,0.0,0.0,0.0,0.0,0.0,0.0,-3.1235,-3.1336,-3.1386,-3.1386,-3.1386,-3.1386,-3.1386,-3.1386,-3.1386,-3.1386,-3.1386,-3.1223,-3.0829,-2.9479,-2.8702,-2.8312,-2.7056,0.0,0.0,-2.4787,-2.4125,-2.3135,-2.3135,-2.3135,-2.3135,-2.3135,-2.3135,-2.3135,-2.3135,-2.3135,-2.3135,-2.3135,-2.3135,-2.3135,-2.3135,-2.3135,-2.3135,-2.3135,-2.3135,-2.3135,-2.3135,-2.2765,-2.2217,-2.1765,-2.1123,-2.0755,-2.1498,-2.0494,-1.967,-2.0486,-2.0034,-1.9497,-1.9497,-1.9497,-1.9314,-1.8864,-1.8772,-1.8319,-1.7124,-1.6943,-1.6669,-1.5927,-1.5832,-1.5832,-1.5832,-1.5832,-1.5832,-1.5832,-1.5832,-1.5832,-1.5832,-1.5832,-1.5832,-1.5832,-1.5832,-1.5832,-1.5832,-1.5832,-1.5832,-1.5832,-1.5832,-1.5832,-3.0597,-3.1913,-3.2751,-3.2093,-3.0088,-2.7769,0.0,0.0,-2.1321,-1.9959,-1.969,-1.953,-1.9006,-1.8765,-1.8638,0.0,-1.7993,-1.8487,-2.1186,0.0,0.0,0.0,0.0,0.0,0.0,0.0,0.0,0.0,0.0,0.0,0.0,-3.0721,-3.0922,-3.0922,-3.0922,-3.0922,-3.0922,-3.0922,-3.0922,-3.0922,-3.0922,-3.0733,-3.0369,-2.9499,-2.8947,-2.8518,-2.7787,0.0,0.0,-2.5294,-2.4467,-2.3135,-2.3135,-2.3135,-2.3135,-2.3135,-2.3135,-2.3135,-2.3135,-2.3135,-2.3135,-2.3135,-2.3135,-2.3135,-2.3135,-2.3135,-2.3135,-2.3135,-2.3135,-2.3135,-2.3135,-2.3135,-2.3135,-2.3135,-2.2492,-2.2031,-2.295,-2.1765,-2.0854,-2.1667,-2.1132,-2.0584,-2.0584,-2.0584,-2.0404,-2.0124,-2.0034,-1.9497,-1.787,-1.7692,-1.7225,-1.592,-1.5832,-1.5832,-1.5832,-1.5832,-1.5832,-1.5832,-1.5832,-1.5832,-1.5832,-1.5832,-1.5832,-1.5832,-1.5832,-1.5832,-1.5832,-1.5832,-1.5832,-1.5832,-1.5832,-1.5832,-2.9235,-3.0552,-3.139,-3.0702,-2.9041,-2.7066,0.0,-2.3116,-2.1321,-1.9959,-1.969,-1.953,-1.9006,-1.8458,-1.7947,-1.7394,-1.7798,-1.8957,-2.1167,0.0,0.0,0.0,0.0,0.0,0.0,0.0,0.0,0.0,0.0,0.0,0.0,-2.9804,-2.9817,-2.9817,-2.9817,-2.9817,-2.9817,-2.9817,-2.9817,-2.9817,-2.9817,-2.9804,-2.9804,-2.9804,-2.9804,0.0,0.0,0.0,0.0,-2.6472,-2.5147,-2.3135,-2.3135,-2.3135,-2.3135,-2.3135,-2.3135,-2.3135,-2.3135,-2.3135,-2.3135,-2.3135,-2.3135,-2.3135,-2.3135,-2.3135,-2.3135,-2.3135,-2.3135,-2.3135,-2.3135,-2.3135,-2.3135,-2.3135,-2.3047,-2.3047,-2.3135,-2.3047,-2.3057,-2.3047,-2.3047,-2.3047,-2.3047,-2.3047,-2.2677,-2.148,-2.1293,-2.0395,-1.8056,-1.7692,-1.7225,-1.592,-1.5832,-1.5832,-1.5832,-1.5832,-1.5832,-1.5832,-1.5832,-1.5832,-1.5832,-1.5832,-1.5832,-1.5832,-1.5832,-1.5832,-1.5832,-1.5832,-1.5832,-1.5832,-1.5832,-1.5832,-2.5839,-2.6826,-2.744,-2.7215,-2.6004,-2.4582,-2.3535,-2.2113,-2.0767,-1.9869,-1.969,-1.9639,-1.9479,-1.9006,-1.884,-1.9473,-1.9423,0.0,0.0,0.0,0.0,0.0,0.0,0.0,0.0,0.0,0.0,0.0,0.0,0.0,0.0,-2.9792,-2.9792,-2.9792,-2.9792,-2.9792,-2.9792,-2.9792,-2.9792,-2.9792,-2.9792,-2.9792,-2.9792,-2.9792,-2.9792,0.0,0.0,0.0,0.0,-2.6483,-2.5147,-2.3135,-2.3135,-2.3135,-2.3135,-2.3135,-2.3135,-2.3135,-2.3135,-2.3135,-2.3135,-2.3135,-2.3135,-2.3135,-2.3135,-2.3135,-2.3135,-2.3135,-2.3135,-2.3135,-2.3135,-2.3135,-2.3135,-2.3135,-2.3135,-2.3135,-2.3135,-2.3135,-2.3135,-2.3135,-2.3135,-2.3135,-2.3135,-2.3135,-2.296,-2.2589,-2.1845,-2.0755,-1.9131,-1.8234,-1.7225,-1.592,-1.5832,-1.5832,-1.5832,-1.5832,-1.5832,-1.5832,-1.5832,-1.5832,-1.5832,-1.5832,-1.5832,-1.5832,-1.5832,-1.5832,-1.5832,-1.5832,-1.5832,-1.5832,-1.5832,-1.5832,0.0,-2.4178,-2.4852,-2.4852,-2.4044,-2.3086,-2.2458,-2.1485,-2.0513,-1.9824,-1.969,-1.969,-1.969,-1.9095,-1.8838,-1.9539,0.0,0.0,0.0,0.0,0.0,0.0,0.0,0.0,0.0,0.0,0.0,0.0,0.0,0.0,0.0,-2.9792,-2.9792,-2.9792,-2.9792,-2.9792,-2.9792,-2.9792,-2.9792,-2.9792,-2.9792,-2.9792,-2.9792,-2.9792,-2.9792,0.0,0.0,0.0,0.0,-2.6483,-2.5147,-2.3135,-2.3135,-2.3135,-2.3135,-2.3135,-2.3135,-2.3135,-2.3135,-2.3135,-2.3135,-2.3135,-2.3135,-2.3135,-2.3135,-2.3135,-2.3135,-2.3135,-2.3135,-2.3135,-2.3135,-2.3135,-2.3135,-2.3135,-2.3135,-2.3135,-2.3135,-2.3135,-2.3135,-2.3135,-2.3135,-2.3135,-2.3135,-2.3135,-2.3135,-2.3135,-2.2031,-2.0845,-1.967,-1.8411,-1.7225,-1.592,-1.5832,-1.5832,-1.5832,-1.5832,-1.5832,-1.5832,-1.5832,-1.5832,-1.5832,-1.5832,-1.5832,-1.5832,-1.5832,-1.5832,-1.5832,-1.5832,-1.5832,-1.5832,-1.5832,-1.5832,0.0,-2.2233,-2.3176,-2.3176,-2.2757,-2.2173,-2.162,-2.1006,0.0,-1.9809,-1.969,-1.9705,-1.9773,-1.8874,-1.8228,-1.837,0.0,0.0,0.0,0.0,0.0,0.0,0.0,0.0,0.0,0.0,0.0,0.0,0.0,0.0,0.0,-2.9792,-2.9792,-2.9792,-2.9792,-2.9792,-2.9792,-2.9792,-2.9792,-2.9792,-2.9792,-2.9792,-2.9792,-2.9792,-2.9792,0.0,0.0,0.0,0.0,-2.6637,-2.5305,-2.3299,-2.3299,-2.3299,-2.3299,-2.3299,-2.3309,-2.3222,-2.3222,-2.3135,-2.3135,-2.3135,-2.3135,-2.3135,-2.3135,-2.3135,-2.3135,-2.3135,-2.3135,-2.3135,-2.3135,-2.3135,-2.3135,-2.3135,-2.3135,-2.3135,-2.3135,-2.3135,-2.3135,-2.3135,-2.3135,-2.3135,-2.3135,-2.3135,-2.3135,-2.3135,-2.2031,-2.0935,-1.9761,-1.8588,-1.7404,-1.6197,-1.6103,-1.6015,-1.592,-1.5825,-1.5832,-1.5832,-1.5832,-1.5832,-1.5832,-1.5832,-1.5832,-1.5832,-1.5832,-1.5832,-1.5832,-1.5832,-1.5832,-1.5832,-1.5832,-1.5832,-1.7697,0.0,-1.9106,-1.9106,-1.9001,-1.8986,0.0,-1.9286,-1.9271,0.0,0.0,-1.9842,-2.0309,-1.9477,-1.9265,0.0,0.0,0.0,0.0,0.0,0.0,0.0,0.0,0.0,0.0,0.0,0.0,0.0,0.0,0.0,0.0,-2.9792,-2.9792,-2.9792,-2.9792,-2.9792,-2.9792,-2.9792,-2.9792,-2.9792,-2.9792,-2.9792,-2.9792,-2.9792,-2.9792,0.0,0.0,0.0,-2.7683,-2.7683,-2.6953,-2.5724,-2.5724,-2.5724,-2.5724,-2.5724,-2.5136,-2.4372,-2.4372,-2.379,-2.3135,-2.3135,-2.3135,-2.3135,-2.3135,-2.3135,-2.3135,-2.3135,-2.3135,-2.3135,-2.3135,-2.3135,-2.3135,-2.3135,-2.3135,-2.3135,-2.3135,-2.3135,-2.3135,-2.3135,-2.3135,-2.3135,-2.3135,-2.3135,-2.3135,-2.3135,-2.2031,-2.1203,-2.0935,-1.9852,-1.8948,-1.8672,-1.8672,-1.8218,-1.7318,-1.6386,-1.5832,-1.5832,-1.5832,-1.5832,-1.5832,-1.5832,-1.5832,-1.5832,-1.5832,-1.5832,-1.5832,-1.5832,-1.5832,-1.5832,-1.5832,-1.5832,-1.6293,-1.743,-1.8627,-1.8627,-1.8867,-1.9181,-1.954,0.0,0.0,0.0,0.0,0.0,-2.0143,0.0,0.0,0.0,0.0,0.0,0.0,0.0,0.0,0.0,0.0,0.0,0.0,0.0,0.0,0.0,0.0,0.0,0.0,-2.9792,-2.9792,-2.9792,-2.9792,-2.9792,-2.9792,-2.9792,-2.9792,-2.9792,-2.9792,-2.9792,-2.9792,-2.9792,-2.9792,0.0,0.0,0.0,-2.8096,-2.8096,-2.7441,-2.6483,-2.6483,-2.6483,-2.6483,-2.6483,-2.5808,-2.4787,-2.4787,-2.4049,-2.3135,-2.3135,-2.3135,-2.3135,-2.3135,-2.3135,-2.3135,-2.3135,-2.3135,-2.3135,-2.3135,-2.3135,-2.3135,-2.3135,-2.3135,-2.3135,-2.3135,-2.3135,-2.3135,-2.3135,-2.3135,-2.3135,-2.3135,-2.3135,-2.3135,-2.3135,-2.2031,-2.1293,-2.1293,-2.0215,-1.9497,-1.9497,-1.9497,-1.9222,-1.8596,-1.7848,-1.7023,-1.5825,-1.5832,-1.5832,-1.5832,-1.5832,-1.5832,-1.5832,-1.5832,-1.5832,-1.5832,-1.5832,-1.5832,-1.5832,-1.5832,-1.5905,-1.6038,-1.7942,-1.975,-1.9331,-1.9824,-2.0408,-2.0408,0.0,0.0,0.0,0.0,0.0,0.0,0.0,0.0,0.0,0.0,0.0,0.0,0.0,0.0,0.0,0.0,0.0,0.0,0.0,0.0,0.0,0.0,0.0,-2.9792,-2.9792,-2.9792,-2.9792,-2.9792,-2.9792,-2.9792,-2.9792,-2.9792,-2.9792,-2.9792,-2.9792,-2.9792,-2.9792,-2.9792,-2.9792,0.0,0.0,-2.8347,-2.8347,-2.7855,-2.6976,-2.6976,-2.6976,-2.6976,-2.6976,-2.6213,-2.5041,-2.4617,-2.3877,-2.3135,-2.3135,-2.3135,-2.3135,-2.3135,-2.3135,-2.3135,-2.3135,-2.3135,-2.3135,-2.3135,-2.3135,-2.3135,-2.3135,-2.3135,-2.3135,-2.3135,-2.3135,-2.3135,-2.3135,-2.3135,-2.3135,-2.3135,-2.3135,-2.3135,-2.3135,-2.2217,-2.1569,-2.1569,-2.0666,-2.0042,-2.0042,-2.0042,-1.9943,-1.9761,-1.9761,-1.8756,-1.6292,-1.6109,-1.6015,-1.5832,-1.5832,-1.5832,-1.5832,-1.5832,-1.5832,-1.5832,-1.5832,-1.5832,-1.5832,-1.5832,-1.5985,-1.7131,-1.8957,-2.0019,-1.7727,-1.8071,-1.9016,-1.9016,0.0,0.0,0.0,0.0,0.0,0.0,0.0,0.0,0.0,0.0,0.0,0.0,0.0,0.0,0.0,0.0,0.0,0.0,0.0,0.0,0.0,0.0,0.0,-2.9792,-2.9792,-2.9792,-2.9792,-2.9792,-2.9792,-2.9792,-2.9792,-2.9792,-2.9792,-2.9792,-2.9792,-2.9792,-2.9792,-2.9792,-2.9792,0.0,-2.9702,-2.9534,-2.9534,-2.9456,-2.9287,-2.9287,-2.9287,-2.9287,-2.9287,-2.7971,-2.5975,-2.4049,-2.3222,-2.3135,-2.3135,-2.3135,-2.3135,-2.3135,-2.3135,-2.3135,-2.3135,-2.3135,-2.3135,-2.3135,-2.3135,-2.3135,-2.3135,-2.3135,-2.3135,-2.3135,-2.3135,-2.3135,-2.3135,-2.3135,-2.3135,-2.3135,-2.3135,-2.3135,-2.3135,-2.295,-2.2862,-2.2862,-2.2677,-2.2589,-2.2589,-2.2589,-2.2129,-2.1114,-2.1025,-2.0034,-1.7591,-1.7412,-1.6943,-1.5825,-1.5832,-1.5832,-1.5832,-1.5832,-1.5832,-1.5832,-1.5832,-1.5832,-1.5832,-1.5832,-1.5985,-1.6503,-1.8119,-1.942,-1.8553,-2.0139,-2.1814,-2.144,0.0,0.0,0.0,0.0,0.0,0.0,0.0,0.0,0.0,0.0,0.0,0.0,0.0,0.0,0.0,0.0,0.0,0.0,0.0,0.0,0.0,0.0,0.0,-2.9792,-2.9792,-2.9792,-2.9792,-2.9792,-2.9792,-2.9792,-2.9792,-2.9792,-2.9792,-2.9792,-2.9792,-2.9792,-2.9792,-2.9792,-2.9792,0.0,-2.9792,-2.9792,-2.9792,-2.9792,-2.9792,-2.9792,-2.9792,-2.9624,-2.8462,-2.7383,-2.6141,-2.3897,-2.3135,-2.3135,-2.3135,-2.3135,-2.3135,-2.3135,-2.3135,-2.3135,-2.3135,-2.3135,-2.3135,-2.3135,-2.3135,-2.3135,-2.3135,-2.3135,-2.3135,-2.3135,-2.3135,-2.3135,-2.3135,-2.3135,-2.3135,-2.3135,-2.3135,-2.3135,-2.3135,-2.3135,-2.3135,-2.3135,-2.3135,-2.3135,-2.3135,-2.3135,-2.2862,-2.2306,-2.2306,-2.0953,-1.787,-1.7037,-1.6386,-1.5825,-1.5832,-1.5832,-1.5832,-1.5832,-1.5832,-1.5832,-1.5832,-1.5832,-1.5832,-1.5832,-1.5985,-1.6144,-1.755,-1.9091,-1.9765,0.0,-2.3686,-2.3819,0.0,0.0,0.0,0.0,0.0,0.0,0.0,0.0,0.0,0.0,0.0,0.0,0.0,0.0,0.0,0.0,0.0,0.0,0.0,0.0,0.0,0.0,0.0,-2.9792,-2.9792,-2.9792,-2.9792,-2.9792,-2.9792,-2.9792,-2.9792,-2.9792,-2.9792,-2.9792,-2.9792,-2.9792,-2.9792,-2.9792,-2.9792,-2.9792,-2.9792,-2.9792,-2.9792,-2.9792,-2.9792,-2.9792,-2.9792,-2.9546,-2.7626,-2.6719,-2.6224,-2.4221,-2.3299,-2.3135,-2.3135,-2.3135,-2.3135,-2.3135,-2.3135,-2.3135,-2.3135,-2.3135,-2.3135,-2.3135,-2.3135,-2.3135,-2.3135,-2.3135,-2.3135,-2.3135,-2.3135,-2.3135,-2.3135,-2.3135,-2.3135,-2.3135,-2.3135,-2.3135,-2.3135,-2.3135,-2.3135,-2.3135,-2.3135,-2.3135,-2.3135,-2.3135,-2.3135,-2.3135,-2.2862,-2.1498,-1.868,-1.6842,-1.5832,-1.5832,-1.5832,-1.5832,-1.5832,-1.5832,-1.5832,-1.5832,-1.5832,-1.5832,-1.5832,-1.5832,-1.5985,-1.7251,-1.8568,-1.9779,-2.0468,0.0,0.0,-2.397,0.0,0.0,0.0,0.0,0.0,0.0,0.0,0.0,0.0,0.0,0.0,0.0,0.0,0.0,0.0,0.0,0.0,0.0,0.0,0.0,0.0,0.0,0.0,-2.9792,-2.9792,-2.9792,-2.9792,-2.9792,-2.9792,-2.9792,-2.9792,-2.9792,-2.9792,-2.9792,-2.9792,-2.9792,-2.9792,-2.9792,-2.9792,-2.9792,-2.9792,-2.9792,-2.9792,-2.9792,-2.9792,-2.9792,-2.9792,-2.9624,-2.8426,-2.736,-2.6307,-2.5126,-2.3963,-2.3135,-2.3135,-2.3135,-2.3135,-2.3135,-2.3135,-2.3135,-2.3135,-2.3135,-2.3135,-2.3135,-2.3135,-2.3135,-2.3135,-2.3135,-2.3135,-2.3135,-2.3135,-2.3135,-2.3135,-2.3135,-2.3135,-2.3135,-2.3135,-2.3135,-2.3135,-2.3135,-2.3135,-2.3135,-2.3135,-2.3135,-2.3135,-2.3135,-2.3135,-2.3135,-2.2031,-2.1302,-2.1025,-1.7747,-1.5832,-1.5832,-1.5832,-1.5832,-1.5832,-1.5832,-1.5832,-1.5832,-1.5832,-1.5832,-1.5832,-1.5832,-1.5985,-1.6383,-1.8059,-1.9854,-2.0543,0.0,0.0,0.0,0.0,0.0,0.0,0.0,0.0,0.0,0.0,0.0,0.0,0.0,0.0,0.0,0.0,0.0,0.0,0.0,0.0,0.0,0.0,0.0,0.0,0.0,0.0,0.0,-2.9792,-2.9792,-2.9792,-2.9792,-2.9792,-2.9792,-2.9792,-2.9792,-2.9792,-2.9792,-2.9792,-2.9792,-2.9792,-2.9792,-2.9792,-2.9792,-2.9792,-2.9792,-2.9792,-2.9792,-2.9792,-2.9792,-2.9792,-2.9624,-2.8518,-2.7844,-2.736,-2.6213,-2.5136,-2.4125,-2.4125,-2.3714,-2.3135,-2.3135,-2.3135,-2.3135,-2.3135,-2.3135,-2.3135,-2.3135,-2.3135,-2.3135,-2.3135,-2.3135,-2.3135,-2.3135,-2.3135,-2.3135,-2.3135,-2.3135,-2.3135,-2.3135,-2.3135,-2.3135,-2.3135,-2.3135,-2.3135,-2.3135,-2.3135,-2.3135,-2.3135,-2.3135,-2.3135,-2.3135,-2.2031,-2.1293,-2.1293,-1.9298,-1.8118,-1.8118,-1.8118,-1.8118,-1.8118,-1.8118,-1.8118,-1.8118,-1.8118,-1.7762,-1.6943,-1.6943,-1.6637,-1.6069,-1.77,-1.9585,0.0,0.0,0.0,0.0,0.0,0.0,0.0,0.0,0.0,0.0,0.0,0.0,0.0,0.0,0.0,0.0,0.0,0.0,0.0,0.0,0.0,0.0,0.0,0.0,0.0,0.0,0.0,0.0,-2.9792,-2.9792,-2.9792,-2.9792,-2.9792,-2.9792,-2.9792,-2.9792,-2.9792,-2.9792,-2.9792,-2.9792,-2.9792,-2.9792,-2.9792,-2.9792,-2.9792,-2.9792,-2.9792,-2.9792,-2.9792,-2.9792,-2.9792,-2.9702,-2.8937,-2.8426,-2.8016,-2.729,-2.6295,-2.5294,-2.4957,-2.4296,-2.3551,-2.3222,-2.3135,-2.3135,-2.3135,-2.3135,-2.3135,-2.3135,-2.3135,-2.3135,-2.3135,-2.3135,-2.3135,-2.3135,-2.3135,-2.3135,-2.3135,-2.3135,-2.3135,-2.3135,-2.3135,-2.3135,-2.3135,-2.3135,-2.3135,-2.3135,-2.3135,-2.3135,-2.3135,-2.3135,-2.3135,-2.3135,-2.2306,-2.1845,-2.1845,-2.1123,-2.0305,-1.9497,-1.9497,-1.9497,-1.9497,-1.9497,-1.9497,-1.9497,-1.9497,-1.9039,-1.8234,-1.787,-1.7225,-1.6712,-1.7682,-1.9061,0.0,0.0,0.0,0.0,0.0,0.0,0.0,0.0,0.0,0.0,0.0,0.0,0.0,0.0,0.0,0.0,0.0,0.0,0.0,0.0,0.0,0.0,0.0,0.0,0.0,0.0,0.0,0.0,-2.9792,-2.9792,-2.9792,-2.9792,-2.9792,-2.9792,-2.9792,-2.9792,-2.9792,-2.9792,-2.9792,-2.9792,-2.9792,-2.9792,-2.9792,-2.9792,-2.9792,-2.9792,-2.9792,-2.9792,-2.9792,-2.9792,-2.9792,-2.9792,-2.9792,-2.9106,-2.8096,-2.8096,-2.7452,-2.6307,-2.521,-2.4787,-2.4628,-2.3474,-2.3135,-2.3135,-2.3135,-2.3135,-2.3135,-2.3135,-2.3135,-2.3135,-2.3135,-2.3135,-2.3135,-2.3135,-2.3135,-2.3135,-2.3135,-2.3135,-2.3135,-2.3135,-2.3135,-2.3135,-2.3135,-2.3135,-2.3135,-2.3135,-2.3135,-2.3135,-2.3135,-2.3135,-2.3135,-2.3135,-2.3135,-2.3135,-2.3135,-2.3135,-2.2041,-1.9588,-1.9488,-1.9488,-1.9488,-1.9488,-1.9488,-1.9488,-1.9488,-1.9497,-1.9497,-1.8326,-1.7684,-1.6831,-1.8698,0.0,0.0,0.0,0.0,0.0,0.0,0.0,0.0,0.0,0.0,0.0,0.0,0.0,0.0,0.0,0.0,0.0,0.0,0.0,0.0,0.0,0.0,0.0,0.0,0.0,0.0,0.0,0.0,0.0,-2.9792,-2.9792,-2.9792,-2.9792,-2.9792,-2.9792,-2.9792,-2.9792,-2.9792,-2.9792,-2.9792,-2.9792,-2.9792,-2.9792,-2.9792,-2.9792,-2.9792,-2.9792,-2.9792,-2.9792,-2.9792,-2.9792,-2.9792,-2.9792,-2.9792,-2.9624,-2.9287,-2.9287,-2.853,-2.7452,-2.6378,-2.5462,-2.4628,-2.3474,-2.3135,-2.3135,-2.3135,-2.3135,-2.3135,-2.3135,-2.3135,-2.3135,-2.3135,-2.3135,-2.3135,-2.3135,-2.3135,-2.3135,-2.3135,-2.3135,-2.3135,-2.3135,-2.3135,-2.3135,-2.3135,-2.3135,-2.3135,-2.3135,-2.3135,-2.3135,-2.3135,-2.3135,-2.3135,-2.3135,-2.3135,-2.3135,-2.3135,-2.3135,-2.2775,-2.2041,-2.2041,-2.2041,-2.2041,-2.2041,-2.2041,-2.2041,-2.2041,-2.1587,-2.0755,-1.9497,-1.8503,-1.7772,0.0,0.0,0.0,0.0,0.0,0.0,0.0,0.0,0.0,0.0,0.0,0.0,0.0,0.0,0.0,0.0,0.0,0.0,0.0,0.0,0.0,0.0,0.0,0.0,0.0,0.0,0.0,0.0,0.0,0.0,-2.9666,-2.9792,-2.9792,-2.9792,-2.9792,-2.9792,-2.9792,-2.9792,-2.9792,-2.9792,-2.9792,-2.9792,-2.9792,-2.9792,-2.9792,-2.9792,-2.9792,-2.9792,-2.9792,-2.9792,-2.9792,-2.9792,-2.9792,-2.9792,-2.9792,-2.9792,-2.9792,-2.9792,-2.9028,-2.7924,-2.6883,-2.5714,-2.4628,-2.3474,-2.3135,-2.3135,-2.3135,-2.3135,-2.3135,-2.3135,-2.3135,-2.3135,-2.3135,-2.3135,-2.3135,-2.3135,-2.3135,-2.3135,-2.3135,-2.3135,-2.3135,-2.3135,-2.3135,-2.3135,-2.3135,-2.3135,-2.3135,-2.3135,-2.3135,-2.3135,-2.3135,-2.3135,-2.3135,-2.3135,-2.3135,-2.3135,-2.3135,-2.3135,-2.3135,-2.3135,-2.3135,-2.3135,-2.3135,-2.3135,-2.3135,-2.3135,-2.3135,-2.2775,-2.1943,-2.0305,-1.9131,0.0,0.0,0.0,0.0,0.0,0.0,0.0,0.0,0.0,0.0,0.0,0.0,0.0,0.0,0.0,0.0,0.0,0.0,0.0,0.0,0.0,0.0,0.0,0.0,0.0,0.0,0.0,0.0,0.0,0.0,0.0,-2.9402,-2.9716,-2.9716,-2.9767,-2.9792,-2.9792,-2.9792,-2.9792,-2.9792,-2.9792,-2.9792,-2.9792,-2.9792,-2.9792,-2.9792,-2.9792,-2.9792,-2.9792,-2.9792,-2.9792,-2.9792,-2.9792,-2.9792,-2.9792,-2.9792,-2.9792,-2.9792,-2.9792,-2.9106,-2.8096,-2.6964,-2.5964,-2.4872,-2.3714,-2.3387,-2.3387,-2.3299,-2.3212,-2.3222,-2.3135,-2.3135,-2.3135,-2.3135,-2.3135,-2.3135,-2.3135,-2.3135,-2.3135,-2.3135,-2.3135,-2.3135,-2.3135,-2.3135,-2.3135,-2.3135,-2.3135,-2.3135,-2.3135,-2.3135,-2.3135,-2.3135,-2.3135,-2.3135,-2.3135,-2.3135,-2.3135,-2.3135,-2.3135,-2.3135,-2.3135,-2.3135,-2.3135,-2.3135,-2.3135,-2.3135,-2.3135,-2.3135,-2.3135,-2.3047,-2.0764,-1.9588,0.0,-2.0647,0.0,0.0,0.0,0.0,0.0,0.0,0.0,0.0,0.0,0.0,0.0,0.0,0.0,0.0,0.0,0.0,0.0,0.0,0.0,0.0,0.0,0.0,0.0,0.0,0.0,0.0,0.0,0.0,-2.8285,-2.8812,-2.9114,-2.9114,-2.9553,-2.9792,-2.9792,-2.9792,-2.9792,0.0,-2.9792,-2.9792,-2.9792,-2.9792,-2.9792,-2.9792,-2.9792,-2.9792,-2.9792,-2.9792,-2.9792,-2.9792,-2.9792,-2.9792,-2.9792,-2.9792,-2.9792,-2.9792,-2.9792,-2.9624,-2.9275,-2.8108,-2.7602,-2.7186,-2.613,-2.5808,-2.5557,-2.4713,-2.4457,-2.4211,-2.3299,-2.3135,-2.3135,-2.3135,-2.3135,-2.3135,-2.3135,-2.3135,-2.3135,-2.3135,-2.3135,-2.3135,-2.3135,-2.3135,-2.3135,-2.3135,-2.3135,-2.3135,-2.3135,-2.3135,-2.3135,-2.3135,-2.3135,-2.3135,-2.3135,-2.3135,-2.3135,-2.3135,-2.3135,-2.3135,-2.3135,-2.3135,-2.3135,-2.3135,-2.3135,-2.3135,-2.3135,-2.3135,-2.3135,-2.3047,-2.1578,-2.0395,0.0,0.0,0.0,0.0,0.0,0.0,0.0,0.0,0.0,0.0,0.0,0.0,0.0,0.0,0.0,0.0,0.0,0.0,0.0,0.0,0.0,0.0,0.0,0.0,0.0,0.0,0.0,0.0,0.0,-2.7708,-2.7708,-2.8235,-2.8536,-2.8536,-2.9089,-2.9377,-2.9377,-2.9654,-2.9792,-2.9792,-2.9792,-2.9792,-2.9792,-2.9792,-2.9792,-2.9792,-2.9792,-2.9792,-2.9792,-2.9792,-2.9792,-2.9792,-2.9792,-2.9792,-2.9792,-2.9792,-2.9792,-2.9792,-2.9792,-2.9443,-2.8858,-2.8267,-2.7763,-2.7197,-2.6637,-2.6483,-2.6224,-2.5126,-2.4787,-2.4542,-2.3387,-2.3135,-2.3135,-2.3135,-2.3135,-2.3135,-2.3135,-2.3135,-2.3135,-2.3135,-2.3135,-2.3135,-2.3135,-2.3135,-2.3135,-2.3135,-2.3135,-2.3135,-2.3135,-2.3135,-2.3135,-2.3135,-2.3135,-2.3135,-2.3135,-2.3135,-2.3135,-2.3135,-2.3135,-2.3135,-2.3135,-2.3135,-2.3135,-2.3135,-2.3135,-2.3135,-2.3135,-2.3135,-2.3135,-2.3047,-2.1845,-2.0935,0.0,0.0,0.0,0.0,0.0,0.0,0.0,0.0,0.0,0.0,0.0,0.0,0.0,0.0,0.0,0.0,0.0,0.0,0.0,0.0,0.0,0.0,0.0,0.0,0.0,0.0,0.0,0.0,0.0,-2.7143,-2.7143,-2.7657,-2.7959,-2.7959,-2.8499,-2.8787,-2.8787,-2.9264,-2.9503,-2.9503,-2.9591,-2.9691,-2.9792,-2.9792,-2.9792,-2.9792,-2.9792,-2.9792,-2.9792,-2.9792,-2.9792,-2.9792,-2.9792,-2.9792,-2.9792,-2.9792,-2.9792,-2.9792,-2.9792,-2.9197,-2.8426,-2.8426,-2.7787,-2.7058,-2.7058,-2.7058,-2.6801,-2.5462,-2.5126,-2.4798,-2.3474,-2.3135,-2.3135,-2.3135,-2.3135,-2.3135,-2.3135,-2.3135,-2.3135,-2.3135,-2.3135,-2.3135,-2.3135,-2.3135,-2.3135,-2.3135,-2.3135,-2.3135,-2.3135,-2.3135,-2.3135,-2.3135,-2.3135,-2.3135,-2.3135,-2.3135,-2.3135,-2.3135,-2.3135,-2.3135,-2.3135,-2.3135,-2.3135,-2.3135,-2.3135,-2.3135,-2.3135,-2.3135,-2.3135,-2.3047,-2.212,-2.148,0.0,0.0,0.0,0.0,0.0,0.0,0.0,0.0,0.0,0.0,0.0,0.0,0.0,0.0,0.0,0.0,0.0,0.0,0.0,0.0,0.0,0.0,0.0,0.0,0.0,0.0,0.0,0.0,-2.6596,-2.6634,-2.6634,-2.7092,-2.7394,-2.7394,-2.7921,-2.821,-2.821,-2.8298,-2.8335,-2.8335,-2.8812,-2.9302,-2.9792,-2.9792,-2.9792,-2.9792,-2.9792,-2.9792,-2.9792,-2.9792,-2.9792,-2.9792,-2.9792,-2.9792,-2.9792,-2.9792,-2.9792,-2.9792,-2.9792,-2.9702,-2.9534,-2.9534,-2.9456,-2.9378,-2.9378,-2.9378,-2.8961,-2.6883,-2.6307,-2.5808,-2.3637,-2.3135,-2.3135,-2.3135,-2.3135,-2.3135,-2.3135,-2.3135,-2.3135,-2.3135,-2.3135,-2.3135,-2.3135,-2.3135,-2.3135,-2.3135,-2.3135,-2.3135,-2.3135,-2.3135,-2.3135,-2.3135,-2.3135,-2.3135,-2.3135,-2.3135,-2.3135,-2.3135,-2.3135,-2.3135,-2.3135,-2.3135,-2.3135,-2.3135,-2.3135,-2.3135,-2.3135,-2.3135,-2.3135,-2.3135,-2.295,-2.2306,0.0,0.0,0.0,0.0,0.0,0.0,0.0,0.0,0.0,0.0,0.0,0.0,0.0,0.0,0.0,0.0,0.0,0.0,0.0,0.0,0.0,0.0,0.0,0.0,0.0,0.0,0.0,0.0,-2.6533,-2.6533,-2.6533,-2.6691,-2.6816,-2.6816,-2.7356,-2.7645,-2.7645,-2.7946,-2.8109,-2.8109,-2.8348,-2.8599,-2.8863,-2.9164,-2.9478,-2.9792,-2.9792,-2.9792,-2.9792,-2.9792,-2.9792,-2.9792,-2.9792,-2.9792,-2.9792,-2.9792,-2.9792,-2.9792,-2.9792,-2.9792,-2.9792,-2.9792,-2.9792,-2.9792,-2.9792,-2.9792,-2.9456,-2.7867,-2.7371,-2.7035,-2.5389,-2.4553,-2.4049,-2.4049,-2.4049,-2.4049,-2.4049,-2.3551,-2.3135,-2.3135,-2.3135,-2.3135,-2.3135,-2.3135,-2.3135,-2.3135,-2.3135,-2.3135,-2.3135,-2.3135,-2.3135,-2.3135,-2.3135,-2.3135,-2.3135,-2.3135,-2.3135,-2.3135,-2.3135,-2.3135,-2.3135,-2.3135,-2.3135,-2.3135,-2.3135,-2.3135,-2.3135,-2.3135,-2.3135,-2.3135,-2.3135,-2.2862,0.0,0.0,0.0,0.0,0.0,0.0,0.0,0.0,0.0,0.0,0.0,0.0,0.0,0.0,0.0,0.0,0.0,0.0,0.0,0.0,0.0,0.0,0.0,0.0,0.0,0.0,0.0,0.0,-2.6533,-2.6533,-2.6533,-2.6533,-2.6533,-2.6533,-2.6866,-2.708,-2.708,-2.7482,-2.7758,-2.7896,-2.7896,-2.7971,-2.8122,-2.8536,-2.895,-2.9377,-2.9666,-2.9792,-2.9792,-2.9792,-2.9792,-2.9792,-2.9792,-2.9792,-2.9792,-2.9792,-2.9792,-2.9792,-2.9792,-2.9792,-2.9792,-2.9792,-2.9792,-2.9792,-2.9792,-2.9792,-2.9534,-2.8426,-2.8096,-2.7844,-2.6801,-2.5891,-2.521,-2.521,-2.521,-2.5126,-2.4872,-2.4125,-2.3474,-2.3135,-2.3135,-2.3135,-2.3135,-2.3135,-2.3135,-2.3135,-2.3135,-2.3135,-2.3135,-2.3135,-2.3135,-2.3135,-2.3135,-2.3135,-2.3135,-2.3135,-2.3135,-2.3135,-2.3135,-2.3135,-2.3135,-2.3135,-2.3135,-2.3135,-2.3135,-2.3135,-2.3135,-2.3135,-2.3135,-2.3135,-2.3135,-2.3135,0.0,0.0,0.0,0.0,0.0,0.0,0.0,0.0,0.0,0.0,0.0,0.0,0.0,0.0,0.0,0.0,0.0,0.0,0.0,0.0,0.0,0.0,0.0,0.0,0.0,0.0,0.0,0.0,-2.6533,-2.6533,-2.6533,-2.6533,-2.6533,-2.6533,-2.6559,-2.6571,-2.6571,-2.6596,-2.6804,-2.7318,-2.7318,-2.7595,-2.8109,-2.8134,-2.816,-2.8247,-2.9327,-2.9792,-2.9792,-2.9792,-2.9792,-2.9792,-2.9792,-2.9792,-2.9792,-2.9792,-2.9792,-2.9792,-2.9792,-2.9792,-2.9792,-2.9792,-2.9792,-2.9792,-2.9792,-2.9792,-2.9534,-2.8426,-2.8096,-2.7844,-2.6801,-2.6483,-2.6389,-2.6389,-2.6389,-2.6141,-2.5041,-2.4787,-2.4372,-2.3299,-2.3135,-2.3135,-2.3135,-2.3135,-2.3135,-2.3135,-2.3135,-2.3135,-2.3135,-2.3135,-2.3135,-2.3135,-2.3135,-2.3135,-2.3135,-2.3135,-2.3135,-2.3135,-2.3135,-2.3135,-2.3135,-2.3135,-2.3135,-2.3135,-2.3135,-2.3135,-2.3135,-2.3135,-2.3135,-2.3135,-2.3135,-2.3135,0.0,0.0,0.0,0.0,0.0,0.0,0.0,0.0,0.0,0.0,0.0,0.0,0.0,0.0,0.0,0.0,0.0,0.0,0.0,0.0,0.0,0.0,0.0,0.0,0.0,0.0,0.0,0.0,0.0,-2.6533,-2.6533,-2.6533,-2.6533,-2.6533,-2.6533,-2.6533,-2.6533,-2.6533,-2.6634,-2.6753,-2.6753,-2.6854,-2.7055,-2.7419,-2.7582,-2.762,-2.8373,-2.8913,-2.9264,-2.9641,-2.9792,-2.9792,-2.9792,-2.9792,-2.9792,-2.9792,-2.9792,-2.9792,-2.9792,-2.9792,-2.9792,-2.9792,-2.9792,-2.9792,-2.9792,-2.9792,-2.9702,-2.9287,-2.9197,-2.9106,-2.8712,-2.8039,-2.7522,-2.7522,-2.7522,-2.7441,-2.7023,-2.6367,-2.5808,-2.5389,-2.4723,-2.4211,-2.4211,-2.3551,-2.3135,-2.3135,-2.3135,-2.3135,-2.3135,-2.3135,-2.3135,-2.3135,-2.3135,-2.3135,-2.3135,-2.3135,-2.3135,-2.3135,-2.3135,-2.3135,-2.3135,-2.3135,-2.3135,-2.3135,-2.3135,-2.3135,-2.3135,-2.3135,-2.3135,-2.3135,-2.3135,-2.3135,0.0,0.0,0.0,0.0,0.0,0.0,0.0,0.0,0.0,0.0,0.0,0.0,0.0,0.0,0.0,0.0,0.0,0.0,0.0,0.0,0.0,0.0,0.0,0.0,0.0,0.0,0.0,0.0,0.0,0.0,-2.6521,-2.6533,-2.6533,-2.6533,-2.6533,-2.6533,-2.6533,-2.6533,-2.6533,-2.6533,-2.6533,-2.6533,-2.6546,-2.6841,-2.7005,-2.703,-2.7595,-2.8247,-2.895,-2.934,-2.9616,-2.9792,-2.9792,-2.9792,-2.9792,-2.9792,-2.9792,-2.9792,-2.9792,-2.9792,-2.9792,-2.9792,-2.9792,-2.9792,-2.9792,-2.9792,-2.9792,-2.9792,-2.9792,-2.9792,-2.9792,-2.9275,-2.8688,-2.8688,-2.8688,-2.8688,-2.8688,-2.7787,-2.6964,-2.6565,-2.5546,-2.4787,-2.4787,-2.3887,-2.3135,-2.3135,-2.3135,-2.3135,-2.3135,-2.3135,-2.3135,-2.3135,-2.3135,-2.3135,-2.3135,-2.3135,-2.3135,-2.3135,-2.3135,-2.3135,-2.3135,-2.3135,-2.3135,-2.3135,-2.3135,-2.3135,-2.3135,-2.3135,-2.3135,-2.3135,-2.3135,-2.3135,0.0,0.0,0.0,0.0,0.0,0.0,0.0,0.0,0.0,0.0,0.0,0.0,0.0,0.0,0.0,0.0,0.0,0.0,0.0,0.0,0.0,0.0,0.0,0.0,0.0,0.0,0.0,0.0,-2.5561,-2.5824,-2.6445,-2.6496,-2.6508,-2.6533,-2.6533,-2.6533,-2.6533,-2.6533,-2.6533,-2.6533,-2.6533,-2.6533,-2.6533,-2.6533,-2.6533,-2.6559,-2.703,-2.7871,-2.8888,-2.8913,-2.9264,-2.9767,-2.9779,-2.9792,-2.9792,-2.9792,-2.9792,-2.9792,-2.9792,-2.9792,-2.9792,-2.9792,-2.9792,-2.9792,-2.9792,-2.9792,-2.9792,-2.9792,-2.9792,-2.9792,-2.9792,-2.9792,-2.9792,-2.9792,-2.9792,-2.9792,-2.9792,-2.8937,-2.7855,-2.6801,-2.5714,-2.4872,-2.4872,-2.3877,-2.3135,-2.3144,-2.3135,-2.3135,-2.3135,-2.3135,-2.3135,-2.3135,-2.3135,-2.3135,-2.3135,-2.3135,-2.3135,-2.3135,-2.3135,-2.3135,-2.3135,-2.3135,-2.3135,-2.3135,-2.3135,-2.3135,-2.3135,-2.3135,-2.3135,-2.3135,-2.3135,-2.3135,-1.2801,0.0,0.0,0.0,0.0,0.0,0.0,0.0,0.0,0.0,0.0,0.0,0.0,0.0,0.0,0.0,0.0,0.0,0.0,0.0,0.0,0.0,0.0,0.0,0.0,0.0,0.0,0.0,-2.4808,-2.5109,-2.5272,-2.5636,-2.6025,-2.6508,-2.6533,-2.6533,-2.6533,-2.6533,-2.6533,-2.6533,-2.6533,-2.6533,-2.6533,-2.6533,-2.6533,-2.6533,-2.6697,-2.708,-2.7795,-2.8599,-2.9026,-2.9202,-2.9628,-2.9792,-2.9792,-2.9792,-2.9792,-2.9792,-2.9792,-2.9792,-2.9792,-2.9792,-2.9792,-2.9792,-2.9792,-2.9792,-2.9792,-2.9792,-2.9792,-2.9792,-2.9792,-2.9792,-2.9792,-2.9792,-2.9792,-2.9792,-2.9792,-2.9534,-2.9197,-2.8961,-2.7947,-2.6942,-2.613,-2.5041,-2.4049,-2.3222,-2.3135,-2.3135,-2.3135,-2.3135,-2.3135,-2.3135,-2.3135,-2.3135,-2.3135,-2.3135,-2.3135,-2.3135,-2.3135,-2.3135,-2.3135,-2.3135,-2.3135,-2.3135,-2.3135,-2.3135,-2.3135,-2.3135,-2.3135,-2.3135,-2.3135,-2.3135,0.0,0.0,0.0,0.0,0.0,0.0,0.0,-1.747,0.0,0.0,0.0,0.0,0.0,0.0,0.0,0.0,0.0,0.0,0.0,0.0,0.0,0.0,0.0,0.0,0.0,-2.3439,-2.374,-2.3979,-2.4293,-2.4569,-2.4808,-2.5109,-2.5523,-2.6088,-2.6101,-2.6214,-2.6533,-2.6533,-2.6533,-2.6533,-2.6533,-2.6533,-2.6533,-2.6533,-2.6533,-2.6533,-2.6533,-2.671,-2.703,-2.8134,-2.8725,-2.8988,-2.9566,-2.9792,-2.9792,-2.9792,-2.9792,-2.9792,-2.9792,-2.9792,-2.9792,-2.9792,-2.9792,-2.9792,-2.9792,-2.9792,-2.9792,-2.9792,-2.9792,-2.9792,-2.9792,-2.9792,-2.9792,-2.9792,-2.9792,-2.9792,-2.9792,-2.9792,-2.9792,-2.9792,-2.8858,-2.7924,-2.729,-2.587,-2.4542,-2.3877,-2.3387,-2.3135,-2.3135,-2.3135,-2.3135,-2.3135,-2.3135,-2.3135,-2.3135,-2.3135,-2.3135,-2.3135,-2.3135,-2.3135,-2.3135,-2.3135,-2.3135,-2.3135,-2.3135,-2.3135,-2.3135,-2.3135,-2.3135,-2.3135,-2.3135,-2.3135,0.0,0.0,0.0,0.0,0.0,0.0,-1.8193,-1.7735,0.0,0.0,0.0,0.0,0.0,0.0,0.0,0.0,0.0,0.0,0.0,0.0,0.0,0.0,0.0,0.0,-2.3037,-2.2977,-2.3288,-2.3866,-2.3904,-2.4142,-2.4695,-2.4732,-2.4971,-2.5485,-2.5573,-2.585,-2.642,-2.6496,-2.6533,-2.6533,-2.6533,-2.6533,-2.6533,-2.6533,-2.6533,-2.6533,-2.6533,-2.6533,-2.6609,-2.7582,-2.8335,-2.89,-2.9541,-2.9792,-2.9792,-2.9792,-2.9792,-2.9792,-2.9792,-2.9792,-2.9792,-2.9792,-2.9792,-2.9792,-2.9792,-2.9792,-2.9792,-2.9792,-2.9792,-2.9792,-2.9792,-2.9792,-2.9792,-2.9792,-2.9792,-2.9792,-2.9792,-2.9792,-2.9792,-2.9792,-2.8937,-2.8255,-2.8096,-2.6438,-2.5115,-2.5041,-2.4049,-2.3309,-2.3309,-2.3222,-2.3135,-2.3135,-2.3135,-2.3135,-2.3135,-2.3135,-2.3135,-2.3135,-2.3135,-2.3135,-2.3135,-2.3135,-2.3135,-2.3135,-2.3135,-2.3135,-2.3135,-2.3135,-2.3135,-2.3135,-2.3135,-2.3135,0.0,0.0,-1.8762,0.0,0.0,0.0,0.0,-1.6583,0.0,0.0,0.0,0.0,0.0,0.0,0.0,0.0,0.0,0.0,0.0,0.0,0.0,0.0,0.0,0.0,-2.2422,-2.2472,-2.2698,-2.3263,-2.3314,-2.3552,-2.413,-2.4167,-2.4406,-2.4958,-2.5372,-2.5649,-2.5762,-2.6226,-2.6533,-2.6533,-2.6533,-2.6533,-2.6533,-2.6533,-2.6533,-2.6533,-2.6533,-2.6533,-2.6584,-2.7168,-2.777,-2.8373,-2.9402,-2.9792,-2.9792,-2.9792,-2.9792,-2.9792,-2.9792,-2.9792,-2.9792,-2.9792,-2.9792,-2.9792,-2.9792,-2.9792,-2.9792,-2.9792,-2.9792,-2.9792,-2.9792,-2.9792,-2.9792,-2.9792,-2.9792,-2.9792,-2.9792,-2.9792,-2.9792,-2.9792,-2.9624,-2.9197,-2.8255,-2.7763,-2.7186,-2.6307,-2.521,-2.4457,-2.4457,-2.3637,-2.3135,-2.3135,-2.3135,-2.3135,-2.3135,-2.3135,-2.3135,-2.3135,-2.3135,-2.3135,-2.3135,-2.3135,-2.3135,-2.3135,-2.3135,-2.3135,-2.3135,-2.3135,-2.3135,-2.3135,-2.3135,-2.3135,0.0,0.0,-1.9525,-1.8847,0.0,0.0,0.0,0.0,-1.733,0.0,0.0,0.0,0.0,0.0,0.0,0.0,0.0,0.0,0.0,0.0,0.0,0.0,0.0,0.0,-2.1468,-2.1744,-2.2133,-2.2686,-2.2975,-2.3203,-2.3552,-2.3565,-2.3828,-2.4393,-2.4657,-2.5059,-2.5586,-2.5887,-2.6176,-2.6533,-2.6533,-2.6533,-2.6533,-2.6533,-2.6533,-2.6533,-2.6533,-2.6533,-2.6571,-2.7055,-2.7444,-2.7808,-2.8925,-2.9365,-2.9402,-2.9691,-2.9792,-2.9792,-2.9792,-2.9792,-2.9792,-2.9792,-2.9792,-2.9792,-2.9792,-2.9792,-2.9792,-2.9792,-2.9792,-2.9792,-2.9792,-2.9792,-2.9792,-2.9792,-2.9792,-2.9792,-2.9792,-2.9792,-2.9792,-2.9792,-2.9792,-2.9624,-2.9028,-2.8518,-2.7936,-2.736,-2.6378,-2.563,-2.563,-2.4628,-2.3963,-2.3963,-2.3474,-2.3135,-2.3135,-2.3135,-2.3135,-2.3135,-2.3135,-2.3135,-2.3135,-2.3135,-2.3135,-2.3135,-2.3135,-2.3135,-2.3135,-2.3135,-2.3135,-2.3135,-2.3135,-2.3135,0.0,0.0,0.0,0.0,0.0,-1.9656,0.0,0.0,0.0,-1.8761,0.0,0.0,0.0,0.0,0.0,0.0,0.0,0.0,0.0,0.0,0.0,0.0,0.0,0.0,0.0,-2.0903,-2.1443,-2.2108,-2.2472,-2.2749,-2.2902,-2.3015,-2.3351,-2.3816,-2.3941,-2.4469,-2.5435,-2.5548,-2.5887,-2.6533,-2.6533,-2.6533,-2.6533,-2.6533,-2.6533,-2.6533,-2.6533,-2.6533,-2.6559,-2.6942,-2.713,-2.7231,-2.8335,-2.8837,-2.8988,-2.9453,-2.9691,-2.9792,-2.9792,-2.9792,-2.9792,-2.9792,-2.9792,-2.9792,-2.9792,-2.9792,-2.9792,-2.9792,-2.9792,-2.9792,-2.9792,-2.9792,-2.9792,-2.9792,-2.9792,-2.9792,-2.9792,-2.9792,-2.9792,-2.9792,-2.9792,-2.9792,-2.9792,-2.9028,-2.8426,-2.8426,-2.7533,-2.6801,-2.6801,-2.5797,-2.5041,-2.4787,-2.3963,-2.3299,-2.3135,-2.3135,-2.3135,-2.3135,-2.3135,-2.3135,-2.3135,-2.3135,-2.3135,-2.3135,-2.3135,-2.3135,-2.3135,-2.3135,-2.3135,-2.3135,-2.3135,-2.3135,0.0,0.0,0.0,0.0,-2.1889,0.0,0.0,0.0,-1.9165,-1.8085,0.0,0.0,0.0,0.0,0.0,0.0,0.0,0.0,0.0,0.0,0.0,0.0,0.0,0.0,0.0,-1.9962,-2.0439,-2.1506,-2.1192,-2.138,-2.2347,-2.2874,-2.3103,-2.3226,-2.3728,-2.4293,-2.4908,-2.536,-2.5887,-2.6533,-2.6533,-2.6533,-2.6533,-2.6533,-2.6533,-2.6533,-2.6533,-2.6533,-2.6533,-2.6596,-2.6622,-2.6666,-2.777,-2.8499,-2.8938,-2.9001,-2.9352,-2.9792,-2.9792,-2.9792,-2.9792,-2.9792,-2.9792,-2.9792,-2.9792,-2.9792,-2.9792,-2.9792,-2.9792,-2.9792,-2.9792,-2.9792,-2.9792,-2.9792,-2.9792,-2.9792,-2.9792,-2.9792,-2.9792,-2.9792,-2.9792,-2.9792,-2.9792,-2.9702,-2.9624,-2.9624,-2.8609,-2.7936,-2.7936,-2.6953,-2.5891,-2.4872,-2.4702,-2.4211,-2.3222,-2.3135,-2.3135,-2.3135,-2.3135,-2.3135,-2.3135,-2.3135,-2.3135,-2.3135,-2.3135,-2.3135,-2.3135,-2.3135,-2.3135,-2.3135,-2.3135,-2.3135,0.0,0.0,0.0,0.0,0.0,0.0,-2.0273,0.0,-1.9645,0.0,0.0,0.0,0.0,0.0,0.0,0.0,0.0,0.0,0.0,0.0,0.0,0.0,0.0,0.0,0.0,0.0,0.0,0.0,-2.0125,-2.0652,-2.1782,-2.2359,-2.2811,-2.3065,-2.3376,-2.3929,-2.4808,-2.5034,-2.5586,-2.6533,-2.6533,-2.6533,-2.6533,-2.6533,-2.6533,-2.6533,-2.6533,-2.6533,-2.6533,-2.6533,-2.6533,-2.6502,-2.6967,-2.7494,-2.8009,-2.8335,-2.88,-2.9289,-2.9289,-2.9515,-2.9792,-2.9792,-2.9792,-2.9792,-2.9792,-2.9792,-2.9792,-2.9792,-2.9792,-2.9792,-2.9792,-2.9792,-2.9792,-2.9792,-2.9792,-2.9792,-2.9792,-2.9792,-2.9792,-2.9792,-2.9792,-2.9792,-2.9792,-2.9792,-2.9792,-2.9792,-2.9365,-2.9106,-2.9106,-2.8108,-2.7035,-2.588,-2.521,-2.4382,-2.3222,-2.3135,-2.3135,-2.3135,-2.3135,-2.3135,-2.3135,-2.3135,-2.3135,-2.3135,-2.3135,-2.3135,-2.3135,-2.3135,-2.3135,-2.3135,-2.3135,-2.3135,-2.2218,0.0,0.0,0.0,0.0,0.0,0.0,0.0,0.0,0.0,0.0,0.0,0.0,0.0,0.0,0.0,0.0,0.0,0.0,0.0,0.0,0.0,0.0,0.0,0.0,0.0,0.0,0.0,0.0,-1.9522,-2.0953,-2.1694,-2.2334,-2.2887,-2.299,-2.3615,-2.4582,-2.4745,-2.5297,-2.6226,-2.6445,-2.6533,-2.6533,-2.6533,-2.6533,-2.6533,-2.6533,-2.6533,-2.6533,-2.6533,-2.6533,-2.6533,-2.6533,-2.6703,-2.713,-2.767,-2.8235,-2.8725,-2.8875,-2.9315,-2.9792,-2.9792,-2.9792,-2.9792,-2.9792,-2.9792,-2.9792,-2.9792,-2.9792,-2.9792,-2.9792,-2.9792,-2.9792,-2.9792,-2.9792,-2.9792,-2.9792,-2.9792,-2.9792,-2.9792,-2.9792,-2.9792,-2.9792,-2.9792,-2.9792,-2.9792,-2.9792,-2.9792,-2.9792,-2.9106,-2.8028,-2.6637,-2.5797,-2.4713,-2.3222,-2.3135,-2.3135,-2.3135,-2.3135,-2.3135,-2.3135,-2.3135,-2.3135,-2.3135,-2.3135,-2.3135,-2.3135,-2.3135,-2.3135,-2.3135,-2.3135,-2.3135,0.0,0.0,0.0,-2.2173,0.0,0.0,0.0,0.0,-2.1261,0.0,0.0,0.0,0.0,0.0,0.0,0.0,0.0,0.0,0.0,0.0,0.0,0.0,0.0,0.0,0.0,0.0,0.0,0.0,0.0,0.0,-1.9748,-2.0916,-2.1769,-2.2322,-2.2862,-2.3427,-2.4017,-2.4556,-2.5096,-2.5636,-2.6189,-2.6533,-2.6533,-2.6533,-2.6533,-2.6533,-2.6533,-2.6533,-2.6533,-2.6533,-2.6533,-2.6533,-2.6533,-2.6533,-2.6622,-2.7105,-2.7657,-2.821,-2.8737,-2.9315,-2.9792,-2.9792,-2.9792,-2.9792,-2.9792,-2.9792,-2.9792,-2.9792,-2.9792,-2.9792,-2.9792,-2.9792,-2.9792,-2.9792,-2.9792,-2.9792,-2.9792,-2.9792,-2.9792,-2.9792,-2.9792,-2.9792,-2.9792,-2.9792,-2.9792,-2.9792,-2.9792,-2.9792,-2.9792,-2.9792,-2.8882,-2.673,-2.6483,-2.5557,-2.3309,-2.3135,-2.3135,-2.3135,-2.3135,-2.3135,-2.3135,-2.3135,-2.3135,-2.3135,-2.3135,-2.3135,-2.3135,-2.3135,-2.3135,-2.3135,-2.3135,-2.3135,0.0,0.0,-2.4253,-2.2727,0.0,0.0,0.0,0.0,0.0,0.0,0.0,0.0,0.0,0.0,0.0,0.0,0.0,0.0,0.0,0.0,0.0,0.0,0.0,0.0,0.0,0.0,0.0,0.0,-1.6886,0.0,0.0,-2.069,-2.1744,-2.2297,-2.2849,-2.3414,-2.3991,-2.4544,-2.5084,-2.5598,-2.6189,-2.6533,-2.6533,-2.6533,-2.6533,-2.6533,-2.6533,-2.6533,-2.6533,-2.6533,-2.6533,-2.6533,-2.6533,-2.6533,-2.6546,-2.6666,-2.708,-2.7695,-2.8612,-2.9051,-2.9289,-2.9666,-2.9792,-2.9792,-2.9792,-2.9792,-2.9792,-2.9792,-2.9792,-2.9792,-2.9792,-2.9792,-2.9792,-2.9792,-2.9792,-2.9792,-2.9792,-2.9792,-2.9792,-2.9792,-2.9792,-2.9792,-2.9792,-2.9792,-2.9792,-2.9792,-2.9792,-2.9792,-2.9792,-2.9118,-2.8108,-2.6648,-2.5808,-2.4798,-2.3222,-2.3135,-2.3135,-2.3135,-2.3135,-2.3135,-2.3135,-2.3135,-2.3135,-2.3135,-2.3135,-2.3135,-2.3135,-2.3135,-2.3135,-2.3135,-2.3135,-2.3135,-2.367,-2.3924,0.0,-2.3221,-2.2996,0.0,-2.1365,0.0,0.0,0.0,0.0,0.0,0.0,0.0,0.0,0.0,0.0,0.0,0.0,0.0,0.0,0.0,0.0,0.0,0.0,0.0,-1.5141,-1.5932,0.0,0.0,0.0,0.0,-2.1242,-2.1995,-2.2749,-2.3314,-2.369,-2.4443,-2.4996,-2.5335,-2.6101,-2.6533,-2.6533,-2.6533,-2.6533,-2.6533,-2.6533,-2.6533,-2.6533,-2.6533,-2.6533,-2.6533,-2.6533,-2.6533,-2.6533,-2.6533,-2.6929,-2.767,-2.8386,-2.89,-2.9302,-2.9666,-2.9792,-2.9792,-2.9792,-2.9792,-2.9792,-2.9792,-2.9792,-2.9792,-2.9792,-2.9792,-2.9792,-2.9792,-2.9792,-2.9792,-2.9792,-2.9792,-2.9792,-2.9792,-2.9792,-2.9792,-2.9792,-2.9792,-2.9792,-2.9792,-2.9792,-2.9792,-2.9792,-2.9184,-2.8119,-2.6648,-2.5808,-2.4798,-2.3222,-2.3135,-2.3135,-2.3135,-2.3135,-2.3135,-2.3135,-2.3135,-2.3135,-2.3135,-2.3135,-2.3135,-2.3135,-2.3135,-2.3135,-2.3135,-2.3135,-2.3135]},{"header":{"parameterUnit":"m.s-1","parameterCategory":1,"la1":30.6,"la2":29.2853,"lo1":-89.7004,"lo2":-87.6739,"dy":0.0162,"dx":0.0183,"nx":112,"ny":82,"refTime":"2024-08-06T18:00:00:Z","depth":0,"parameterNumber":3,"parameterNumberName":"V-component_of_WINDS"},"data":[0.0,0.0,0.0,0.0,0.0,0.0,0.0,0.0,0.0,0.0,0.0,0.0,0.0,0.0,0.0,0.0,0.0,0.0,0.0,0.0,0.0,0.0,0.0,0.0,0.0,0.0,0.0,0.0,0.0,0.0,0.0,0.0,0.0,0.0,0.0,0.0,0.0,0.0,0.0,0.0,0.0,0.0,0.0,0.0,0.0,0.0,0.0,0.0,0.0,0.0,0.0,0.0,0.0,0.0,0.0,0.0,0.0,0.0,0.0,0.0,0.0,0.0,0.0,0.0,0.0,0.0,0.0,0.0,0.0,0.0,0.0,0.0,0.0,0.0,0.0,0.0,0.0,0.0,0.0,0.0,0.0,0.0,0.0,0.0,0.0,0.0,0.0,0.0,0.0,0.0,0.0,-2.9384,-3.3347,-3.5232,-3.383,-3.3258,-3.0709,-2.5398,0.0,0.0,0.0,0.0,0.0,0.0,0.0,0.0,0.0,0.0,0.0,0.0,0.0,0.0,0.0,0.0,0.0,0.0,0.0,0.0,0.0,0.0,0.0,0.0,0.0,0.0,0.0,0.0,0.0,0.0,0.0,0.0,0.0,0.0,0.0,0.0,0.0,0.0,0.0,0.0,0.0,0.0,0.0,0.0,0.0,0.0,0.0,0.0,0.0,0.0,0.0,0.0,0.0,0.0,0.0,0.0,0.0,0.0,0.0,0.0,0.0,0.0,0.0,0.0,0.0,0.0,0.0,0.0,0.0,0.0,0.0,0.0,0.0,0.0,0.0,0.0,0.0,0.0,0.0,0.0,0.0,0.0,0.0,0.0,0.0,0.0,0.0,0.0,0.0,0.0,0.0,0.0,0.0,0.0,0.0,0.0,0.0,0.0,0.0,0.0,0.0,0.0,0.0,0.0,-2.9282,-3.5198,-3.8189,-3.8942,-3.6971,-3.5177,-3.2112,-2.7364,0.0,0.0,0.0,0.0,0.0,0.0,0.0,0.0,0.0,0.0,0.0,0.0,0.0,0.0,0.0,0.0,0.0,0.0,0.0,0.0,0.0,0.0,0.0,0.0,0.0,0.0,0.0,0.0,0.0,0.0,0.0,0.0,0.0,0.0,0.0,0.0,0.0,0.0,0.0,0.0,0.0,0.0,0.0,0.0,0.0,0.0,0.0,0.0,0.0,0.0,0.0,0.0,0.0,0.0,0.0,0.0,0.0,0.0,0.0,0.0,0.0,0.0,0.0,0.0,0.0,0.0,0.0,0.0,0.0,0.0,0.0,0.0,0.0,0.0,0.0,0.0,0.0,0.0,0.0,0.0,0.0,0.0,0.0,0.0,0.0,0.0,0.0,0.0,0.0,0.0,0.0,0.0,0.0,0.0,0.0,0.0,0.0,0.0,0.0,0.0,0.0,0.0,0.0,-2.9427,-3.295,-3.7918,-3.9882,-4.0225,-3.8728,-3.6509,-3.3332,-2.886,-2.5216,0.0,0.0,0.0,0.0,0.0,0.0,0.0,0.0,0.0,0.0,0.0,0.0,0.0,0.0,0.0,0.0,0.0,0.0,0.0,0.0,0.0,0.0,0.0,0.0,0.0,0.0,0.0,0.0,0.0,0.0,0.0,0.0,0.0,0.0,0.0,0.0,0.0,0.0,0.0,0.0,0.0,0.0,0.0,0.0,0.0,0.0,0.0,0.0,0.0,0.0,0.0,0.0,0.0,0.0,0.0,0.0,0.0,0.0,0.0,0.0,0.0,0.0,0.0,0.0,0.0,0.0,0.0,0.0,0.0,0.0,0.0,0.0,0.0,0.0,0.0,0.0,0.0,0.0,0.0,0.0,0.0,0.0,0.0,0.0,0.0,0.0,0.0,0.0,0.0,0.0,0.0,0.0,0.0,0.0,0.0,0.0,0.0,0.0,0.0,0.0,0.0,0.0,-3.3964,-3.6395,-3.9752,-4.0816,-4.0942,-4.002,-3.7148,-3.3799,-3.0025,-2.5602,0.0,0.0,0.0,0.0,0.0,0.0,0.0,0.0,0.0,0.0,0.0,0.0,0.0,0.0,0.0,0.0,0.0,0.0,0.0,0.0,0.0,0.0,0.0,0.0,0.0,0.0,0.0,0.0,0.0,0.0,0.0,0.0,0.0,0.0,0.0,0.0,0.0,0.0,0.0,0.0,0.0,0.0,0.0,0.0,0.0,0.0,0.0,0.0,0.0,0.0,0.0,0.0,0.0,0.0,0.0,0.0,0.0,0.0,0.0,0.0,0.0,0.0,0.0,0.0,0.0,0.0,0.0,0.0,0.0,0.0,0.0,0.0,0.0,0.0,0.0,0.0,0.0,0.0,0.0,0.0,0.0,0.0,0.0,0.0,0.0,0.0,0.0,0.0,0.0,0.0,0.0,0.0,0.0,0.0,0.0,0.0,0.0,0.0,0.0,0.0,0.0,0.0,-3.5606,-3.9011,-4.1637,-4.1938,-4.1732,-4.1221,-3.6774,-3.3059,-3.0767,-2.4639,0.0,0.0,0.0,0.0,0.0,0.0,0.0,0.0,0.0,0.0,0.0,0.0,0.0,0.0,0.0,0.0,0.0,0.0,0.0,0.0,0.0,0.0,0.0,0.0,0.0,0.0,0.0,0.0,0.0,0.0,0.0,0.0,0.0,0.0,0.0,0.0,0.0,0.0,0.0,0.0,0.0,0.0,0.0,0.0,0.0,0.0,0.0,0.0,0.0,0.0,0.0,0.0,0.0,0.0,0.0,0.0,0.0,0.0,0.0,0.0,0.0,0.0,0.0,0.0,0.0,0.0,0.0,0.0,0.0,0.0,0.0,0.0,0.0,0.0,0.0,0.0,0.0,0.0,0.0,0.0,0.0,0.0,0.0,0.0,0.0,0.0,0.0,0.0,0.0,0.0,0.0,0.0,0.0,0.0,0.0,0.0,0.0,0.0,0.0,0.0,0.0,0.0,-3.521,-3.8363,0.0,-4.1584,-4.1499,-4.101,-3.7394,-3.3911,-3.1012,0.0,0.0,0.0,0.0,0.0,0.0,0.0,0.0,0.0,0.0,0.0,0.0,0.0,0.0,0.0,0.0,0.0,0.0,0.0,0.0,0.0,0.0,0.0,0.0,0.0,0.0,0.0,0.0,0.0,0.0,0.0,0.0,0.0,0.0,0.0,0.0,0.0,0.0,0.0,0.0,0.0,0.0,0.0,0.0,0.0,0.0,0.0,0.0,0.0,0.0,0.0,0.0,0.0,0.0,0.0,0.0,0.0,0.0,0.0,0.0,0.0,0.0,0.0,0.0,0.0,0.0,0.0,0.0,0.0,0.0,0.0,0.0,0.0,0.0,0.0,0.0,0.0,0.0,0.0,0.0,0.0,0.0,0.0,0.0,0.0,0.0,0.0,0.0,0.0,0.0,0.0,0.0,0.0,0.0,0.0,0.0,0.0,0.0,0.0,0.0,0.0,0.0,-3.1904,-3.5302,-3.8277,0.0,-4.1306,-4.1147,-4.0832,-3.7258,-3.379,-3.0864,0.0,0.0,0.0,0.0,0.0,0.0,0.0,0.0,0.0,0.0,0.0,0.0,0.0,0.0,0.0,0.0,0.0,0.0,0.0,0.0,0.0,0.0,0.0,0.0,0.0,0.0,0.0,0.0,0.0,0.0,0.0,0.0,0.0,0.0,0.0,0.0,0.0,0.0,0.0,0.0,0.0,0.0,0.0,0.0,0.0,0.0,0.0,0.0,0.0,0.0,0.0,0.0,0.0,0.0,0.0,0.0,0.0,0.0,0.0,0.0,0.0,0.0,0.0,0.0,0.0,0.0,0.0,0.0,0.0,0.0,0.0,0.0,0.0,0.0,0.0,0.0,0.0,0.0,0.0,0.0,0.0,0.0,0.0,0.0,0.0,0.0,0.0,0.0,0.0,0.0,0.0,0.0,0.0,0.0,0.0,0.0,0.0,0.0,0.0,0.0,0.0,0.0,-3.2649,-3.6189,-3.9286,-4.1821,-4.1318,-4.0796,-4.079,-3.6131,-3.2364,0.0,0.0,0.0,0.0,0.0,0.0,0.0,0.0,0.0,0.0,0.0,0.0,0.0,0.0,0.0,0.0,0.0,0.0,0.0,0.0,0.0,0.0,0.0,0.0,0.0,0.0,0.0,0.0,0.0,0.0,0.0,0.0,0.0,0.0,0.0,0.0,0.0,0.0,0.0,0.0,0.0,0.0,0.0,0.0,0.0,0.0,0.0,0.0,0.0,0.0,0.0,0.0,0.0,0.0,0.0,0.0,0.0,0.0,0.0,0.0,0.0,0.0,0.0,0.0,0.0,0.0,0.0,0.0,0.0,0.0,0.0,0.0,0.0,0.0,0.0,0.0,0.0,0.0,0.0,0.0,0.0,0.0,0.0,0.0,0.0,0.0,0.0,0.0,0.0,0.0,0.0,0.0,0.0,0.0,0.0,0.0,0.0,0.0,0.0,0.0,0.0,0.0,0.0,-3.2652,-3.6343,-3.9227,-4.1119,-4.1097,-4.0662,-4.0004,-3.689,-3.3684,-3.0674,0.0,0.0,0.0,0.0,0.0,0.0,0.0,0.0,0.0,0.0,0.0,0.0,0.0,0.0,0.0,0.0,0.0,0.0,0.0,0.0,0.0,0.0,0.0,0.0,0.0,0.0,0.0,0.0,0.0,0.0,0.0,0.0,0.0,0.0,0.0,0.0,0.0,0.0,0.0,0.0,0.0,0.0,0.0,0.0,0.0,0.0,0.0,0.0,0.0,0.0,0.0,0.0,0.0,0.0,0.0,0.0,0.0,0.0,0.0,0.0,0.0,0.0,0.0,0.0,0.0,0.0,0.0,0.0,0.0,0.0,0.0,0.0,0.0,0.0,0.0,0.0,0.0,0.0,0.0,0.0,0.0,0.0,0.0,0.0,0.0,0.0,0.0,0.0,0.0,0.0,0.0,0.0,0.0,0.0,0.0,0.0,0.0,0.0,0.0,0.0,0.0,0.0,-3.2686,-3.6428,-3.9238,-4.0898,-4.1074,-4.0718,-3.9794,-3.7635,-3.4715,-3.0921,0.0,0.0,0.0,0.0,0.0,0.0,0.0,0.0,0.0,0.0,0.0,0.0,0.0,0.0,0.0,0.0,0.0,0.0,0.0,0.0,0.0,0.0,0.0,0.0,0.0,0.0,0.0,0.0,0.0,0.0,0.0,0.0,0.0,0.0,0.0,0.0,0.0,0.0,0.0,0.0,0.0,0.0,0.0,0.0,0.0,0.0,0.0,0.0,0.0,0.0,0.0,0.0,0.0,0.0,0.0,0.0,0.0,0.0,0.0,0.0,0.0,0.0,0.0,0.0,0.0,0.0,0.0,0.0,0.0,0.0,0.0,0.0,0.0,0.0,0.0,0.0,0.0,0.0,0.0,0.0,0.0,0.0,0.0,0.0,0.0,0.0,0.0,0.0,0.0,0.0,0.0,0.0,0.0,0.0,0.0,0.0,0.0,0.0,0.0,0.0,0.0,0.0,-3.2754,-3.6445,-3.9277,-4.1016,-4.1191,-4.0801,-3.9863,-3.8262,-3.5488,-3.1191,0.0,0.0,0.0,0.0,0.0,0.0,0.0,0.0,0.0,0.0,0.0,0.0,0.0,0.0,0.0,0.0,0.0,0.0,0.0,0.0,0.0,0.0,0.0,0.0,0.0,0.0,0.0,0.0,0.0,0.0,0.0,0.0,0.0,0.0,0.0,0.0,0.0,0.0,0.0,0.0,0.0,0.0,0.0,0.0,0.0,0.0,0.0,0.0,0.0,0.0,0.0,0.0,0.0,0.0,0.0,0.0,0.0,0.0,0.0,0.0,-2.5622,0.0,0.0,0.0,0.0,0.0,0.0,0.0,0.0,0.0,0.0,0.0,0.0,0.0,0.0,0.0,0.0,0.0,0.0,0.0,0.0,0.0,0.0,0.0,0.0,0.0,0.0,0.0,0.0,0.0,0.0,0.0,0.0,0.0,0.0,0.0,0.0,0.0,0.0,0.0,0.0,0.0,-3.2812,-3.6445,-3.9277,-4.1016,-4.1191,-4.0566,-3.9004,-3.791,-3.5762,-3.2129,-2.8633,0.0,0.0,0.0,0.0,0.0,0.0,0.0,0.0,0.0,0.0,0.0,0.0,0.0,0.0,0.0,0.0,0.0,0.0,0.0,0.0,0.0,0.0,0.0,0.0,0.0,0.0,0.0,0.0,0.0,0.0,0.0,0.0,0.0,0.0,0.0,0.0,0.0,0.0,0.0,0.0,0.0,0.0,0.0,0.0,0.0,0.0,0.0,0.0,0.0,0.0,0.0,0.0,0.0,0.0,0.0,0.0,0.0,0.0,0.0,0.0,-2.7923,0.0,0.0,0.0,0.0,0.0,0.0,0.0,0.0,0.0,0.0,0.0,0.0,0.0,0.0,0.0,0.0,0.0,0.0,0.0,0.0,0.0,0.0,0.0,0.0,0.0,0.0,0.0,0.0,0.0,0.0,0.0,0.0,0.0,0.0,0.0,0.0,0.0,0.0,0.0,0.0,-3.2891,-3.6391,-3.9193,-4.1015,-4.108,-4.0491,-3.9247,-3.8302,-3.6492,-3.3484,-3.0824,0.0,0.0,0.0,0.0,0.0,0.0,0.0,0.0,0.0,0.0,0.0,0.0,0.0,0.0,0.0,0.0,0.0,0.0,0.0,0.0,0.0,0.0,0.0,0.0,0.0,0.0,0.0,0.0,0.0,0.0,0.0,0.0,0.0,0.0,0.0,0.0,0.0,0.0,0.0,0.0,0.0,0.0,0.0,0.0,0.0,0.0,0.0,0.0,0.0,0.0,0.0,0.0,0.0,-3.4792,-3.5571,-3.5571,-3.5571,-3.6198,-3.7128,-3.3915,-3.2743,-3.2845,0.0,0.0,0.0,0.0,0.0,0.0,0.0,0.0,0.0,0.0,0.0,0.0,0.0,0.0,0.0,0.0,0.0,0.0,0.0,0.0,0.0,0.0,0.0,0.0,0.0,-3.7081,-3.6905,0.0,0.0,0.0,0.0,0.0,0.0,0.0,0.0,0.0,0.0,0.0,0.0,-3.3418,-3.6674,-3.9315,-4.1023,-4.0994,-4.0496,-3.9585,-3.8791,-3.7261,-3.4692,-3.3037,-3.0828,0.0,0.0,0.0,0.0,0.0,0.0,0.0,0.0,0.0,0.0,0.0,0.0,0.0,0.0,0.0,0.0,0.0,0.0,0.0,0.0,0.0,0.0,0.0,0.0,0.0,0.0,0.0,0.0,0.0,0.0,0.0,0.0,-2.0862,-2.1891,0.0,0.0,0.0,0.0,0.0,0.0,0.0,0.0,0.0,0.0,0.0,0.0,0.0,-3.3109,-3.4664,-3.6242,-3.7384,-3.8079,-3.9545,-4.0233,-4.0233,-4.0233,-4.0312,-4.0464,-3.9945,0.0,-3.4888,-3.4268,0.0,0.0,0.0,0.0,0.0,0.0,0.0,0.0,0.0,0.0,0.0,0.0,0.0,0.0,0.0,0.0,0.0,0.0,0.0,0.0,0.0,0.0,-4.0991,-4.1103,-4.1298,-4.1071,0.0,-3.4688,-3.0211,-2.9137,-2.7031,0.0,0.0,0.0,0.0,0.0,0.0,0.0,-3.5215,-3.8023,-4.0092,-4.11,-4.1175,-4.0506,-3.8878,-3.8632,-3.7456,-3.4835,-3.375,-3.2686,-3.1533,-2.9267,0.0,0.0,0.0,0.0,0.0,0.0,0.0,0.0,0.0,0.0,0.0,0.0,0.0,0.0,0.0,0.0,0.0,0.0,0.0,0.0,0.0,0.0,0.0,0.0,0.0,0.0,0.0,0.0,0.0,-1.9869,-2.2829,-2.303,-2.3954,-2.3784,0.0,0.0,0.0,0.0,0.0,0.0,0.0,0.0,0.0,-3.4314,-3.561,-3.6859,-3.8044,-3.9564,-4.0498,-4.0861,-4.1948,-4.2451,-4.2451,-4.2451,-4.2451,-4.2451,-4.2451,-4.1232,-3.9098,-3.7302,-3.5325,-3.3348,0.0,0.0,0.0,0.0,-3.4265,-3.4227,-3.6954,-3.7103,0.0,-3.5834,0.0,0.0,0.0,0.0,0.0,0.0,0.0,0.0,0.0,0.0,-4.2356,-4.3316,-4.3562,-4.3465,-4.3073,-3.9951,-3.6362,0.0,-3.2503,-3.0758,-2.6614,0.0,0.0,0.0,0.0,-3.3769,-3.6231,-3.8344,-3.9966,-4.0884,-4.0869,-4.0149,-3.8517,-3.831,-3.7382,-3.5282,-3.4787,-3.4197,-3.3371,-3.1823,-2.9981,0.0,0.0,0.0,0.0,0.0,0.0,0.0,0.0,0.0,0.0,0.0,0.0,0.0,0.0,0.0,0.0,0.0,0.0,0.0,0.0,0.0,0.0,0.0,0.0,0.0,0.0,0.0,0.0,-2.2154,-2.4776,-2.4411,-2.6392,-2.6699,0.0,0.0,0.0,0.0,0.0,0.0,-3.2878,-3.4284,-3.5917,-3.7771,-3.9001,-4.001,-4.0799,-4.2011,-4.2598,-4.2598,-4.3204,-4.3497,-4.3497,-4.3497,-4.3497,-4.3497,-4.3497,-4.3149,-4.2396,-3.9958,-3.829,-3.7239,-3.6558,-3.6151,-3.6149,-3.8021,-3.835,-3.8281,-4.1025,-4.1478,-4.07,-3.9873,0.0,-3.7274,-3.4496,0.0,0.0,0.0,0.0,-3.7816,-4.0142,-4.1694,-4.3037,-4.4568,-4.4934,-4.4857,-4.4645,-4.3607,-4.1585,0.0,-3.7177,-3.5786,-3.0887,0.0,0.0,0.0,0.0,-3.5699,-3.7444,-3.8897,-4.0034,-4.0732,-4.0662,-3.9946,-3.8349,-3.8118,-3.7348,-3.5661,-3.5565,-3.5257,-3.4603,-3.3674,-3.2163,-3.0007,0.0,0.0,0.0,0.0,0.0,0.0,0.0,0.0,0.0,0.0,0.0,0.0,0.0,0.0,0.0,0.0,0.0,0.0,0.0,0.0,0.0,0.0,0.0,0.0,0.0,0.0,0.0,0.0,0.0,-2.6823,-3.0412,0.0,0.0,0.0,0.0,-3.1066,-3.2621,-3.4642,-3.7066,-3.7991,-3.9551,-4.1919,-4.2084,-4.2506,-4.3296,-4.3387,-4.3424,-4.3424,-4.3461,-4.3497,-4.3497,-4.3497,-4.3497,-4.3497,-4.3497,-4.3461,-4.3351,-4.2433,-4.1267,-4.0085,-4.0049,-3.9698,-3.9373,-4.0325,-4.0817,-4.1186,-4.2141,-4.2144,-4.1989,-4.3489,-4.2362,-4.0238,-3.9314,-3.8476,0.0,0.0,-4.0293,-4.1978,-4.3626,-4.4124,-4.4412,-4.5336,-4.5547,-4.5316,-4.4489,-4.4338,-4.3624,0.0,-3.9189,-3.7463,-3.5626,0.0,-3.4438,-3.5196,-3.6189,-3.7487,-3.9238,-4.0215,-4.0735,-4.0785,-4.0789,-4.0119,-3.8445,-3.8281,-3.7544,-3.5795,-3.5699,-3.568,-3.5622,-3.3994,-3.2666,-3.1786,-2.8449,0.0,0.0,0.0,0.0,0.0,0.0,0.0,0.0,0.0,0.0,0.0,0.0,0.0,0.0,0.0,0.0,0.0,0.0,0.0,0.0,0.0,0.0,0.0,0.0,0.0,0.0,0.0,0.0,-2.9258,-3.2289,0.0,-3.1134,-3.3188,-3.4852,-3.5303,-3.6817,-3.84,-3.9926,-4.0653,-4.1492,-4.2523,-4.29,-4.3204,-4.3497,-4.3178,-4.2976,-4.2976,-4.2976,-4.2976,-4.3014,-4.3321,-4.3497,-4.3497,-4.3497,-4.3497,-4.3461,-4.3185,-4.2776,-4.2387,-4.2581,-4.2726,-4.2844,-4.3383,-4.3783,-4.4115,-4.4403,-4.4381,-4.4239,-4.4297,-4.3338,-4.2168,-4.186,-4.1591,-4.1517,-4.2324,-4.2975,-4.3703,-4.4836,-4.5143,-4.5201,-4.5528,-4.5586,-4.5509,-4.5201,-4.5163,-4.4773,-4.3347,-4.1735,-3.9896,-3.7629,-3.7401,-3.7269,-3.6511,-3.7583,-3.8881,-4.0027,-4.0431,-4.062,-4.062,-4.062,-3.9946,-3.8238,-3.8099,-3.7137,-3.4872,-3.4718,-3.4487,-3.393,-3.3391,-3.2439,-3.1033,-2.9844,-2.7317,0.0,0.0,0.0,0.0,0.0,0.0,0.0,0.0,0.0,0.0,0.0,0.0,0.0,0.0,0.0,0.0,0.0,0.0,0.0,0.0,0.0,0.0,0.0,0.0,0.0,0.0,-3.1856,-3.1644,-3.4613,-3.5923,-3.4134,-3.6176,-3.7945,-3.8761,-3.9801,-4.0901,-4.205,-4.2322,-4.2523,-4.2693,-4.305,-4.3124,-4.294,-4.277,-4.2616,-4.24,-4.24,-4.24,-4.24,-4.2772,-4.3032,-4.3214,-4.3214,-4.3321,-4.3497,-4.3497,-4.3497,-4.3513,-4.374,-4.4004,-4.4252,-4.4482,-4.4762,-4.5099,-4.5342,-4.5513,-4.549,-4.4932,-4.4374,-4.3932,-4.3932,-4.3932,-4.4047,-4.4586,-4.4739,-4.4874,-4.5451,-4.5586,-4.5586,-4.5586,-4.5586,-4.5586,-4.5586,-4.5586,-4.5432,-4.4855,-4.3682,-4.205,-3.973,-3.98,-3.9665,-3.8255,-3.8977,-3.9892,-4.0431,-4.0489,-4.0489,-4.0489,-4.0489,-3.9815,-3.8142,-3.7738,-3.6738,-3.4757,-3.4083,-3.3622,-3.3353,-3.2609,-3.1648,-3.0487,-2.9951,-2.8481,-2.5988,0.0,0.0,0.0,0.0,0.0,0.0,0.0,0.0,0.0,0.0,0.0,0.0,0.0,0.0,0.0,0.0,0.0,0.0,0.0,0.0,0.0,0.0,0.0,-2.7885,-3.2056,-3.4789,-3.4045,-3.7514,-3.9104,-3.696,-3.8852,-4.0562,-4.1357,-4.1411,-4.2014,-4.3355,-4.2976,-4.2693,-4.2655,-4.2655,-4.24,-4.181,-4.2342,-4.2342,-4.175,-4.175,-4.175,-4.175,-4.181,-4.2121,-4.2655,-4.2655,-4.2976,-4.3497,-4.3497,-4.3479,-4.3497,-4.3497,-4.3532,-4.3513,-4.3513,-4.3726,-4.4117,-4.4853,-4.5322,-4.5586,-4.5605,-4.5586,-4.5586,-4.5586,-4.5586,-4.5586,-4.5586,-4.5586,-4.5586,-4.5586,-4.5586,-4.5586,-4.5586,-4.5586,-4.5586,-4.5586,-4.5586,-4.5586,-4.5586,-4.4913,-4.3816,-4.2162,-4.1835,-4.1508,-4.0662,-4.0508,0.0,-4.0489,-4.0489,-4.0489,-4.0489,-4.0489,-3.9815,-3.818,-3.7238,-3.6372,-3.5526,-3.3853,-3.3276,-3.4122,-3.1795,-3.0494,-3.0513,-2.8893,-2.8486,-2.9381,0.0,0.0,0.0,0.0,0.0,0.0,0.0,0.0,0.0,0.0,0.0,0.0,0.0,0.0,0.0,0.0,0.0,0.0,0.0,0.0,0.0,0.0,-3.1092,-3.157,-3.4298,-3.6508,-3.7264,-3.9516,-4.0745,-4.0131,-4.0849,-4.1451,-4.1665,-4.1683,-4.1689,-4.1629,-4.2284,-4.2302,-4.1446,-4.2244,-4.24,-4.181,-4.1534,-4.1313,-4.1133,-4.1133,-4.1133,-4.1178,-4.1578,-4.1895,-4.2038,-4.2038,-4.2382,-4.2902,-4.2902,-4.3142,-4.3497,-4.3497,-4.3646,-4.3849,-4.3849,-4.4106,-4.4501,-4.4943,-4.5159,-4.5282,-4.5513,-4.5586,-4.5586,-4.5586,-4.5586,-4.5586,-4.5586,-4.5586,-4.5586,-4.5586,-4.5586,-4.5586,-4.5586,-4.5586,-4.5586,-4.5586,-4.5586,-4.5586,-4.5586,-4.5413,-4.4893,-4.3797,-4.2604,-4.172,-4.1489,-4.0893,0.0,-4.0489,-4.0489,-4.0489,-4.0489,-4.0489,-4.0065,-3.9027,-3.8142,-3.6757,-3.468,-3.3506,-3.3006,-3.3256,-3.2583,-3.2506,-3.3141,-3.2122,-3.1399,0.0,0.0,0.0,0.0,0.0,0.0,0.0,0.0,0.0,0.0,0.0,0.0,0.0,0.0,0.0,0.0,0.0,0.0,0.0,0.0,0.0,0.0,-3.1324,-3.3843,-3.4818,-3.6346,-3.79,-3.9336,-4.0414,-4.1114,-4.1174,-4.1339,-4.1446,-4.1446,-4.1446,-4.1402,-4.1268,-4.1707,-4.1621,-4.0903,-4.1578,-4.1682,-4.1076,-4.1313,-4.1281,-4.1008,-4.1317,-4.1471,-4.1503,-4.1514,-4.1701,0.0,-4.156,-4.1768,-4.2342,-4.2616,-4.2902,0.0,0.0,0.0,0.0,0.0,-4.4035,-4.4373,-4.4587,-4.4853,-4.5118,-4.5322,-4.5495,-4.5586,-4.5586,-4.5586,-4.5586,-4.5586,-4.5586,-4.5586,-4.5586,-4.5586,-4.5586,-4.5586,-4.5586,-4.5586,-4.5586,-4.5586,-4.5586,-4.5586,-4.5586,0.0,-4.4932,-4.3344,-4.2007,-4.1662,-4.0875,-4.0339,-4.0339,-4.0441,-4.0489,-4.0489,-4.0489,-4.0162,-3.9373,-3.8507,0.0,0.0,0.0,-3.3833,-3.3449,-3.343,0.0,0.0,0.0,0.0,0.0,0.0,0.0,0.0,-3.5214,-3.5492,0.0,0.0,0.0,0.0,0.0,0.0,0.0,0.0,0.0,0.0,0.0,0.0,0.0,0.0,0.0,0.0,-3.4146,-3.5759,-3.7448,-3.808,-3.8919,-4.0418,-4.0605,-4.0709,-4.088,-4.0874,-4.0827,-4.0827,-4.0827,-4.1041,-4.1578,0.0,0.0,0.0,0.0,-4.0793,-4.0206,-4.1503,-4.1831,-4.1339,-4.1982,-4.2286,-4.2269,-4.1627,-4.1614,-4.2075,-4.135,-4.1342,-4.1866,-4.2405,-4.2649,-4.2732,-4.3286,-4.3497,-4.3497,-4.3497,-4.3693,-4.3955,-4.3986,0.0,0.0,-4.503,-4.5243,-4.5495,-4.5531,-4.5513,-4.5513,-4.5586,-4.5568,-4.555,-4.5586,-4.5586,-4.5586,-4.5586,-4.5568,-4.5531,-4.5531,-4.5513,-4.5495,-4.5495,-4.5495,-4.5495,-4.5495,-4.3963,-4.2447,-4.1589,-4.0729,-4.0137,-4.0061,-4.025,-4.0406,-4.0406,0.0,0.0,-3.9388,-3.8527,-3.8005,-3.7959,-3.6589,-3.5449,-3.4661,-3.4814,-3.5276,-3.6065,-3.6161,-3.768,-4.0642,-4.0739,-4.1623,-4.3124,-3.8635,-3.7742,0.0,0.0,0.0,0.0,0.0,0.0,0.0,0.0,0.0,0.0,0.0,0.0,0.0,0.0,0.0,-3.2971,-3.455,-3.6265,-3.8435,-3.8819,-3.929,-4.0458,-4.0718,-4.0839,-4.0886,-4.0497,-4.0237,-4.0237,-4.0237,-4.0286,-4.0434,-4.075,-4.0703,-4.0286,-4.1292,-4.157,-4.0984,-4.1851,-4.2224,-4.2083,0.0,0.0,-4.2286,-4.2151,-4.2119,-4.226,-4.2107,-4.202,-4.2032,-4.2172,-4.2412,-4.2732,-4.3286,-4.3497,-4.3497,-4.3497,-4.3548,-4.3664,-4.3912,-4.4087,-4.4261,-4.4606,-4.4732,-4.483,-4.5118,-4.5011,0.0,-4.5438,-4.54,-4.5243,-4.5531,-4.5586,-4.5586,-4.5586,-4.5381,-4.5201,-4.5201,-4.4988,-4.4781,-4.4781,-4.4781,-4.4781,-4.4781,-4.4106,-4.3285,-4.2466,-4.1399,-4.0443,-3.9785,-3.9735,-3.9778,-3.9778,-3.9778,-3.9721,-3.957,-3.8734,-3.8058,-3.7619,-3.7552,-3.745,-3.7276,-3.8546,-3.9354,-3.9527,-4.0219,-4.0912,-4.1546,-4.2258,-4.3104,-4.4028,-4.2417,-4.2283,0.0,0.0,0.0,0.0,0.0,0.0,0.0,0.0,0.0,0.0,0.0,-2.8738,-2.9854,0.0,-3.3914,-3.5419,-3.6586,-3.7702,-3.8836,-3.9309,-3.9759,-4.0308,-4.0449,-4.0497,-4.0497,-4.0254,-4.007,-4.007,-4.007,-4.007,-4.007,-4.0677,-4.0948,-4.0646,-4.1648,-4.2091,-4.1745,-4.2489,-4.2861,-4.2861,-4.325,-4.3436,-4.342,-4.3031,-4.2861,-4.2828,-4.2455,-4.2277,-4.2192,-4.2144,-4.2335,-4.275,-4.2976,-4.325,-4.3497,-4.3497,-4.3497,-4.3513,-4.3693,-4.3849,-4.4028,-4.4233,-4.4447,-4.4631,-4.48,-4.4732,-4.4657,-4.5011,-4.4988,-4.4896,-4.5074,-4.5096,-4.5096,-4.5096,-4.4966,-4.4849,-4.4849,-4.4726,-4.458,-4.458,-4.458,-4.458,-4.458,-4.4221,-4.3636,-4.2831,-4.1468,-4.0401,-3.9989,-3.9768,-3.9599,-3.9599,-3.9599,-3.9599,-3.9599,-3.9203,-3.8833,-3.8567,-3.886,-3.9059,-3.9059,-4.0386,-4.1143,-4.1143,-4.2008,-4.2643,-4.3047,-4.3489,-4.4124,-4.4932,-4.4528,-4.4566,0.0,0.0,0.0,0.0,0.0,0.0,0.0,0.0,-2.648,-2.8827,-3.0633,-3.2261,-3.3786,-3.4908,-3.6095,-3.7614,-3.827,-3.864,-3.8958,-3.948,-3.985,-3.985,-4.0003,-4.007,-4.007,-4.007,-4.007,-4.007,-4.007,-4.007,-4.007,-4.0798,-4.1204,-4.1204,-4.2049,-4.2506,-4.2506,-4.3267,-4.3639,-4.3656,-4.4282,-4.4587,-4.4553,-4.3927,-4.3639,-4.3606,-4.2844,-4.2422,-4.2289,-4.202,-4.2111,-4.2342,-4.2342,-4.2752,-4.3375,-4.3444,-4.3497,-4.3497,-4.3497,-4.3679,-4.3893,-4.3893,-4.4136,-4.4392,-4.4474,-4.4447,-4.4419,-4.4553,-4.4553,-4.4501,-4.458,-4.458,-4.458,-4.458,-4.4527,-4.4474,-4.4474,-4.4419,-4.4392,-4.4392,-4.4392,-4.4392,-4.4392,-4.4106,-4.3646,-4.2899,-4.1611,-4.0632,-4.0465,-3.9997,-3.9652,-3.9652,-3.9521,-3.9427,-3.9427,-3.9481,-3.9486,-3.9486,-3.9949,-4.025,-4.025,-4.134,-4.2019,-4.2192,-4.2936,-4.3739,-4.4547,-4.4547,-4.4913,-4.5586,-4.5586,-4.5586,-2.1582,-2.1895,-2.2801,-2.4916,-2.4926,-2.5982,0.0,0.0,-3.0486,-3.4007,-3.4348,-3.454,-3.6148,-3.5959,-3.6066,-3.7554,-3.7308,-3.7404,-3.871,-3.8966,-3.9016,-3.9016,-3.9662,-4.007,-4.007,-4.007,-4.007,-4.007,-4.007,-4.007,-4.007,-4.0798,-4.1204,-4.1204,-4.2557,-4.3301,-4.3301,-4.4062,-4.4451,-4.4451,-4.4536,-4.4587,-4.4587,-4.4485,-4.4451,-4.4401,-4.3623,-4.2912,-4.2236,-4.1595,-4.1231,-4.1087,-4.1087,-4.1793,-4.2864,-4.3321,-4.3497,-4.3497,-4.3497,-4.3513,-4.3548,-4.3548,-4.3582,-4.3679,-4.3986,-4.3868,-4.3758,-4.4419,-4.4346,-4.4146,-4.4501,-4.458,-4.458,-4.458,-4.4337,-4.4076,-4.4076,-4.3836,-4.3631,-4.3631,-4.3631,-4.3631,-4.3631,-4.3582,-4.3402,-4.2888,-4.239,-4.182,-4.1103,-4.0325,-3.989,-3.989,-3.9215,-3.8792,-3.8792,-3.8999,-3.9178,-3.9178,-4.0134,-4.0736,-4.0736,-4.1825,-4.2791,-4.3554,-4.3961,-4.4586,-4.5451,-4.5451,-4.549,-4.5586,-4.5586,-4.5586,-2.413,-2.4849,0.0,0.0,-2.7883,-2.9058,-3.2602,-3.2467,-3.2325,-3.5047,-3.5695,-3.5963,-3.6636,-3.6793,-3.7094,0.0,-3.7528,-3.7584,-3.8157,-3.7929,-3.767,-3.767,-3.7943,-3.8339,-3.8728,-3.8778,-3.8941,-3.9368,-3.9368,-3.961,-4.007,-4.1204,-4.183,-4.183,-4.3301,-4.4096,-4.4096,-4.4418,-4.4587,-4.4587,-4.4587,-4.4587,-4.4587,-4.4587,-4.4587,-4.4553,-4.4231,-4.3656,-4.2878,-4.2134,-4.1766,-4.1579,-4.1093,-4.1621,-4.275,-4.2939,-4.3214,-4.3497,-4.3497,-4.3497,-4.3497,-4.3497,-4.3497,-4.3513,-4.3679,-4.3631,-4.3563,-4.3868,-4.3836,-4.3758,-4.3931,-4.3962,-4.3962,-4.3962,-4.3836,-4.3693,-4.3693,-4.3597,-4.3497,-4.3497,-4.3497,-4.3497,-4.3497,-4.3497,-4.3419,-4.325,-4.2695,-4.2176,-4.1846,-4.1111,-4.0598,-4.0598,-3.9882,-3.9405,-3.9405,-3.9485,-3.9557,-3.9557,-4.0626,-4.1266,-4.1266,-4.2353,-4.3128,-4.3488,-4.4144,-4.4756,-4.5322,-4.5322,-4.5419,-4.5586,-4.5586,-4.5586,-2.5354,0.0,0.0,-2.8681,-2.9968,-3.1498,-3.3054,-3.3254,-3.3645,-3.5514,-3.6004,-3.6174,-3.6438,-3.6537,0.0,-3.7139,-3.6995,-3.7014,-3.7424,-3.6896,-3.6572,-3.6705,-3.6562,-3.6663,-3.7112,-3.7531,-3.8035,-3.858,-3.858,-3.9023,-4.0033,-4.1312,-4.2085,-4.2286,-4.3564,-4.4121,-4.3873,-4.4121,-4.4253,-4.4253,-4.4514,-4.4587,-4.4587,-4.4587,-4.4587,-4.4587,-4.4587,-4.4028,-4.3064,-4.2523,-4.2023,-4.1481,-4.0896,-4.1313,-4.2203,-4.2203,-4.2752,-4.3497,-4.3497,-4.3497,-4.3497,-4.3497,-4.3497,-4.3497,-4.3497,-4.3497,-4.3497,-4.3497,-4.3497,-4.3497,-4.3497,-4.3497,-4.3497,-4.3497,-4.3497,-4.3497,-4.3497,-4.3497,-4.3497,-4.3497,-4.3497,-4.3497,-4.3497,-4.3497,-4.3497,-4.3497,-4.3002,-4.2635,-4.2635,-4.1937,-4.1368,-4.113,-4.0579,-4.023,-4.023,-4.023,-4.023,-4.023,-4.1213,-4.179,-4.179,-4.2894,-4.3498,-4.3498,-4.431,-4.4872,-4.5096,-4.5201,-4.5362,-4.5586,-4.5586,-4.5586,0.0,0.0,-2.8697,-2.9385,-3.1016,-3.2946,-3.5027,-3.4942,-3.4912,-3.646,-3.5592,-3.4851,-3.5673,-3.4632,-3.4091,-3.5455,-3.5064,-3.5074,-3.6461,-3.6086,-3.59,-3.6552,-3.6055,-3.5645,0.0,-3.689,-3.7822,-3.7806,-3.7806,-3.8513,-4.0018,-4.0833,-4.1519,-4.2153,-4.297,-4.2909,-4.2062,-4.2909,-4.3366,-4.3366,-4.4196,-4.4587,-4.4587,-4.4587,-4.4587,-4.4587,-4.4587,-4.3724,-4.232,-4.2303,-4.1476,-4.0155,-4.0121,-4.0449,-4.0949,-4.0949,-4.2009,-4.3497,-4.3497,-4.3497,-4.3497,-4.3497,-4.3497,-4.3497,-4.3497,-4.3497,-4.3497,-4.3497,-4.3497,-4.3497,-4.3497,-4.3497,-4.3497,-4.3497,-4.3497,-4.3497,-4.3497,-4.3497,-4.3497,-4.3497,-4.3497,-4.3497,-4.3497,-4.3497,-4.3497,-4.3497,-4.3461,-4.3442,-4.3442,-4.2763,-4.1974,-4.1185,-4.1093,-4.1075,-4.1075,-4.1075,-4.1075,-4.1075,-4.1827,-4.2301,-4.2301,-4.3354,-4.396,-4.396,-4.4713,-4.5096,-4.5096,-4.5419,-4.5586,-4.5586,-4.5586,-4.5586,0.0,0.0,-2.929,-3.0891,-3.2086,-3.3171,-3.4286,-3.4535,-3.4307,-3.3815,-3.3051,-3.2615,-3.292,-3.2503,-3.2601,-3.397,-3.436,-3.4823,-3.574,-3.5304,-3.4955,-3.5182,-3.5001,0.0,0.0,0.0,0.0,-3.698,-3.7024,-3.7638,-3.9166,-3.9936,-4.0647,-4.1329,-4.2024,-4.2332,-4.1997,-4.2847,-4.3306,-4.3306,-4.4196,-4.4587,-4.4587,-4.4587,-4.4587,-4.4587,-4.4587,-4.3995,-4.2997,-4.2489,-4.1711,-4.0781,-4.0273,-4.0417,-4.0903,-4.0903,-4.1516,-4.2444,-4.2846,-4.3214,-4.3497,-4.3497,-4.3497,-4.3497,-4.3497,-4.3497,-4.3497,-4.3497,-4.3497,-4.3497,-4.3497,-4.3497,-4.3497,-4.3497,-4.3497,-4.3497,-4.3497,-4.3497,-4.3497,-4.3497,-4.3497,-4.3497,-4.3497,-4.3497,-4.3497,-4.3497,-4.3497,-4.3497,-4.3497,-4.3259,-4.2983,-4.2708,-4.2213,-4.1901,-4.1901,-4.1901,-4.1901,-4.1901,-4.2653,-4.3094,-4.3094,-4.345,-4.3679,-4.3679,-4.3912,-4.4165,-4.4354,-4.4489,-4.4688,-4.4943,-4.4943,-4.4943,0.0,-2.8651,-2.9755,-3.1457,-3.2429,-3.2993,-3.3164,-3.3206,-3.278,-3.1082,-3.0379,-2.998,-2.9799,-2.9744,-3.0432,-3.2467,-3.3155,-3.3903,-3.531,-3.4906,-3.4562,-3.4816,-3.4622,-3.4562,0.0,0.0,0.0,-3.6165,-3.6228,-3.6987,-3.8697,-3.9217,-3.9898,-4.0798,-4.1306,-4.1412,-4.1095,-4.1933,-4.2707,-4.3306,-4.4196,-4.4587,-4.4587,-4.4587,-4.4587,-4.4553,-4.4282,-4.3724,-4.2963,-4.2202,-4.1457,-4.0747,-4.0273,-4.0336,-4.0607,-4.0607,-4.0984,-4.1656,-4.244,-4.2939,-4.325,-4.3444,-4.3497,-4.3497,-4.3497,-4.3497,-4.3497,-4.3497,-4.3497,-4.3497,-4.3497,-4.3497,-4.3497,-4.3497,-4.3497,-4.3497,-4.3497,-4.3497,-4.3497,-4.3497,-4.3497,-4.3497,-4.3497,-4.3497,-4.3497,-4.3497,-4.3497,-4.3497,-4.3497,-4.3497,-4.3497,-4.3497,-4.3039,-4.2727,-4.2727,-4.2727,-4.2727,-4.2727,-4.3204,-4.3497,-4.3497,-4.3497,-4.3497,-4.3497,-4.3631,-4.3772,-4.4016,-4.4146,-4.4364,-4.458,-4.458,-4.458,-2.7721,-2.8753,-3.0008,-3.1254,-3.2011,-3.2329,-3.1792,-3.1279,-3.0331,-2.8483,-2.7655,-2.7111,0.0,0.0,-2.7599,-3.0839,-3.1497,-3.2482,-3.5145,-3.4936,-3.4771,0.0,0.0,0.0,0.0,0.0,0.0,-3.5594,0.0,-3.6466,-3.8518,-3.8691,-3.9245,-4.0576,-4.0622,-4.0255,-3.9424,-4.0309,-4.1609,-4.3246,-4.4121,-4.4514,-4.4457,-4.4514,-4.4497,-4.4412,-4.3741,-4.2963,-4.2185,-4.1491,-4.0764,-4.007,-4.007,-4.007,-4.007,-4.007,-4.0434,-4.1111,-4.2221,-4.2616,-4.2732,-4.3286,-4.3444,-4.3444,-4.3479,-4.3497,-4.3497,-4.3497,-4.3497,-4.3497,-4.3497,-4.3497,-4.3497,-4.3497,-4.3497,-4.3497,-4.3497,-4.3497,-4.3497,-4.3497,-4.3497,-4.3497,-4.3497,-4.3497,-4.3497,-4.3497,-4.3497,-4.3497,-4.3497,-4.3497,-4.3497,-4.3497,-4.3497,-4.3497,-4.3497,-4.3497,-4.3497,-4.3497,-4.3497,-4.3497,-4.3497,-4.3497,-4.3497,-4.3497,-4.3804,-4.3986,-4.3986,-4.4364,-4.4527,-4.4527,-4.4527,-4.4527,-2.8505,-2.9446,-3.0259,-3.1135,-3.1109,-3.0833,-3.0218,-2.9531,-2.8304,-2.5805,-2.464,-2.4014,-2.3869,0.0,0.0,-2.9645,-3.1719,0.0,-3.5265,-3.5355,0.0,0.0,0.0,-3.5504,-3.6178,-3.6237,0.0,0.0,-3.6492,-3.67,-3.7684,-3.8197,-3.8847,-3.9707,-3.9737,-3.961,-3.9424,-4.0894,-4.1869,-4.2332,-4.3229,-4.329,-4.2707,-4.3366,-4.3322,-4.285,-4.3211,-4.2675,-4.1474,-4.1288,-4.0764,-4.007,-4.007,-4.007,-4.007,-4.007,-4.0221,-4.0434,-4.1105,-4.1664,-4.2121,-4.2714,-4.2902,-4.2976,-4.3375,-4.3497,-4.3497,-4.3497,-4.3497,-4.3497,-4.3497,-4.3497,-4.3497,-4.3497,-4.3497,-4.3497,-4.3497,-4.3497,-4.3497,-4.3497,-4.3497,-4.3497,-4.3497,-4.3497,-4.3497,-4.3497,-4.3497,-4.3497,-4.3497,-4.3497,-4.3497,-4.3497,-4.3497,-4.3497,-4.3497,-4.3497,-4.3497,-4.3497,-4.3497,-4.3497,-4.3497,-4.3497,-4.3497,-4.3497,-4.3597,-4.3631,-4.3612,-4.3744,-4.3758,-4.3758,-4.3758,-4.3758,-2.8873,-2.9507,-3.0083,-3.0467,-3.0132,-2.937,-2.8084,-2.7091,-2.5621,-2.2877,-2.1714,0.0,-2.1234,0.0,0.0,0.0,0.0,0.0,-3.4786,-3.531,-3.5504,0.0,-3.5759,0.0,-3.6447,-3.6731,-3.7045,0.0,-3.709,-3.7165,-3.7808,-3.8197,-3.8706,-3.9394,-3.9424,-3.9424,-3.9424,-4.0758,-4.1412,-4.1412,-4.2316,-4.2458,-4.2062,-4.2909,-4.2911,-4.2244,0.0,-4.2269,-4.117,-4.0849,-4.046,-4.007,-4.007,-4.007,-4.007,-4.007,-4.007,-4.0171,-4.0449,-4.075,-4.1196,-4.2038,-4.2302,-4.2382,-4.2657,-4.2772,-4.2772,-4.2772,-4.2772,-4.2772,-4.2772,-4.2958,-4.3142,-4.3142,-4.3339,-4.3497,-4.3497,-4.3497,-4.3497,-4.3497,-4.3497,-4.3497,-4.3497,-4.3497,-4.3497,-4.3497,-4.3497,-4.3497,-4.3497,-4.3497,-4.3497,-4.3497,-4.3497,-4.3497,-4.3497,-4.3497,-4.3497,-4.3497,-4.3497,-4.3497,-4.3497,-4.3497,-4.3497,-4.3497,-4.3497,-4.3497,-4.3497,-4.3497,-4.3497,-4.3497,-4.3497,-4.3497,-2.9012,-2.9415,-2.9779,-2.9691,-2.9189,-2.8122,-2.5887,-2.4494,-2.2887,-2.015,0.0,-1.8799,-1.8861,0.0,-2.2857,-2.6156,0.0,-3.133,-3.4083,-3.4996,-3.54,-3.5489,-3.6088,-3.6522,-3.6596,-3.7165,-3.7584,-3.7674,-3.7674,-3.7883,-3.8362,-3.8482,-3.8796,-3.9394,-3.9424,-3.9424,-3.9424,-4.0239,-4.0622,-4.0569,-4.1412,-4.1739,-4.1674,-4.2564,-4.2567,-4.1904,-4.2059,0.0,-4.1001,-4.0341,-4.007,-4.007,-4.007,-4.007,-4.007,-4.007,-4.007,-4.007,-4.007,-4.007,-4.0254,-4.1331,-4.1664,-4.1725,-4.1768,-4.181,-4.181,-4.181,-4.181,-4.181,-4.181,-4.2262,-4.2711,-4.2711,-4.3105,-4.3497,-4.3497,-4.3497,-4.3497,-4.3497,-4.3497,-4.3497,-4.3497,-4.3497,-4.3497,-4.3497,-4.3497,-4.3497,-4.3497,-4.3497,-4.3497,-4.3497,-4.3497,-4.3497,-4.3497,-4.3497,-4.3497,-4.3497,-4.3497,-4.3497,-4.3497,-4.3497,-4.3497,-4.3497,-4.3497,-4.3497,-4.3497,-4.3497,-4.3497,-4.3497,-4.3497,-4.3497,-2.9441,-2.9716,-2.9679,-2.9202,-2.831,-2.6992,-2.4782,-2.305,0.0,0.0,0.0,-1.7664,-1.7623,-1.962,0.0,-2.5473,0.0,0.0,0.0,0.0,-3.4861,0.0,0.0,0.0,0.0,0.0,0.0,0.0,0.0,-3.8871,-3.8407,-3.8931,-3.929,-3.9424,-3.9424,-3.9424,-3.9424,-4.0239,-4.0378,-3.961,-4.05,-4.0569,-3.9849,-4.0844,-4.089,-4.0228,-4.1055,0.0,-4.0257,-4.0121,-4.007,-4.007,-4.007,-4.007,-4.007,-4.007,-4.007,-4.007,-4.007,-4.007,-4.0204,-4.0827,-4.1041,-4.1133,-4.1664,-4.181,-4.181,-4.181,-4.181,-4.181,-4.181,-4.2262,-4.2711,-4.2711,-4.3105,-4.3497,-4.3497,-4.3497,-4.3497,-4.3497,-4.3497,-4.3497,-4.3497,-4.3497,-4.3497,-4.3497,-4.3497,-4.3497,-4.3497,-4.3497,-4.3497,-4.3497,-4.3497,-4.3497,-4.3497,-4.3497,-4.3497,-4.3497,-4.3497,-4.3497,-4.3497,-4.3497,-4.3497,-4.3497,-4.3497,-4.3497,-4.3497,-4.3497,-4.3497,-4.3497,-4.3497,-4.3497,-2.9189,-2.9566,-2.9654,-2.9076,-2.7883,-2.6201,-2.369,0.0,0.0,0.0,0.0,-1.701,-1.724,0.0,0.0,0.0,0.0,0.0,0.0,0.0,0.0,0.0,0.0,0.0,0.0,0.0,0.0,0.0,0.0,-3.9275,-3.8945,-3.9245,-3.9424,-3.9424,-3.9424,-3.9424,-3.9424,-3.9793,-3.9793,-3.9424,-3.9793,-3.9612,-3.8942,-4.03,-4.032,-3.9342,-4.065,0.0,-4.007,-4.007,-4.007,-4.007,-4.007,-4.007,-4.007,-4.007,-4.007,-4.007,-4.007,-4.007,-4.0171,-4.0417,-4.0497,-4.0546,-4.0814,-4.0908,-4.0908,-4.0908,-4.0908,-4.0908,-4.0908,-4.1331,-4.175,-4.175,-4.2444,-4.3014,-4.2696,-4.3069,-4.341,-4.3142,-4.3286,-4.3497,-4.3497,-4.3497,-4.3497,-4.3497,-4.3497,-4.3497,-4.3497,-4.3497,-4.3497,-4.3497,-4.3497,-4.3497,-4.3497,-4.3497,-4.3497,-4.3497,-4.3497,-4.3497,-4.3497,-4.3497,-4.3497,-4.3497,-4.3497,-4.3497,-4.3497,-4.3497,-4.3497,-4.3497,-4.3497,-4.3497,-2.8863,-2.9352,-2.9628,-2.8925,-2.7507,-2.5548,-2.2761,-2.084,0.0,0.0,-1.6522,-1.668,-1.7188,0.0,0.0,0.0,0.0,0.0,0.0,0.0,0.0,0.0,0.0,0.0,0.0,0.0,0.0,0.0,0.0,0.0,-3.9185,-3.9065,-3.899,-3.899,-3.899,-3.899,-3.899,-3.899,-3.899,-3.899,-3.899,-3.8706,-3.8237,-3.9573,-3.9594,-3.8607,-3.9919,0.0,0.0,-3.9833,-3.9952,-4.007,-4.007,-4.007,-4.007,-4.007,-4.007,-4.007,-4.007,-4.007,-4.007,-4.007,-4.007,-4.007,-4.007,-4.007,-4.007,-4.007,-4.007,-4.007,-4.007,-4.0497,-4.0949,-4.1041,-4.181,-4.24,-4.1895,-4.2523,-4.2995,-4.2598,-4.2846,-4.3142,-4.3142,-4.3142,-4.3196,-4.3286,-4.3339,-4.3375,-4.3497,-4.3497,-4.3497,-4.3497,-4.3497,-4.3497,-4.3497,-4.3497,-4.3497,-4.3497,-4.3497,-4.3497,-4.3497,-4.3497,-4.3497,-4.3497,-4.3497,-4.3497,-4.3497,-4.3497,-4.3497,-4.3497,-4.3497,-4.3497,-2.8662,-2.9352,-2.9528,-2.8448,-2.6917,-2.4958,-2.2196,0.0,0.0,-1.6873,-1.6522,-1.668,-1.7188,-1.7842,0.0,0.0,0.0,0.0,0.0,0.0,0.0,0.0,0.0,0.0,0.0,0.0,0.0,0.0,0.0,0.0,-3.8452,-3.7913,-3.7599,-3.7599,-3.7599,-3.7599,-3.7599,-3.7599,-3.7599,-3.7599,-3.7599,-3.7554,-3.7479,-3.7797,-3.7809,-3.7717,-3.7998,0.0,0.0,-3.9016,-3.9437,-4.007,-4.007,-4.007,-4.007,-4.007,-4.007,-4.007,-4.007,-4.007,-4.007,-4.007,-4.007,-4.007,-4.007,-4.007,-4.007,-4.007,-4.007,-4.007,-4.007,-4.0497,-4.1041,-4.1578,-4.181,-4.1853,-4.181,-4.1877,-4.1919,-4.1895,-4.1937,-4.1979,-4.1979,-4.1979,-4.2144,-4.2693,-4.2788,-4.2939,-4.3444,-4.3497,-4.3497,-4.3497,-4.3497,-4.3497,-4.3497,-4.3497,-4.3497,-4.3497,-4.3497,-4.3497,-4.3497,-4.3497,-4.3497,-4.3497,-4.3497,-4.3497,-4.3497,-4.3497,-4.3497,-4.3497,-4.3497,-4.3497,-2.7143,-2.8097,-2.8586,-2.7808,-2.6113,-2.4079,-2.197,0.0,-1.8141,-1.6798,-1.6522,-1.668,-1.7188,-1.7463,-1.8181,0.0,-2.0707,-2.2395,0.0,0.0,0.0,0.0,0.0,0.0,0.0,0.0,0.0,0.0,0.0,0.0,-3.7225,-3.7345,-3.7404,-3.7404,-3.7404,-3.7404,-3.7404,-3.7404,-3.7404,-3.7404,-3.7404,-3.721,-3.6903,-3.7394,-3.7405,-3.7064,-3.7583,0.0,0.0,-3.8908,-3.9368,-4.007,-4.007,-4.007,-4.007,-4.007,-4.007,-4.007,-4.007,-4.007,-4.007,-4.007,-4.007,-4.007,-4.007,-4.007,-4.007,-4.007,-4.007,-4.007,-4.007,-4.0237,-4.0497,-4.072,-4.1013,-4.1178,-4.0861,-4.1331,-4.1707,-4.1313,-4.1534,-4.181,-4.181,-4.181,-4.1895,-4.2121,-4.2162,-4.2382,-4.2921,-4.3014,-4.3142,-4.3463,-4.3497,-4.3497,-4.3497,-4.3497,-4.3497,-4.3497,-4.3497,-4.3497,-4.3497,-4.3497,-4.3497,-4.3497,-4.3497,-4.3497,-4.3497,-4.3497,-4.3497,-4.3497,-4.3497,-4.3497,-2.5674,-2.6779,-2.7482,-2.6929,-2.5247,-2.3301,0.0,0.0,-1.789,-1.6748,-1.6522,-1.668,-1.7188,-1.7422,-1.7842,0.0,-1.938,-2.0805,-2.3841,0.0,0.0,0.0,0.0,0.0,0.0,0.0,0.0,0.0,0.0,0.0,0.0,-3.6611,-3.6851,-3.6851,-3.6851,-3.6851,-3.6851,-3.6851,-3.6851,-3.6851,-3.6851,-3.6626,-3.6193,-3.6755,-3.672,-3.6337,-3.6874,0.0,0.0,-3.858,-3.9156,-4.007,-4.007,-4.007,-4.007,-4.007,-4.007,-4.007,-4.007,-4.007,-4.007,-4.007,-4.007,-4.007,-4.007,-4.007,-4.007,-4.007,-4.007,-4.007,-4.007,-4.007,-4.007,-4.007,-4.0368,-4.0577,-4.0154,-4.072,-4.115,-4.075,-4.103,-4.1286,-4.1286,-4.1286,-4.1375,-4.149,-4.1534,-4.181,-4.2616,-4.2711,-4.2902,-4.3444,-4.3497,-4.3497,-4.3497,-4.3497,-4.3497,-4.3497,-4.3497,-4.3497,-4.3497,-4.3497,-4.3497,-4.3497,-4.3497,-4.3497,-4.3497,-4.3497,-4.3497,-4.3497,-4.3497,-4.3497,-2.4531,-2.5636,-2.6339,-2.5762,-2.4368,-2.2711,0.0,-1.9397,-1.789,-1.6748,-1.6522,-1.668,-1.7188,-1.7747,-1.8263,-1.8817,-2.0474,-2.2592,-2.5226,0.0,0.0,0.0,0.0,0.0,0.0,0.0,0.0,0.0,0.0,0.0,0.0,-3.5519,-3.5534,-3.5534,-3.5534,-3.5534,-3.5534,-3.5534,-3.5534,-3.5534,-3.5534,-3.5519,-3.5519,-3.5519,-3.5519,0.0,0.0,0.0,0.0,-3.7806,-3.8723,-4.007,-4.007,-4.007,-4.007,-4.007,-4.007,-4.007,-4.007,-4.007,-4.007,-4.007,-4.007,-4.007,-4.007,-4.007,-4.007,-4.007,-4.007,-4.007,-4.007,-4.007,-4.007,-4.007,-4.0121,-4.0121,-4.007,-4.0121,-4.0138,-4.0121,-4.0121,-4.0121,-4.0121,-4.0121,-4.0286,-4.0827,-4.0903,-4.1358,-4.2537,-4.2711,-4.2902,-4.3444,-4.3497,-4.3497,-4.3497,-4.3497,-4.3497,-4.3497,-4.3497,-4.3497,-4.3497,-4.3497,-4.3497,-4.3497,-4.3497,-4.3497,-4.3497,-4.3497,-4.3497,-4.3497,-4.3497,-4.3497,-2.1681,-2.251,-2.3025,-2.2836,-2.182,-2.0627,-1.9748,-1.8555,-1.7426,-1.6672,-1.6522,-1.6552,-1.671,-1.7188,-1.8194,-2.0077,-2.1197,0.0,0.0,0.0,0.0,0.0,0.0,0.0,0.0,0.0,0.0,0.0,0.0,0.0,0.0,-3.5504,-3.5504,-3.5504,-3.5504,-3.5504,-3.5504,-3.5504,-3.5504,-3.5504,-3.5504,-3.5504,-3.5504,-3.5504,-3.5504,0.0,0.0,0.0,0.0,-3.7822,-3.8723,-4.007,-4.007,-4.007,-4.007,-4.007,-4.007,-4.007,-4.007,-4.007,-4.007,-4.007,-4.007,-4.007,-4.007,-4.007,-4.007,-4.007,-4.007,-4.007,-4.007,-4.007,-4.007,-4.007,-4.007,-4.007,-4.007,-4.007,-4.007,-4.007,-4.007,-4.007,-4.007,-4.007,-4.0171,-4.0336,-4.0655,-4.1178,-4.1979,-4.244,-4.2902,-4.3444,-4.3497,-4.3497,-4.3497,-4.3497,-4.3497,-4.3497,-4.3497,-4.3497,-4.3497,-4.3497,-4.3497,-4.3497,-4.3497,-4.3497,-4.3497,-4.3497,-4.3497,-4.3497,-4.3497,-4.3497,0.0,-2.0288,-2.0853,-2.0853,-2.0175,-1.9371,-1.8844,-1.8028,-1.7212,-1.6635,-1.6522,-1.6522,-1.6522,-1.7118,-1.8112,-1.971,0.0,0.0,0.0,0.0,0.0,0.0,0.0,0.0,0.0,0.0,0.0,0.0,0.0,0.0,0.0,-3.5504,-3.5504,-3.5504,-3.5504,-3.5504,-3.5504,-3.5504,-3.5504,-3.5504,-3.5504,-3.5504,-3.5504,-3.5504,-3.5504,0.0,0.0,0.0,0.0,-3.7822,-3.8723,-4.007,-4.007,-4.007,-4.007,-4.007,-4.007,-4.007,-4.007,-4.007,-4.007,-4.007,-4.007,-4.007,-4.007,-4.007,-4.007,-4.007,-4.007,-4.007,-4.007,-4.007,-4.007,-4.007,-4.007,-4.007,-4.007,-4.007,-4.007,-4.007,-4.007,-4.007,-4.007,-4.007,-4.007,-4.007,-4.0577,-4.1133,-4.1707,-4.2342,-4.2902,-4.3444,-4.3497,-4.3497,-4.3497,-4.3497,-4.3497,-4.3497,-4.3497,-4.3497,-4.3497,-4.3497,-4.3497,-4.3497,-4.3497,-4.3497,-4.3497,-4.3497,-4.3497,-4.3497,-4.3497,-4.3497,0.0,-1.8656,-1.9447,-1.9447,-1.9095,-1.8606,-1.8141,-1.7626,0.0,-1.6622,-1.6522,-1.6534,-1.6665,-1.7447,-1.8149,-1.8531,0.0,0.0,0.0,0.0,0.0,0.0,0.0,0.0,0.0,0.0,0.0,0.0,0.0,0.0,0.0,-3.5504,-3.5504,-3.5504,-3.5504,-3.5504,-3.5504,-3.5504,-3.5504,-3.5504,-3.5504,-3.5504,-3.5504,-3.5504,-3.5504,0.0,0.0,0.0,0.0,-3.769,-3.8596,-3.9952,-3.9952,-3.9952,-3.9952,-3.9952,-3.9969,-4.002,-4.002,-4.007,-4.007,-4.007,-4.007,-4.007,-4.007,-4.007,-4.007,-4.007,-4.007,-4.007,-4.007,-4.007,-4.007,-4.007,-4.007,-4.007,-4.007,-4.007,-4.007,-4.007,-4.007,-4.007,-4.007,-4.007,-4.007,-4.007,-4.0577,-4.1087,-4.1664,-4.2244,-4.2808,-4.3321,-4.3356,-4.341,-4.3444,-4.3479,-4.3497,-4.3497,-4.3497,-4.3497,-4.3497,-4.3497,-4.3497,-4.3497,-4.3497,-4.3497,-4.3497,-4.3497,-4.3497,-4.3497,-4.3497,-4.3497,-1.4916,0.0,-1.6032,-1.6032,-1.5944,-1.5932,0.0,-1.6183,-1.617,0.0,0.0,-1.6946,-1.8367,-1.8004,-1.8767,0.0,0.0,0.0,0.0,0.0,0.0,0.0,0.0,0.0,0.0,0.0,0.0,0.0,0.0,0.0,0.0,-3.5504,-3.5504,-3.5504,-3.5504,-3.5504,-3.5504,-3.5504,-3.5504,-3.5504,-3.5504,-3.5504,-3.5504,-3.5504,-3.5504,0.0,0.0,0.0,-3.6904,-3.6904,-3.744,-3.8318,-3.8318,-3.8318,-3.8318,-3.8318,-3.8707,-3.9193,-3.9193,-3.9594,-4.007,-4.007,-4.007,-4.007,-4.007,-4.007,-4.007,-4.007,-4.007,-4.007,-4.007,-4.007,-4.007,-4.007,-4.007,-4.007,-4.007,-4.007,-4.007,-4.007,-4.007,-4.007,-4.007,-4.007,-4.007,-4.007,-4.0577,-4.0949,-4.1087,-4.1621,-4.2062,-4.2185,-4.2185,-4.2404,-4.2864,-4.325,-4.3497,-4.3497,-4.3497,-4.3497,-4.3497,-4.3497,-4.3497,-4.3497,-4.3497,-4.3497,-4.3497,-4.3497,-4.3497,-4.3497,-4.3497,-4.3497,-1.3672,-1.4626,-1.563,-1.563,-1.5831,-1.6095,-1.6396,0.0,0.0,0.0,0.0,0.0,-1.7821,0.0,0.0,0.0,0.0,0.0,0.0,0.0,0.0,0.0,0.0,0.0,0.0,0.0,0.0,0.0,0.0,0.0,0.0,-3.5504,-3.5504,-3.5504,-3.5504,-3.5504,-3.5504,-3.5504,-3.5504,-3.5504,-3.5504,-3.5504,-3.5504,-3.5504,-3.5504,0.0,0.0,0.0,-3.6615,-3.6615,-3.7084,-3.7822,-3.7822,-3.7822,-3.7822,-3.7822,-3.8262,-3.8908,-3.8908,-3.9437,-4.007,-4.007,-4.007,-4.007,-4.007,-4.007,-4.007,-4.007,-4.007,-4.007,-4.007,-4.007,-4.007,-4.007,-4.007,-4.007,-4.007,-4.007,-4.007,-4.007,-4.007,-4.007,-4.007,-4.007,-4.007,-4.007,-4.0577,-4.0903,-4.0903,-4.1446,-4.181,-4.181,-4.181,-4.1937,-4.2262,-4.2562,-4.294,-4.3479,-4.3497,-4.3497,-4.3497,-4.3497,-4.3497,-4.3497,-4.3497,-4.3497,-4.3497,-4.3497,-4.3497,-4.3497,-4.3497,-4.3699,-1.3398,-1.4989,-1.6572,-1.622,-1.6635,-1.7124,-1.7124,0.0,0.0,0.0,0.0,0.0,0.0,0.0,0.0,0.0,0.0,0.0,0.0,0.0,0.0,0.0,0.0,0.0,0.0,0.0,0.0,0.0,0.0,0.0,-3.5504,-3.5504,-3.5504,-3.5504,-3.5504,-3.5504,-3.5504,-3.5504,-3.5504,-3.5504,-3.5504,-3.5504,-3.5504,-3.5504,-3.5504,-3.5504,0.0,0.0,-3.6446,-3.6446,-3.6798,-3.7472,-3.7472,-3.7472,-3.7472,-3.7472,-3.7962,-3.8745,-3.9016,-3.9542,-4.007,-4.007,-4.007,-4.007,-4.007,-4.007,-4.007,-4.007,-4.007,-4.007,-4.007,-4.007,-4.007,-4.007,-4.007,-4.007,-4.007,-4.007,-4.007,-4.007,-4.007,-4.007,-4.007,-4.007,-4.007,-4.007,-4.0497,-4.078,-4.078,-4.1223,-4.1552,-4.1552,-4.1552,-4.1578,-4.1664,-4.1664,-4.2126,-4.3286,-4.3375,-4.341,-4.3497,-4.3497,-4.3497,-4.3497,-4.3497,-4.3497,-4.3497,-4.3497,-4.3497,-4.3497,-4.3497,-4.392,-1.4375,-1.5906,-1.6798,-1.4941,-1.523,-1.5957,-1.5957,0.0,0.0,0.0,0.0,0.0,0.0,0.0,0.0,0.0,0.0,0.0,0.0,0.0,0.0,0.0,0.0,0.0,0.0,0.0,0.0,0.0,0.0,0.0,-3.5504,-3.5504,-3.5504,-3.5504,-3.5504,-3.5504,-3.5504,-3.5504,-3.5504,-3.5504,-3.5504,-3.5504,-3.5504,-3.5504,-3.5504,-3.5504,0.0,-3.5554,-3.5668,-3.5668,-3.5733,-3.5846,-3.5846,-3.5846,-3.5846,-3.5846,-3.6784,-3.8149,-3.9437,-4.002,-4.007,-4.007,-4.007,-4.007,-4.007,-4.007,-4.007,-4.007,-4.007,-4.007,-4.007,-4.007,-4.007,-4.007,-4.007,-4.007,-4.007,-4.007,-4.007,-4.007,-4.007,-4.007,-4.007,-4.007,-4.007,-4.007,-4.0154,-4.0204,-4.0204,-4.0286,-4.0336,-4.0336,-4.0336,-4.0546,-4.0995,-4.1041,-4.1534,-4.2732,-4.2826,-4.3014,-4.3479,-4.3497,-4.3497,-4.3497,-4.3497,-4.3497,-4.3497,-4.3497,-4.3497,-4.3497,-4.3497,-4.392,-1.3848,-1.5203,-1.6296,-1.5567,-1.6898,-1.8304,-1.799,0.0,0.0,0.0,0.0,0.0,0.0,0.0,0.0,0.0,0.0,0.0,0.0,0.0,0.0,0.0,0.0,0.0,0.0,0.0,0.0,0.0,0.0,0.0,-3.5504,-3.5504,-3.5504,-3.5504,-3.5504,-3.5504,-3.5504,-3.5504,-3.5504,-3.5504,-3.5504,-3.5504,-3.5504,-3.5504,-3.5504,-3.5504,0.0,-3.5504,-3.5504,-3.5504,-3.5504,-3.5504,-3.5504,-3.5504,-3.5619,-3.643,-3.7175,-3.8035,-3.9575,-4.007,-4.007,-4.007,-4.007,-4.007,-4.007,-4.007,-4.007,-4.007,-4.007,-4.007,-4.007,-4.007,-4.007,-4.007,-4.007,-4.007,-4.007,-4.007,-4.007,-4.007,-4.007,-4.007,-4.007,-4.007,-4.007,-4.007,-4.007,-4.007,-4.007,-4.007,-4.007,-4.007,-4.007,-4.0204,-4.0449,-4.0449,-4.1122,-4.2616,-4.2976,-4.325,-4.3479,-4.3497,-4.3497,-4.3497,-4.3497,-4.3497,-4.3497,-4.3497,-4.3497,-4.3497,-4.3497,-4.392,-1.3546,-1.4726,-1.6019,-1.6584,0.0,-1.9963,-1.9987,0.0,0.0,0.0,0.0,0.0,0.0,0.0,0.0,0.0,0.0,0.0,0.0,0.0,0.0,0.0,0.0,0.0,0.0,0.0,0.0,0.0,0.0,0.0,-3.5504,-3.5504,-3.5504,-3.5504,-3.5504,-3.5504,-3.5504,-3.5504,-3.5504,-3.5504,-3.5504,-3.5504,-3.5504,-3.5504,-3.5504,-3.5504,-3.5504,-3.5504,-3.5504,-3.5504,-3.5504,-3.5504,-3.5504,-3.5504,-3.5683,-3.6995,-3.7632,-3.7978,-3.9332,-3.9952,-4.007,-4.007,-4.007,-4.007,-4.007,-4.007,-4.007,-4.007,-4.007,-4.007,-4.007,-4.007,-4.007,-4.007,-4.007,-4.007,-4.007,-4.007,-4.007,-4.007,-4.007,-4.007,-4.007,-4.007,-4.007,-4.007,-4.007,-4.007,-4.007,-4.007,-4.007,-4.007,-4.007,-4.007,-4.007,-4.0204,-4.0861,-4.2203,-4.3032,-4.3497,-4.3497,-4.3497,-4.3497,-4.3497,-4.3497,-4.3497,-4.3497,-4.3497,-4.3497,-4.3497,-4.3497,-4.392,-1.4475,-1.558,-1.6597,-1.7174,0.0,0.0,-2.0202,0.0,0.0,0.0,0.0,0.0,0.0,0.0,0.0,0.0,0.0,0.0,0.0,0.0,0.0,0.0,0.0,0.0,0.0,0.0,0.0,0.0,0.0,0.0,-3.5504,-3.5504,-3.5504,-3.5504,-3.5504,-3.5504,-3.5504,-3.5504,-3.5504,-3.5504,-3.5504,-3.5504,-3.5504,-3.5504,-3.5504,-3.5504,-3.5504,-3.5504,-3.5504,-3.5504,-3.5504,-3.5504,-3.5504,-3.5504,-3.5619,-3.6384,-3.7144,-3.7921,-3.869,-3.9489,-4.007,-4.007,-4.007,-4.007,-4.007,-4.007,-4.007,-4.007,-4.007,-4.007,-4.007,-4.007,-4.007,-4.007,-4.007,-4.007,-4.007,-4.007,-4.007,-4.007,-4.007,-4.007,-4.007,-4.007,-4.007,-4.007,-4.007,-4.007,-4.007,-4.007,-4.007,-4.007,-4.007,-4.007,-4.007,-4.0577,-4.092,-4.1041,-4.2582,-4.3497,-4.3497,-4.3497,-4.3497,-4.3497,-4.3497,-4.3497,-4.3497,-4.3497,-4.3497,-4.3497,-4.3497,-4.392,-1.3747,-1.5153,-1.666,-1.7237,0.0,0.0,0.0,0.0,0.0,0.0,0.0,0.0,0.0,0.0,0.0,0.0,0.0,0.0,0.0,0.0,0.0,0.0,0.0,0.0,0.0,0.0,0.0,0.0,0.0,0.0,0.0,-3.5504,-3.5504,-3.5504,-3.5504,-3.5504,-3.5504,-3.5504,-3.5504,-3.5504,-3.5504,-3.5504,-3.5504,-3.5504,-3.5504,-3.5504,-3.5504,-3.5504,-3.5504,-3.5504,-3.5504,-3.5504,-3.5504,-3.5504,-3.5619,-3.6337,-3.6783,-3.7144,-3.7962,-3.8707,-3.9368,-3.9368,-3.9662,-4.007,-4.007,-4.007,-4.007,-4.007,-4.007,-4.007,-4.007,-4.007,-4.007,-4.007,-4.007,-4.007,-4.007,-4.007,-4.007,-4.007,-4.007,-4.007,-4.007,-4.007,-4.007,-4.007,-4.007,-4.007,-4.007,-4.007,-4.007,-4.007,-4.007,-4.007,-4.007,-4.0577,-4.0903,-4.0903,-4.186,-4.2426,-4.2426,-4.2426,-4.2426,-4.2426,-4.2426,-4.2426,-4.2426,-4.2426,-4.2619,-4.3014,-4.3014,-4.3342,-1.3483,-1.4852,-1.6434,0.0,0.0,0.0,0.0,0.0,0.0,0.0,0.0,0.0,0.0,0.0,0.0,0.0,0.0,0.0,0.0,0.0,0.0,0.0,0.0,0.0,0.0,0.0,0.0,0.0,0.0,0.0,0.0,-3.5504,-3.5504,-3.5504,-3.5504,-3.5504,-3.5504,-3.5504,-3.5504,-3.5504,-3.5504,-3.5504,-3.5504,-3.5504,-3.5504,-3.5504,-3.5504,-3.5504,-3.5504,-3.5504,-3.5504,-3.5504,-3.5504,-3.5504,-3.5554,-3.6054,-3.6384,-3.6676,-3.7219,-3.7905,-3.858,-3.8799,-3.9262,-3.9782,-4.002,-4.007,-4.007,-4.007,-4.007,-4.007,-4.007,-4.007,-4.007,-4.007,-4.007,-4.007,-4.007,-4.007,-4.007,-4.007,-4.007,-4.007,-4.007,-4.007,-4.007,-4.007,-4.007,-4.007,-4.007,-4.007,-4.007,-4.007,-4.007,-4.007,-4.007,-4.0449,-4.0655,-4.0655,-4.1013,-4.1402,-4.181,-4.181,-4.181,-4.181,-4.181,-4.181,-4.181,-4.181,-4.2021,-4.244,-4.2616,-4.2902,-1.4085,-1.4903,-1.5994,0.0,0.0,0.0,0.0,0.0,0.0,0.0,0.0,0.0,0.0,0.0,0.0,0.0,0.0,0.0,0.0,0.0,0.0,0.0,0.0,0.0,0.0,0.0,0.0,0.0,0.0,0.0,0.0,-3.5504,-3.5504,-3.5504,-3.5504,-3.5504,-3.5504,-3.5504,-3.5504,-3.5504,-3.5504,-3.5504,-3.5504,-3.5504,-3.5504,-3.5504,-3.5504,-3.5504,-3.5504,-3.5504,-3.5504,-3.5504,-3.5504,-3.5504,-3.5504,-3.5504,-3.5943,-3.6615,-3.6615,-3.71,-3.7921,-3.8635,-3.8908,-3.9032,-3.985,-4.007,-4.007,-4.007,-4.007,-4.007,-4.007,-4.007,-4.007,-4.007,-4.007,-4.007,-4.007,-4.007,-4.007,-4.007,-4.007,-4.007,-4.007,-4.007,-4.007,-4.007,-4.007,-4.007,-4.007,-4.007,-4.007,-4.007,-4.007,-4.007,-4.007,-4.007,-4.007,-4.007,-4.007,-4.0594,-4.1768,-4.1793,-4.1793,-4.1793,-4.1793,-4.1793,-4.1793,-4.1793,-4.181,-4.181,-4.24,-4.2693,-1.4186,-1.5759,0.0,0.0,0.0,0.0,0.0,0.0,0.0,0.0,0.0,0.0,0.0,0.0,0.0,0.0,0.0,0.0,0.0,0.0,0.0,0.0,0.0,0.0,0.0,0.0,0.0,0.0,0.0,0.0,0.0,-3.5504,-3.5504,-3.5504,-3.5504,-3.5504,-3.5504,-3.5504,-3.5504,-3.5504,-3.5504,-3.5504,-3.5504,-3.5504,-3.5504,-3.5504,-3.5504,-3.5504,-3.5504,-3.5504,-3.5504,-3.5504,-3.5504,-3.5504,-3.5504,-3.5504,-3.5619,-3.5846,-3.5846,-3.6352,-3.71,-3.7847,-3.8469,-3.9032,-3.985,-4.007,-4.007,-4.007,-4.007,-4.007,-4.007,-4.007,-4.007,-4.007,-4.007,-4.007,-4.007,-4.007,-4.007,-4.007,-4.007,-4.007,-4.007,-4.007,-4.007,-4.007,-4.007,-4.007,-4.007,-4.007,-4.007,-4.007,-4.007,-4.007,-4.007,-4.007,-4.007,-4.007,-4.007,-4.0254,-4.0594,-4.0594,-4.0594,-4.0594,-4.0594,-4.0594,-4.0594,-4.0594,-4.0814,-4.1178,-4.181,-4.2302,-1.4979,0.0,0.0,0.0,0.0,0.0,0.0,0.0,0.0,0.0,0.0,0.0,0.0,0.0,0.0,0.0,0.0,0.0,0.0,0.0,0.0,0.0,0.0,0.0,0.0,0.0,0.0,0.0,0.0,0.0,0.0,-3.5355,-3.5504,-3.5504,-3.5504,-3.5504,-3.5504,-3.5504,-3.5504,-3.5504,-3.5504,-3.5504,-3.5504,-3.5504,-3.5504,-3.5504,-3.5504,-3.5504,-3.5504,-3.5504,-3.5504,-3.5504,-3.5504,-3.5504,-3.5504,-3.5504,-3.5504,-3.5504,-3.5504,-3.6006,-3.6722,-3.7515,-3.8302,-3.9032,-3.985,-4.007,-4.007,-4.007,-4.007,-4.007,-4.007,-4.007,-4.007,-4.007,-4.007,-4.007,-4.007,-4.007,-4.007,-4.007,-4.007,-4.007,-4.007,-4.007,-4.007,-4.007,-4.007,-4.007,-4.007,-4.007,-4.007,-4.007,-4.007,-4.007,-4.007,-4.007,-4.007,-4.007,-4.007,-4.007,-4.007,-4.007,-4.007,-4.007,-4.007,-4.007,-4.007,-4.007,-4.0254,-4.0625,-4.1402,-4.1979,0.0,0.0,0.0,0.0,0.0,0.0,0.0,0.0,0.0,0.0,0.0,0.0,0.0,0.0,0.0,0.0,0.0,0.0,0.0,0.0,0.0,0.0,0.0,0.0,0.0,0.0,0.0,0.0,0.0,0.0,0.0,-3.504,-3.5415,-3.5415,-3.5474,-3.5504,-3.5504,-3.5504,-3.5504,-3.5504,-3.5504,-3.5504,-3.5504,-3.5504,-3.5504,-3.5504,-3.5504,-3.5504,-3.5504,-3.5504,-3.5504,-3.5504,-3.5504,-3.5504,-3.5504,-3.5504,-3.5504,-3.5504,-3.5504,-3.5943,-3.6615,-3.7456,-3.8133,-3.8854,-3.9662,-3.9901,-3.9901,-3.9952,-4.0003,-4.002,-4.007,-4.007,-4.007,-4.007,-4.007,-4.007,-4.007,-4.007,-4.007,-4.007,-4.007,-4.007,-4.007,-4.007,-4.007,-4.007,-4.007,-4.007,-4.007,-4.007,-4.007,-4.007,-4.007,-4.007,-4.007,-4.007,-4.007,-4.007,-4.007,-4.007,-4.007,-4.007,-4.007,-4.007,-4.007,-4.007,-4.007,-4.007,-4.007,-4.0121,-4.1196,-4.1768,0.0,-1.7325,0.0,0.0,0.0,0.0,0.0,0.0,0.0,0.0,0.0,0.0,0.0,0.0,0.0,0.0,0.0,0.0,0.0,0.0,0.0,0.0,0.0,0.0,0.0,0.0,0.0,0.0,0.0,0.0,-3.3709,-3.4337,-3.4696,-3.4696,-3.522,-3.5504,-3.5504,-3.5504,-3.5504,0.0,-3.5504,-3.5504,-3.5504,-3.5504,-3.5504,-3.5504,-3.5504,-3.5504,-3.5504,-3.5504,-3.5504,-3.5504,-3.5504,-3.5504,-3.5504,-3.5504,-3.5504,-3.5504,-3.5504,-3.5619,-3.5831,-3.6631,-3.6964,-3.7247,-3.8019,-3.8262,-3.843,-3.8978,-3.9139,-3.9315,-3.9952,-4.007,-4.007,-4.007,-4.007,-4.007,-4.007,-4.007,-4.007,-4.007,-4.007,-4.007,-4.007,-4.007,-4.007,-4.007,-4.007,-4.007,-4.007,-4.007,-4.007,-4.007,-4.007,-4.007,-4.007,-4.007,-4.007,-4.007,-4.007,-4.007,-4.007,-4.007,-4.007,-4.007,-4.007,-4.007,-4.007,-4.007,-4.007,-4.0121,-4.0797,-4.1358,0.0,0.0,0.0,0.0,0.0,0.0,0.0,0.0,0.0,0.0,0.0,0.0,0.0,0.0,0.0,0.0,0.0,0.0,0.0,0.0,0.0,0.0,0.0,0.0,0.0,0.0,0.0,0.0,0.0,-3.3021,-3.3021,-3.3649,-3.4008,-3.4008,-3.4666,-3.5011,-3.5011,-3.534,-3.5504,-3.5504,-3.5504,-3.5504,-3.5504,-3.5504,-3.5504,-3.5504,-3.5504,-3.5504,-3.5504,-3.5504,-3.5504,-3.5504,-3.5504,-3.5504,-3.5504,-3.5504,-3.5504,-3.5504,-3.5504,-3.5718,-3.6117,-3.6508,-3.6843,-3.7263,-3.769,-3.7822,-3.7978,-3.869,-3.8908,-3.9086,-3.9901,-4.007,-4.007,-4.007,-4.007,-4.007,-4.007,-4.007,-4.007,-4.007,-4.007,-4.007,-4.007,-4.007,-4.007,-4.007,-4.007,-4.007,-4.007,-4.007,-4.007,-4.007,-4.007,-4.007,-4.007,-4.007,-4.007,-4.007,-4.007,-4.007,-4.007,-4.007,-4.007,-4.007,-4.007,-4.007,-4.007,-4.007,-4.007,-4.0121,-4.0655,-4.1087,0.0,0.0,0.0,0.0,0.0,0.0,0.0,0.0,0.0,0.0,0.0,0.0,0.0,0.0,0.0,0.0,0.0,0.0,0.0,0.0,0.0,0.0,0.0,0.0,0.0,0.0,0.0,0.0,0.0,-3.2347,-3.2347,-3.2961,-3.332,-3.332,-3.3963,-3.4307,-3.4307,-3.4876,-3.516,-3.516,-3.5265,-3.5385,-3.5504,-3.5504,-3.5504,-3.5504,-3.5504,-3.5504,-3.5504,-3.5504,-3.5504,-3.5504,-3.5504,-3.5504,-3.5504,-3.5504,-3.5504,-3.5504,-3.5504,-3.5894,-3.6384,-3.6384,-3.6874,-3.7413,-3.7413,-3.7413,-3.7573,-3.8469,-3.869,-3.8924,-3.985,-4.007,-4.007,-4.007,-4.007,-4.007,-4.007,-4.007,-4.007,-4.007,-4.007,-4.007,-4.007,-4.007,-4.007,-4.007,-4.007,-4.007,-4.007,-4.007,-4.007,-4.007,-4.007,-4.007,-4.007,-4.007,-4.007,-4.007,-4.007,-4.007,-4.007,-4.007,-4.007,-4.007,-4.007,-4.007,-4.007,-4.007,-4.007,-4.0121,-4.0528,-4.0827,0.0,0.0,0.0,0.0,0.0,0.0,0.0,0.0,0.0,0.0,0.0,0.0,0.0,0.0,0.0,0.0,0.0,0.0,0.0,0.0,0.0,0.0,0.0,0.0,0.0,0.0,0.0,0.0,-3.1556,-3.1601,-3.1601,-3.2287,-3.2647,-3.2647,-3.3275,-3.3619,-3.3619,-3.3724,-3.3769,-3.3769,-3.4337,-3.4921,-3.5504,-3.5504,-3.5504,-3.5504,-3.5504,-3.5504,-3.5504,-3.5504,-3.5504,-3.5504,-3.5504,-3.5504,-3.5504,-3.5504,-3.5504,-3.5504,-3.5504,-3.5554,-3.5668,-3.5668,-3.5733,-3.5797,-3.5797,-3.5797,-3.6085,-3.7515,-3.7921,-3.8262,-3.9731,-4.007,-4.007,-4.007,-4.007,-4.007,-4.007,-4.007,-4.007,-4.007,-4.007,-4.007,-4.007,-4.007,-4.007,-4.007,-4.007,-4.007,-4.007,-4.007,-4.007,-4.007,-4.007,-4.007,-4.007,-4.007,-4.007,-4.007,-4.007,-4.007,-4.007,-4.007,-4.007,-4.007,-4.007,-4.007,-4.007,-4.007,-4.007,-4.007,-4.0154,-4.0449,0.0,0.0,0.0,0.0,0.0,0.0,0.0,0.0,0.0,0.0,0.0,0.0,0.0,0.0,0.0,0.0,0.0,0.0,0.0,0.0,0.0,0.0,0.0,0.0,0.0,0.0,0.0,0.0,-3.1482,-3.1482,-3.1482,-3.1809,-3.1958,-3.1958,-3.2602,-3.2946,-3.2946,-3.3305,-3.3499,-3.3499,-3.3784,-3.4083,-3.4397,-3.4756,-3.513,-3.5504,-3.5504,-3.5504,-3.5504,-3.5504,-3.5504,-3.5504,-3.5504,-3.5504,-3.5504,-3.5504,-3.5504,-3.5504,-3.5504,-3.5504,-3.5504,-3.5504,-3.5504,-3.5504,-3.5504,-3.5504,-3.5733,-3.6814,-3.716,-3.7381,-3.8541,-3.9102,-3.9437,-3.9437,-3.9437,-3.9437,-3.9437,-3.9782,-4.007,-4.007,-4.007,-4.007,-4.007,-4.007,-4.007,-4.007,-4.007,-4.007,-4.007,-4.007,-4.007,-4.007,-4.007,-4.007,-4.007,-4.007,-4.007,-4.007,-4.007,-4.007,-4.007,-4.007,-4.007,-4.007,-4.007,-4.007,-4.007,-4.007,-4.007,-4.007,-4.007,-4.0204,0.0,0.0,0.0,0.0,0.0,0.0,0.0,0.0,0.0,0.0,0.0,0.0,0.0,0.0,0.0,0.0,0.0,0.0,0.0,0.0,0.0,0.0,0.0,0.0,0.0,0.0,0.0,0.0,-3.1482,-3.1482,-3.1482,-3.1482,-3.1482,-3.1482,-3.2018,-3.2273,-3.2273,-3.2751,-3.308,-3.3245,-3.3245,-3.3335,-3.3514,-3.4008,-3.4502,-3.5011,-3.5355,-3.5504,-3.5504,-3.5504,-3.5504,-3.5504,-3.5504,-3.5504,-3.5504,-3.5504,-3.5504,-3.5504,-3.5504,-3.5504,-3.5504,-3.5504,-3.5504,-3.5504,-3.5504,-3.5504,-3.5668,-3.6384,-3.6615,-3.6783,-3.7573,-3.8206,-3.8635,-3.8635,-3.8635,-3.869,-3.8854,-3.9368,-3.985,-4.007,-4.007,-4.007,-4.007,-4.007,-4.007,-4.007,-4.007,-4.007,-4.007,-4.007,-4.007,-4.007,-4.007,-4.007,-4.007,-4.007,-4.007,-4.007,-4.007,-4.007,-4.007,-4.007,-4.007,-4.007,-4.007,-4.007,-4.007,-4.007,-4.007,-4.007,-4.007,-4.007,0.0,0.0,0.0,0.0,0.0,0.0,0.0,0.0,0.0,0.0,0.0,0.0,0.0,0.0,0.0,0.0,0.0,0.0,0.0,0.0,0.0,0.0,0.0,0.0,0.0,0.0,0.0,0.0,-3.1482,-3.1482,-3.1482,-3.1482,-3.1482,-3.1482,-3.1511,-3.1526,-3.1526,-3.1556,-3.1943,-3.2557,-3.2557,-3.2886,-3.3499,-3.3529,-3.3559,-3.3664,-3.4951,-3.5504,-3.5504,-3.5504,-3.5504,-3.5504,-3.5504,-3.5504,-3.5504,-3.5504,-3.5504,-3.5504,-3.5504,-3.5504,-3.5504,-3.5504,-3.5504,-3.5504,-3.5504,-3.5504,-3.5668,-3.6384,-3.6615,-3.6783,-3.7573,-3.7822,-3.7863,-3.7863,-3.7863,-3.8035,-3.8745,-3.8908,-3.9193,-3.9952,-4.007,-4.007,-4.007,-4.007,-4.007,-4.007,-4.007,-4.007,-4.007,-4.007,-4.007,-4.007,-4.007,-4.007,-4.007,-4.007,-4.007,-4.007,-4.007,-4.007,-4.007,-4.007,-4.007,-4.007,-4.007,-4.007,-4.007,-4.007,-4.007,-4.007,-4.007,-4.007,0.0,0.0,0.0,0.0,0.0,0.0,0.0,0.0,0.0,0.0,0.0,0.0,0.0,0.0,0.0,0.0,0.0,0.0,0.0,0.0,0.0,0.0,0.0,0.0,0.0,0.0,0.0,0.0,0.0,-3.1482,-3.1482,-3.1482,-3.1482,-3.1482,-3.1482,-3.1482,-3.1482,-3.1482,-3.1601,-3.1884,-3.1884,-3.2003,-3.2243,-3.2677,-3.2871,-3.2916,-3.3814,-3.4457,-3.4876,-3.5325,-3.5504,-3.5504,-3.5504,-3.5504,-3.5504,-3.5504,-3.5504,-3.5504,-3.5504,-3.5504,-3.5504,-3.5504,-3.5504,-3.5504,-3.5504,-3.5504,-3.5554,-3.5846,-3.5894,-3.5943,-3.6258,-3.6707,-3.7024,-3.7024,-3.7024,-3.7084,-3.7365,-3.7831,-3.8262,-3.8541,-3.8995,-3.9315,-3.9315,-3.9782,-4.007,-4.007,-4.007,-4.007,-4.007,-4.007,-4.007,-4.007,-4.007,-4.007,-4.007,-4.007,-4.007,-4.007,-4.007,-4.007,-4.007,-4.007,-4.007,-4.007,-4.007,-4.007,-4.007,-4.007,-4.007,-4.007,-4.007,-4.007,0.0,0.0,0.0,0.0,0.0,0.0,0.0,0.0,0.0,0.0,0.0,0.0,0.0,0.0,0.0,0.0,0.0,0.0,0.0,0.0,0.0,0.0,0.0,0.0,0.0,0.0,0.0,0.0,0.0,0.0,-3.1467,-3.1482,-3.1482,-3.1482,-3.1482,-3.1482,-3.1482,-3.1482,-3.1482,-3.1482,-3.1482,-3.1482,-3.1497,-3.1988,-3.2183,-3.2213,-3.2886,-3.3664,-3.4502,-3.4966,-3.5295,-3.5504,-3.5504,-3.5504,-3.5504,-3.5504,-3.5504,-3.5504,-3.5504,-3.5504,-3.5504,-3.5504,-3.5504,-3.5504,-3.5504,-3.5504,-3.5504,-3.5504,-3.5504,-3.5504,-3.5504,-3.5831,-3.6228,-3.6228,-3.6228,-3.6228,-3.6228,-3.6874,-3.7456,-3.7764,-3.8414,-3.8908,-3.8908,-3.9558,-4.007,-4.007,-4.007,-4.007,-4.007,-4.007,-4.007,-4.007,-4.007,-4.007,-4.007,-4.007,-4.007,-4.007,-4.007,-4.007,-4.007,-4.007,-4.007,-4.007,-4.007,-4.007,-4.007,-4.007,-4.007,-4.007,-4.007,-4.007,0.0,0.0,0.0,0.0,0.0,0.0,0.0,0.0,0.0,0.0,0.0,0.0,0.0,0.0,0.0,0.0,0.0,0.0,0.0,0.0,0.0,0.0,0.0,0.0,0.0,0.0,0.0,0.0,-3.0462,-3.0776,-3.1377,-3.1437,-3.1452,-3.1482,-3.1482,-3.1482,-3.1482,-3.1482,-3.1482,-3.1482,-3.1482,-3.1482,-3.1482,-3.1482,-3.1482,-3.1511,-3.2213,-3.3215,-3.4427,-3.4457,-3.4876,-3.5474,-3.5489,-3.5504,-3.5504,-3.5504,-3.5504,-3.5504,-3.5504,-3.5504,-3.5504,-3.5504,-3.5504,-3.5504,-3.5504,-3.5504,-3.5504,-3.5504,-3.5504,-3.5504,-3.5504,-3.5504,-3.5504,-3.5504,-3.5504,-3.5504,-3.5504,-3.6054,-3.6798,-3.7573,-3.8302,-3.8854,-3.8854,-3.9542,-4.007,-4.0087,-4.007,-4.007,-4.007,-4.007,-4.007,-4.007,-4.007,-4.007,-4.007,-4.007,-4.007,-4.007,-4.007,-4.007,-4.007,-4.007,-4.007,-4.007,-4.007,-4.007,-4.007,-4.007,-4.007,-4.007,-4.007,-4.007,-1.0694,0.0,0.0,0.0,0.0,0.0,0.0,0.0,0.0,0.0,0.0,0.0,0.0,0.0,0.0,0.0,0.0,0.0,0.0,0.0,0.0,0.0,0.0,0.0,0.0,0.0,0.0,0.0,-2.9564,-2.9924,-3.0118,-3.0552,-3.1016,-3.1452,-3.1482,-3.1482,-3.1482,-3.1482,-3.1482,-3.1482,-3.1482,-3.1482,-3.1482,-3.1482,-3.1482,-3.1482,-3.1676,-3.2273,-3.3125,-3.4083,-3.4592,-3.4801,-3.531,-3.5504,-3.5504,-3.5504,-3.5504,-3.5504,-3.5504,-3.5504,-3.5504,-3.5504,-3.5504,-3.5504,-3.5504,-3.5504,-3.5504,-3.5504,-3.5504,-3.5504,-3.5504,-3.5504,-3.5504,-3.5504,-3.5504,-3.5504,-3.5504,-3.5668,-3.5894,-3.6085,-3.6753,-3.7424,-3.8019,-3.8745,-3.9437,-4.002,-4.007,-4.007,-4.007,-4.007,-4.007,-4.007,-4.007,-4.007,-4.007,-4.007,-4.007,-4.007,-4.007,-4.007,-4.007,-4.007,-4.007,-4.007,-4.007,-4.007,-4.007,-4.007,-4.007,-4.007,-4.007,-4.007,0.0,0.0,0.0,0.0,0.0,0.0,0.0,-1.6291,0.0,0.0,0.0,0.0,0.0,0.0,0.0,0.0,0.0,0.0,0.0,0.0,0.0,0.0,0.0,0.0,0.0,-2.7934,-2.8293,-2.8577,-2.8951,-2.928,-2.9564,-2.9924,-3.0417,-3.1091,-3.1106,-3.124,-3.1482,-3.1482,-3.1482,-3.1482,-3.1482,-3.1482,-3.1482,-3.1482,-3.1482,-3.1482,-3.1482,-3.1691,-3.2213,-3.3529,-3.4233,-3.4547,-3.5235,-3.5504,-3.5504,-3.5504,-3.5504,-3.5504,-3.5504,-3.5504,-3.5504,-3.5504,-3.5504,-3.5504,-3.5504,-3.5504,-3.5504,-3.5504,-3.5504,-3.5504,-3.5504,-3.5504,-3.5504,-3.5504,-3.5504,-3.5504,-3.5504,-3.5504,-3.5504,-3.5504,-3.6117,-3.6722,-3.7219,-3.8173,-3.9086,-3.9542,-3.9901,-4.007,-4.007,-4.007,-4.007,-4.007,-4.007,-4.007,-4.007,-4.007,-4.007,-4.007,-4.007,-4.007,-4.007,-4.007,-4.007,-4.007,-4.007,-4.007,-4.007,-4.007,-4.007,-4.007,-4.007,-4.007,0.0,0.0,0.0,0.0,0.0,0.0,-1.631,-1.6977,0.0,0.0,0.0,0.0,0.0,0.0,0.0,0.0,0.0,0.0,0.0,0.0,0.0,0.0,0.0,0.0,-2.7455,-2.7505,-2.7754,-2.8442,-2.8487,-2.8771,-2.943,-2.9475,-2.9759,-3.0372,-3.0477,-3.0806,-3.1347,-3.1437,-3.1482,-3.1482,-3.1482,-3.1482,-3.1482,-3.1482,-3.1482,-3.1482,-3.1482,-3.1482,-3.1571,-3.2871,-3.3769,-3.4442,-3.5205,-3.5504,-3.5504,-3.5504,-3.5504,-3.5504,-3.5504,-3.5504,-3.5504,-3.5504,-3.5504,-3.5504,-3.5504,-3.5504,-3.5504,-3.5504,-3.5504,-3.5504,-3.5504,-3.5504,-3.5504,-3.5504,-3.5504,-3.5504,-3.5504,-3.5504,-3.5504,-3.5504,-3.6054,-3.6492,-3.6615,-3.7758,-3.8674,-3.8745,-3.9437,-3.9969,-3.9969,-4.002,-4.007,-4.007,-4.007,-4.007,-4.007,-4.007,-4.007,-4.007,-4.007,-4.007,-4.007,-4.007,-4.007,-4.007,-4.007,-4.007,-4.007,-4.007,-4.007,-4.007,-4.007,-4.007,0.0,0.0,-1.5743,0.0,0.0,0.0,0.0,-1.4415,0.0,0.0,0.0,0.0,0.0,0.0,0.0,0.0,0.0,0.0,0.0,0.0,0.0,0.0,0.0,0.0,-2.6722,-2.6782,-2.7051,-2.7724,-2.7784,-2.8068,-2.8757,-2.8801,-2.9086,-2.9744,-3.0238,-3.0567,-3.0702,-3.1255,-3.1482,-3.1482,-3.1482,-3.1482,-3.1482,-3.1482,-3.1482,-3.1482,-3.1482,-3.1482,-3.1541,-3.2377,-3.3095,-3.3814,-3.504,-3.5504,-3.5504,-3.5504,-3.5504,-3.5504,-3.5504,-3.5504,-3.5504,-3.5504,-3.5504,-3.5504,-3.5504,-3.5504,-3.5504,-3.5504,-3.5504,-3.5504,-3.5504,-3.5504,-3.5504,-3.5504,-3.5504,-3.5504,-3.5504,-3.5504,-3.5504,-3.5504,-3.5619,-3.5894,-3.6492,-3.6843,-3.7247,-3.7921,-3.8635,-3.9139,-3.9139,-3.9731,-4.007,-4.007,-4.007,-4.007,-4.007,-4.007,-4.007,-4.007,-4.007,-4.007,-4.007,-4.007,-4.007,-4.007,-4.007,-4.007,-4.007,-4.007,-4.007,-4.007,-4.007,-4.007,0.0,0.0,-1.6384,-1.5885,0.0,0.0,0.0,0.0,-1.5604,0.0,0.0,0.0,0.0,0.0,0.0,0.0,0.0,0.0,0.0,0.0,0.0,0.0,0.0,0.0,-2.5585,-2.5914,-2.6378,-2.7036,-2.738,-2.7775,-2.8068,-2.8083,-2.8397,-2.9071,-2.9385,-2.9864,-3.0492,-3.0851,-3.1195,-3.1482,-3.1482,-3.1482,-3.1482,-3.1482,-3.1482,-3.1482,-3.1482,-3.1482,-3.1526,-3.2243,-3.2706,-3.314,-3.4472,-3.4996,-3.504,-3.5385,-3.5504,-3.5504,-3.5504,-3.5504,-3.5504,-3.5504,-3.5504,-3.5504,-3.5504,-3.5504,-3.5504,-3.5504,-3.5504,-3.5504,-3.5504,-3.5504,-3.5504,-3.5504,-3.5504,-3.5504,-3.5504,-3.5504,-3.5504,-3.5504,-3.5504,-3.5619,-3.6006,-3.6337,-3.6737,-3.7144,-3.7847,-3.8358,-3.8358,-3.9032,-3.9489,-3.9489,-3.985,-4.007,-4.007,-4.007,-4.007,-4.007,-4.007,-4.007,-4.007,-4.007,-4.007,-4.007,-4.007,-4.007,-4.007,-4.007,-4.007,-4.007,-4.007,-4.007,0.0,0.0,0.0,0.0,0.0,-1.6713,0.0,0.0,0.0,-1.7882,0.0,0.0,0.0,0.0,0.0,0.0,0.0,0.0,0.0,0.0,0.0,0.0,0.0,0.0,0.0,-2.4911,-2.5555,-2.6348,-2.6782,-2.7111,-2.7415,-2.755,-2.7829,-2.8382,-2.8532,-2.916,-3.0313,-3.0447,-3.0851,-3.1482,-3.1482,-3.1482,-3.1482,-3.1482,-3.1482,-3.1482,-3.1482,-3.1482,-3.1511,-3.2108,-3.2332,-3.2452,-3.3769,-3.4367,-3.4547,-3.51,-3.5385,-3.5504,-3.5504,-3.5504,-3.5504,-3.5504,-3.5504,-3.5504,-3.5504,-3.5504,-3.5504,-3.5504,-3.5504,-3.5504,-3.5504,-3.5504,-3.5504,-3.5504,-3.5504,-3.5504,-3.5504,-3.5504,-3.5504,-3.5504,-3.5504,-3.5504,-3.5504,-3.6006,-3.6384,-3.6384,-3.704,-3.7573,-3.7573,-3.8246,-3.8745,-3.8908,-3.9489,-3.9952,-4.007,-4.007,-4.007,-4.007,-4.007,-4.007,-4.007,-4.007,-4.007,-4.007,-4.007,-4.007,-4.007,-4.007,-4.007,-4.007,-4.007,-4.007,0.0,0.0,0.0,0.0,-1.8367,0.0,0.0,0.0,-1.6296,-1.5515,0.0,0.0,0.0,0.0,0.0,0.0,0.0,0.0,0.0,0.0,0.0,0.0,0.0,0.0,0.0,-2.3789,-2.4358,-2.563,-2.5255,-2.548,-2.6632,-2.726,-2.7655,-2.7679,-2.8278,-2.8951,-2.9684,-3.0223,-3.0851,-3.1482,-3.1482,-3.1482,-3.1482,-3.1482,-3.1482,-3.1482,-3.1482,-3.1482,-3.1482,-3.1556,-3.1586,-3.1779,-3.3095,-3.3963,-3.4487,-3.4562,-3.4981,-3.5504,-3.5504,-3.5504,-3.5504,-3.5504,-3.5504,-3.5504,-3.5504,-3.5504,-3.5504,-3.5504,-3.5504,-3.5504,-3.5504,-3.5504,-3.5504,-3.5504,-3.5504,-3.5504,-3.5504,-3.5504,-3.5504,-3.5504,-3.5504,-3.5504,-3.5504,-3.5554,-3.5619,-3.5619,-3.629,-3.6737,-3.6737,-3.744,-3.8206,-3.8854,-3.8962,-3.9315,-4.002,-4.007,-4.007,-4.007,-4.007,-4.007,-4.007,-4.007,-4.007,-4.007,-4.007,-4.007,-4.007,-4.007,-4.007,-4.007,-4.007,-4.007,0.0,0.0,0.0,0.0,0.0,0.0,-1.7011,0.0,-1.6484,0.0,0.0,0.0,0.0,0.0,0.0,0.0,0.0,0.0,0.0,0.0,0.0,0.0,0.0,0.0,0.0,0.0,0.0,0.0,-2.3984,-2.4612,-2.5959,-2.6647,-2.7186,-2.761,-2.7859,-2.8517,-2.9564,-2.9834,-3.0492,-3.1482,-3.1482,-3.1482,-3.1482,-3.1482,-3.1482,-3.1482,-3.1482,-3.1482,-3.1482,-3.1482,-3.1482,-3.1584,-3.2138,-3.2766,-3.338,-3.3769,-3.4322,-3.4906,-3.4906,-3.5175,-3.5504,-3.5504,-3.5504,-3.5504,-3.5504,-3.5504,-3.5504,-3.5504,-3.5504,-3.5504,-3.5504,-3.5504,-3.5504,-3.5504,-3.5504,-3.5504,-3.5504,-3.5504,-3.5504,-3.5504,-3.5504,-3.5504,-3.5504,-3.5504,-3.5504,-3.5504,-3.5782,-3.5943,-3.5943,-3.6631,-3.7381,-3.8189,-3.8635,-3.9209,-4.002,-4.007,-4.007,-4.007,-4.007,-4.007,-4.007,-4.007,-4.007,-4.007,-4.007,-4.007,-4.007,-4.007,-4.007,-4.007,-4.007,-4.007,-1.8643,0.0,0.0,0.0,0.0,0.0,0.0,0.0,0.0,0.0,0.0,0.0,0.0,0.0,0.0,0.0,0.0,0.0,0.0,0.0,0.0,0.0,0.0,0.0,0.0,0.0,0.0,0.0,0.0,-2.3266,-2.4971,-2.5854,-2.6617,-2.7275,-2.752,-2.8143,-2.9295,-2.949,-3.0148,-3.1255,-3.1377,-3.1482,-3.1482,-3.1482,-3.1482,-3.1482,-3.1482,-3.1482,-3.1482,-3.1482,-3.1482,-3.1482,-3.1482,-3.1824,-3.2332,-3.2976,-3.3649,-3.4233,-3.4412,-3.4936,-3.5504,-3.5504,-3.5504,-3.5504,-3.5504,-3.5504,-3.5504,-3.5504,-3.5504,-3.5504,-3.5504,-3.5504,-3.5504,-3.5504,-3.5504,-3.5504,-3.5504,-3.5504,-3.5504,-3.5504,-3.5504,-3.5504,-3.5504,-3.5504,-3.5504,-3.5504,-3.5504,-3.5504,-3.5504,-3.5943,-3.6692,-3.769,-3.8246,-3.8978,-4.002,-4.007,-4.007,-4.007,-4.007,-4.007,-4.007,-4.007,-4.007,-4.007,-4.007,-4.007,-4.007,-4.007,-4.007,-4.007,-4.007,-4.007,0.0,0.0,0.0,-1.8606,0.0,0.0,0.0,0.0,-1.784,0.0,0.0,0.0,0.0,0.0,0.0,0.0,0.0,0.0,0.0,0.0,0.0,0.0,0.0,0.0,0.0,0.0,0.0,0.0,0.0,0.0,-2.3535,-2.4926,-2.5944,-2.6602,-2.7245,-2.7919,-2.8622,-2.9265,-2.9909,-3.0552,-3.121,-3.1482,-3.1482,-3.1482,-3.1482,-3.1482,-3.1482,-3.1482,-3.1482,-3.1482,-3.1482,-3.1482,-3.1482,-3.1482,-3.1586,-3.2302,-3.2961,-3.3619,-3.4247,-3.4936,-3.5504,-3.5504,-3.5504,-3.5504,-3.5504,-3.5504,-3.5504,-3.5504,-3.5504,-3.5504,-3.5504,-3.5504,-3.5504,-3.5504,-3.5504,-3.5504,-3.5504,-3.5504,-3.5504,-3.5504,-3.5504,-3.5504,-3.5504,-3.5504,-3.5504,-3.5504,-3.5504,-3.5504,-3.5504,-3.5504,-3.6148,-3.7648,-3.7822,-3.843,-3.9969,-4.007,-4.007,-4.007,-4.007,-4.007,-4.007,-4.007,-4.007,-4.007,-4.007,-4.007,-4.007,-4.007,-4.007,-4.007,-4.007,-4.007,0.0,0.0,-2.0351,-1.907,0.0,0.0,0.0,0.0,0.0,0.0,0.0,0.0,0.0,0.0,0.0,0.0,0.0,0.0,0.0,0.0,0.0,0.0,0.0,0.0,0.0,0.0,0.0,0.0,-2.0124,0.0,0.0,-2.4657,-2.5914,-2.6572,-2.723,-2.7904,-2.8592,-2.925,-2.9894,-3.0507,-3.121,-3.1482,-3.1482,-3.1482,-3.1482,-3.1482,-3.1482,-3.1482,-3.1482,-3.1482,-3.1482,-3.1482,-3.1482,-3.1482,-3.1497,-3.1779,-3.2273,-3.3006,-3.4098,-3.4622,-3.4906,-3.5355,-3.5504,-3.5504,-3.5504,-3.5504,-3.5504,-3.5504,-3.5504,-3.5504,-3.5504,-3.5504,-3.5504,-3.5504,-3.5504,-3.5504,-3.5504,-3.5504,-3.5504,-3.5504,-3.5504,-3.5504,-3.5504,-3.5504,-3.5504,-3.5504,-3.5504,-3.5504,-3.5504,-3.5958,-3.6631,-3.7706,-3.8262,-3.8924,-4.002,-4.007,-4.007,-4.007,-4.007,-4.007,-4.007,-4.007,-4.007,-4.007,-4.007,-4.007,-4.007,-4.007,-4.007,-4.007,-4.007,-4.007,-1.9861,-2.0075,0.0,-1.9484,-1.9296,0.0,-1.7928,0.0,0.0,0.0,0.0,0.0,0.0,0.0,0.0,0.0,0.0,0.0,0.0,0.0,0.0,0.0,0.0,0.0,0.0,0.0,-1.8044,-1.8986,0.0,0.0,0.0,0.0,-2.5315,-2.6213,-2.7111,-2.7784,-2.8233,-2.9131,-2.9789,-3.0193,-3.1106,-3.1482,-3.1482,-3.1482,-3.1482,-3.1482,-3.1482,-3.1482,-3.1482,-3.1482,-3.1482,-3.1482,-3.1482,-3.1482,-3.1482,-3.1482,-3.2093,-3.2976,-3.3829,-3.4442,-3.4921,-3.5355,-3.5504,-3.5504,-3.5504,-3.5504,-3.5504,-3.5504,-3.5504,-3.5504,-3.5504,-3.5504,-3.5504,-3.5504,-3.5504,-3.5504,-3.5504,-3.5504,-3.5504,-3.5504,-3.5504,-3.5504,-3.5504,-3.5504,-3.5504,-3.5504,-3.5504,-3.5504,-3.5504,-3.5879,-3.6646,-3.7706,-3.8262,-3.8924,-4.002,-4.007,-4.007,-4.007,-4.007,-4.007,-4.007,-4.007,-4.007,-4.007,-4.007,-4.007,-4.007,-4.007,-4.007,-4.007,-4.007,-4.007]}]]